<?xml version="1.0" encoding="UTF-8" standalone="no" ?>
<gpx xmlns="http://www.topografix.com/GPX/1/1" xmlns:xsi="http://www.w3.org/2001/XMLSchema-instance" xsi:schemaLocation="http://www.topografix.com/GPX/1/1 http://www.topografix.com/GPX/1/1/gpx.xsd" version="1.1" creator="VisuGPX - https://www.visugpx.com">
  <metadata>
    <name>ski rocher de Patres</name>
    <desc><![CDATA[
]]></desc>
  </metadata>
  <trk>
    <name><![CDATA[ski rocher de Patres]]></name>
    <trkseg>
      <trkpt lat="45.30293" lon="6.22745">
        <ele>1421.8000488281</ele>
        <time>2011-02-07T08:11:45.000Z</time>
      </trkpt>
      <trkpt lat="45.30287" lon="6.22742">
        <ele>1421.4000244141</ele>
        <time>2011-02-07T08:11:52.000Z</time>
      </trkpt>
      <trkpt lat="45.30286" lon="6.22742">
        <ele>1421.5999755859</ele>
        <time>2011-02-07T08:11:53.000Z</time>
      </trkpt>
      <trkpt lat="45.30284" lon="6.22728">
        <ele>1422.5999755859</ele>
        <time>2011-02-07T08:12:29.000Z</time>
      </trkpt>
      <trkpt lat="45.30281" lon="6.22721">
        <ele>1423</ele>
        <time>2011-02-07T08:12:36.000Z</time>
      </trkpt>
      <trkpt lat="45.3028" lon="6.22721">
        <ele>1423.1999511719</ele>
        <time>2011-02-07T08:12:37.000Z</time>
      </trkpt>
      <trkpt lat="45.30273" lon="6.22721">
        <ele>1423.8000488281</ele>
        <time>2011-02-07T08:12:44.000Z</time>
      </trkpt>
      <trkpt lat="45.30262" lon="6.22726">
        <ele>1424</ele>
        <time>2011-02-07T08:13:10.000Z</time>
      </trkpt>
      <trkpt lat="45.3026" lon="6.22717">
        <ele>1424.8000488281</ele>
        <time>2011-02-07T08:13:17.000Z</time>
      </trkpt>
      <trkpt lat="45.30258" lon="6.22706">
        <ele>1425.8000488281</ele>
        <time>2011-02-07T08:13:22.000Z</time>
      </trkpt>
      <trkpt lat="45.30258" lon="6.22698">
        <ele>1425.5999755859</ele>
        <time>2011-02-07T08:13:36.000Z</time>
      </trkpt>
      <trkpt lat="45.3026" lon="6.22701">
        <ele>1426.1999511719</ele>
        <time>2011-02-07T08:13:39.000Z</time>
      </trkpt>
      <trkpt lat="45.30265" lon="6.22686">
        <ele>1426.4000244141</ele>
        <time>2011-02-07T08:14:19.000Z</time>
      </trkpt>
      <trkpt lat="45.30251" lon="6.22677">
        <ele>1427.5999755859</ele>
        <time>2011-02-07T08:14:47.000Z</time>
      </trkpt>
      <trkpt lat="45.30252" lon="6.22676">
        <ele>1427.8000488281</ele>
        <time>2011-02-07T08:14:48.000Z</time>
      </trkpt>
      <trkpt lat="45.30257" lon="6.22663">
        <ele>1429.1999511719</ele>
        <time>2011-02-07T08:15:06.000Z</time>
      </trkpt>
      <trkpt lat="45.30258" lon="6.22656">
        <ele>1429.5999755859</ele>
        <time>2011-02-07T08:15:11.000Z</time>
      </trkpt>
      <trkpt lat="45.30254" lon="6.22647">
        <ele>1430.5999755859</ele>
        <time>2011-02-07T08:15:17.000Z</time>
      </trkpt>
      <trkpt lat="45.30248" lon="6.22643">
        <ele>1431.4000244141</ele>
        <time>2011-02-07T08:15:22.000Z</time>
      </trkpt>
      <trkpt lat="45.30242" lon="6.22636">
        <ele>1432.5999755859</ele>
        <time>2011-02-07T08:15:29.000Z</time>
      </trkpt>
      <trkpt lat="45.30237" lon="6.22629">
        <ele>1433.5999755859</ele>
        <time>2011-02-07T08:15:37.000Z</time>
      </trkpt>
      <trkpt lat="45.30235" lon="6.22621">
        <ele>1434.1999511719</ele>
        <time>2011-02-07T08:15:42.000Z</time>
      </trkpt>
      <trkpt lat="45.30233" lon="6.22615">
        <ele>1435</ele>
        <time>2011-02-07T08:15:46.000Z</time>
      </trkpt>
      <trkpt lat="45.30228" lon="6.22608">
        <ele>1435.4000244141</ele>
        <time>2011-02-07T08:15:52.000Z</time>
      </trkpt>
      <trkpt lat="45.30225" lon="6.22605">
        <ele>1436.1999511719</ele>
        <time>2011-02-07T08:15:57.000Z</time>
      </trkpt>
      <trkpt lat="45.3022" lon="6.226">
        <ele>1436.8000488281</ele>
        <time>2011-02-07T08:16:05.000Z</time>
      </trkpt>
      <trkpt lat="45.30214" lon="6.22597">
        <ele>1437.1999511719</ele>
        <time>2011-02-07T08:16:12.000Z</time>
      </trkpt>
      <trkpt lat="45.30211" lon="6.22588">
        <ele>1438</ele>
        <time>2011-02-07T08:16:19.000Z</time>
      </trkpt>
      <trkpt lat="45.30208" lon="6.22584">
        <ele>1438.1999511719</ele>
        <time>2011-02-07T08:16:22.000Z</time>
      </trkpt>
      <trkpt lat="45.30206" lon="6.22581">
        <ele>1438.5999755859</ele>
        <time>2011-02-07T08:16:24.000Z</time>
      </trkpt>
      <trkpt lat="45.30203" lon="6.22575">
        <ele>1438.8000488281</ele>
        <time>2011-02-07T08:16:27.000Z</time>
      </trkpt>
      <trkpt lat="45.302" lon="6.22572">
        <ele>1439.1999511719</ele>
        <time>2011-02-07T08:16:29.000Z</time>
      </trkpt>
      <trkpt lat="45.30196" lon="6.22562">
        <ele>1440</ele>
        <time>2011-02-07T08:16:35.000Z</time>
      </trkpt>
      <trkpt lat="45.30194" lon="6.22556">
        <ele>1440.5999755859</ele>
        <time>2011-02-07T08:16:41.000Z</time>
      </trkpt>
      <trkpt lat="45.30192" lon="6.22554">
        <ele>1441</ele>
        <time>2011-02-07T08:16:43.000Z</time>
      </trkpt>
      <trkpt lat="45.30188" lon="6.22547">
        <ele>1441.1999511719</ele>
        <time>2011-02-07T08:16:49.000Z</time>
      </trkpt>
      <trkpt lat="45.30187" lon="6.22541">
        <ele>1441.4000244141</ele>
        <time>2011-02-07T08:16:53.000Z</time>
      </trkpt>
      <trkpt lat="45.30183" lon="6.22534">
        <ele>1442.4000244141</ele>
        <time>2011-02-07T08:17:00.000Z</time>
      </trkpt>
      <trkpt lat="45.30178" lon="6.22532">
        <ele>1443.1999511719</ele>
        <time>2011-02-07T08:17:07.000Z</time>
      </trkpt>
      <trkpt lat="45.30172" lon="6.22525">
        <ele>1443.8000488281</ele>
        <time>2011-02-07T08:17:13.000Z</time>
      </trkpt>
      <trkpt lat="45.3017" lon="6.22518">
        <ele>1444.4000244141</ele>
        <time>2011-02-07T08:17:19.000Z</time>
      </trkpt>
      <trkpt lat="45.30168" lon="6.22516">
        <ele>1444.8000488281</ele>
        <time>2011-02-07T08:17:22.000Z</time>
      </trkpt>
      <trkpt lat="45.30162" lon="6.22509">
        <ele>1445.5999755859</ele>
        <time>2011-02-07T08:17:35.000Z</time>
      </trkpt>
      <trkpt lat="45.30159" lon="6.22506">
        <ele>1446.1999511719</ele>
        <time>2011-02-07T08:17:39.000Z</time>
      </trkpt>
      <trkpt lat="45.3016" lon="6.22504">
        <ele>1446.4000244141</ele>
        <time>2011-02-07T08:17:41.000Z</time>
      </trkpt>
      <trkpt lat="45.30166" lon="6.22496">
        <ele>1447.5999755859</ele>
        <time>2011-02-07T08:17:48.000Z</time>
      </trkpt>
      <trkpt lat="45.30171" lon="6.22487">
        <ele>1448.4000244141</ele>
        <time>2011-02-07T08:17:55.000Z</time>
      </trkpt>
      <trkpt lat="45.30177" lon="6.22477">
        <ele>1449</ele>
        <time>2011-02-07T08:18:02.000Z</time>
      </trkpt>
      <trkpt lat="45.30181" lon="6.22473">
        <ele>1449.5999755859</ele>
        <time>2011-02-07T08:18:08.000Z</time>
      </trkpt>
      <trkpt lat="45.30185" lon="6.22473">
        <ele>1450.4000244141</ele>
        <time>2011-02-07T08:18:15.000Z</time>
      </trkpt>
      <trkpt lat="45.30188" lon="6.22474">
        <ele>1450.8000488281</ele>
        <time>2011-02-07T08:18:20.000Z</time>
      </trkpt>
      <trkpt lat="45.30192" lon="6.22474">
        <ele>1450.8000488281</ele>
        <time>2011-02-07T08:18:24.000Z</time>
      </trkpt>
      <trkpt lat="45.30194" lon="6.22475">
        <ele>1451.4000244141</ele>
        <time>2011-02-07T08:18:29.000Z</time>
      </trkpt>
      <trkpt lat="45.30209" lon="6.22478">
        <ele>1452.4000244141</ele>
        <time>2011-02-07T08:18:42.000Z</time>
      </trkpt>
      <trkpt lat="45.30214" lon="6.22483">
        <ele>1453.4000244141</ele>
        <time>2011-02-07T08:18:49.000Z</time>
      </trkpt>
      <trkpt lat="45.30216" lon="6.22491">
        <ele>1453.8000488281</ele>
        <time>2011-02-07T08:18:55.000Z</time>
      </trkpt>
      <trkpt lat="45.3022" lon="6.22498">
        <ele>1454.8000488281</ele>
        <time>2011-02-07T08:19:01.000Z</time>
      </trkpt>
      <trkpt lat="45.30221" lon="6.22499">
        <ele>1454.8000488281</ele>
        <time>2011-02-07T08:19:02.000Z</time>
      </trkpt>
      <trkpt lat="45.30224" lon="6.22508">
        <ele>1455.4000244141</ele>
        <time>2011-02-07T08:19:07.000Z</time>
      </trkpt>
      <trkpt lat="45.30229" lon="6.22515">
        <ele>1456.1999511719</ele>
        <time>2011-02-07T08:19:13.000Z</time>
      </trkpt>
      <trkpt lat="45.30229" lon="6.22516">
        <ele>1456.4000244141</ele>
        <time>2011-02-07T08:19:14.000Z</time>
      </trkpt>
      <trkpt lat="45.30231" lon="6.22518">
        <ele>1456.5999755859</ele>
        <time>2011-02-07T08:19:16.000Z</time>
      </trkpt>
      <trkpt lat="45.30235" lon="6.22526">
        <ele>1457</ele>
        <time>2011-02-07T08:19:21.000Z</time>
      </trkpt>
      <trkpt lat="45.30235" lon="6.2253">
        <ele>1457.5999755859</ele>
        <time>2011-02-07T08:19:24.000Z</time>
      </trkpt>
      <trkpt lat="45.30239" lon="6.22535">
        <ele>1458.1999511719</ele>
        <time>2011-02-07T08:19:30.000Z</time>
      </trkpt>
      <trkpt lat="45.30244" lon="6.22536">
        <ele>1458.8000488281</ele>
        <time>2011-02-07T08:19:35.000Z</time>
      </trkpt>
      <trkpt lat="45.30246" lon="6.22538">
        <ele>1459.1999511719</ele>
        <time>2011-02-07T08:19:37.000Z</time>
      </trkpt>
      <trkpt lat="45.30252" lon="6.22544">
        <ele>1459.4000244141</ele>
        <time>2011-02-07T08:19:42.000Z</time>
      </trkpt>
      <trkpt lat="45.30255" lon="6.22546">
        <ele>1460</ele>
        <time>2011-02-07T08:19:45.000Z</time>
      </trkpt>
      <trkpt lat="45.3026" lon="6.22549">
        <ele>1460.1999511719</ele>
        <time>2011-02-07T08:19:49.000Z</time>
      </trkpt>
      <trkpt lat="45.30269" lon="6.22561">
        <ele>1461.1999511719</ele>
        <time>2011-02-07T08:19:59.000Z</time>
      </trkpt>
      <trkpt lat="45.30269" lon="6.22562">
        <ele>1461.4000244141</ele>
        <time>2011-02-07T08:20:00.000Z</time>
      </trkpt>
      <trkpt lat="45.30275" lon="6.22569">
        <ele>1461.8000488281</ele>
        <time>2011-02-07T08:20:06.000Z</time>
      </trkpt>
      <trkpt lat="45.30279" lon="6.22571">
        <ele>1462.5999755859</ele>
        <time>2011-02-07T08:20:12.000Z</time>
      </trkpt>
      <trkpt lat="45.30281" lon="6.2257">
        <ele>1463</ele>
        <time>2011-02-07T08:20:17.000Z</time>
      </trkpt>
      <trkpt lat="45.3028" lon="6.22573">
        <ele>1459.5999755859</ele>
        <time>2011-02-07T08:20:26.000Z</time>
      </trkpt>
      <trkpt lat="45.30279" lon="6.22574">
        <ele>1457</ele>
        <time>2011-02-07T08:20:27.000Z</time>
      </trkpt>
      <trkpt lat="45.30275" lon="6.22577">
        <ele>1456.8000488281</ele>
        <time>2011-02-07T08:20:31.000Z</time>
      </trkpt>
      <trkpt lat="45.30274" lon="6.22578">
        <ele>1456.8000488281</ele>
        <time>2011-02-07T08:20:32.000Z</time>
      </trkpt>
      <trkpt lat="45.30281" lon="6.22581">
        <ele>1462.8000488281</ele>
        <time>2011-02-07T08:20:37.000Z</time>
      </trkpt>
      <trkpt lat="45.30283" lon="6.22584">
        <ele>1464.1999511719</ele>
        <time>2011-02-07T08:20:39.000Z</time>
      </trkpt>
      <trkpt lat="45.30286" lon="6.22588">
        <ele>1464.1999511719</ele>
        <time>2011-02-07T08:20:42.000Z</time>
      </trkpt>
      <trkpt lat="45.30295" lon="6.22589">
        <ele>1465</ele>
        <time>2011-02-07T08:20:49.000Z</time>
      </trkpt>
      <trkpt lat="45.30297" lon="6.2259">
        <ele>1465.1999511719</ele>
        <time>2011-02-07T08:20:51.000Z</time>
      </trkpt>
      <trkpt lat="45.30301" lon="6.22595">
        <ele>1465.8000488281</ele>
        <time>2011-02-07T08:20:56.000Z</time>
      </trkpt>
      <trkpt lat="45.30308" lon="6.22599">
        <ele>1466.8000488281</ele>
        <time>2011-02-07T08:21:02.000Z</time>
      </trkpt>
      <trkpt lat="45.30314" lon="6.22599">
        <ele>1467.4000244141</ele>
        <time>2011-02-07T08:21:07.000Z</time>
      </trkpt>
      <trkpt lat="45.3032" lon="6.22602">
        <ele>1468.4000244141</ele>
        <time>2011-02-07T08:21:14.000Z</time>
      </trkpt>
      <trkpt lat="45.30323" lon="6.22604">
        <ele>1468.8000488281</ele>
        <time>2011-02-07T08:21:17.000Z</time>
      </trkpt>
      <trkpt lat="45.30327" lon="6.22609">
        <ele>1469.4000244141</ele>
        <time>2011-02-07T08:21:22.000Z</time>
      </trkpt>
      <trkpt lat="45.30332" lon="6.22614">
        <ele>1470.1999511719</ele>
        <time>2011-02-07T08:21:28.000Z</time>
      </trkpt>
      <trkpt lat="45.3034" lon="6.22617">
        <ele>1471</ele>
        <time>2011-02-07T08:21:36.000Z</time>
      </trkpt>
      <trkpt lat="45.30345" lon="6.22623">
        <ele>1472</ele>
        <time>2011-02-07T08:21:42.000Z</time>
      </trkpt>
      <trkpt lat="45.30349" lon="6.22624">
        <ele>1472</ele>
        <time>2011-02-07T08:21:46.000Z</time>
      </trkpt>
      <trkpt lat="45.30359" lon="6.22633">
        <ele>1472.4000244141</ele>
        <time>2011-02-07T08:21:54.000Z</time>
      </trkpt>
      <trkpt lat="45.30369" lon="6.22645">
        <ele>1473.4000244141</ele>
        <time>2011-02-07T08:22:02.000Z</time>
      </trkpt>
      <trkpt lat="45.30374" lon="6.22653">
        <ele>1473.8000488281</ele>
        <time>2011-02-07T08:22:08.000Z</time>
      </trkpt>
      <trkpt lat="45.30378" lon="6.22653">
        <ele>1474.4000244141</ele>
        <time>2011-02-07T08:22:14.000Z</time>
      </trkpt>
      <trkpt lat="45.30379" lon="6.22654">
        <ele>1474.5999755859</ele>
        <time>2011-02-07T08:22:15.000Z</time>
      </trkpt>
      <trkpt lat="45.30386" lon="6.22659">
        <ele>1475.4000244141</ele>
        <time>2011-02-07T08:22:23.000Z</time>
      </trkpt>
      <trkpt lat="45.30392" lon="6.22663">
        <ele>1476.4000244141</ele>
        <time>2011-02-07T08:22:31.000Z</time>
      </trkpt>
      <trkpt lat="45.30395" lon="6.22665">
        <ele>1476.5999755859</ele>
        <time>2011-02-07T08:22:34.000Z</time>
      </trkpt>
      <trkpt lat="45.30403" lon="6.22666">
        <ele>1477</ele>
        <time>2011-02-07T08:22:41.000Z</time>
      </trkpt>
      <trkpt lat="45.30406" lon="6.22668">
        <ele>1477.4000244141</ele>
        <time>2011-02-07T08:22:44.000Z</time>
      </trkpt>
      <trkpt lat="45.3041" lon="6.22672">
        <ele>1477.8000488281</ele>
        <time>2011-02-07T08:22:49.000Z</time>
      </trkpt>
      <trkpt lat="45.30412" lon="6.22678">
        <ele>1478</ele>
        <time>2011-02-07T08:22:54.000Z</time>
      </trkpt>
      <trkpt lat="45.30417" lon="6.22684">
        <ele>1478.8000488281</ele>
        <time>2011-02-07T08:23:00.000Z</time>
      </trkpt>
      <trkpt lat="45.30419" lon="6.22689">
        <ele>1479.1999511719</ele>
        <time>2011-02-07T08:23:04.000Z</time>
      </trkpt>
      <trkpt lat="45.3042" lon="6.22692">
        <ele>1479.1999511719</ele>
        <time>2011-02-07T08:23:06.000Z</time>
      </trkpt>
      <trkpt lat="45.30425" lon="6.22699">
        <ele>1480.1999511719</ele>
        <time>2011-02-07T08:23:13.000Z</time>
      </trkpt>
      <trkpt lat="45.30433" lon="6.22702">
        <ele>1481.1999511719</ele>
        <time>2011-02-07T08:23:21.000Z</time>
      </trkpt>
      <trkpt lat="45.30435" lon="6.22701">
        <ele>1481.4000244141</ele>
        <time>2011-02-07T08:23:24.000Z</time>
      </trkpt>
      <trkpt lat="45.30434" lon="6.22693">
        <ele>1482</ele>
        <time>2011-02-07T08:23:29.000Z</time>
      </trkpt>
      <trkpt lat="45.30422" lon="6.22656">
        <ele>1484.5999755859</ele>
        <time>2011-02-07T08:23:54.000Z</time>
      </trkpt>
      <trkpt lat="45.30423" lon="6.22656">
        <ele>1484.8000488281</ele>
        <time>2011-02-07T08:23:55.000Z</time>
      </trkpt>
      <trkpt lat="45.30413" lon="6.22636">
        <ele>1485.8000488281</ele>
        <time>2011-02-07T08:24:08.000Z</time>
      </trkpt>
      <trkpt lat="45.30409" lon="6.22624">
        <ele>1486.8000488281</ele>
        <time>2011-02-07T08:24:17.000Z</time>
      </trkpt>
      <trkpt lat="45.30404" lon="6.2261">
        <ele>1488</ele>
        <time>2011-02-07T08:24:29.000Z</time>
      </trkpt>
      <trkpt lat="45.30402" lon="6.22606">
        <ele>1488.4000244141</ele>
        <time>2011-02-07T08:24:32.000Z</time>
      </trkpt>
      <trkpt lat="45.30391" lon="6.22597">
        <ele>1489.5999755859</ele>
        <time>2011-02-07T08:24:43.000Z</time>
      </trkpt>
      <trkpt lat="45.30387" lon="6.22588">
        <ele>1490.5999755859</ele>
        <time>2011-02-07T08:24:49.000Z</time>
      </trkpt>
      <trkpt lat="45.30383" lon="6.22581">
        <ele>1491.1999511719</ele>
        <time>2011-02-07T08:24:54.000Z</time>
      </trkpt>
      <trkpt lat="45.3038" lon="6.22575">
        <ele>1492.1999511719</ele>
        <time>2011-02-07T08:24:59.000Z</time>
      </trkpt>
      <trkpt lat="45.30377" lon="6.22563">
        <ele>1493.1999511719</ele>
        <time>2011-02-07T08:25:08.000Z</time>
      </trkpt>
      <trkpt lat="45.30373" lon="6.22557">
        <ele>1494</ele>
        <time>2011-02-07T08:25:13.000Z</time>
      </trkpt>
      <trkpt lat="45.30365" lon="6.22548">
        <ele>1495.1999511719</ele>
        <time>2011-02-07T08:25:23.000Z</time>
      </trkpt>
      <trkpt lat="45.30361" lon="6.22542">
        <ele>1496.1999511719</ele>
        <time>2011-02-07T08:25:28.000Z</time>
      </trkpt>
      <trkpt lat="45.3036" lon="6.22539">
        <ele>1496.8000488281</ele>
        <time>2011-02-07T08:25:31.000Z</time>
      </trkpt>
      <trkpt lat="45.30357" lon="6.22532">
        <ele>1497.4000244141</ele>
        <time>2011-02-07T08:25:36.000Z</time>
      </trkpt>
      <trkpt lat="45.30356" lon="6.2253">
        <ele>1497.4000244141</ele>
        <time>2011-02-07T08:25:38.000Z</time>
      </trkpt>
      <trkpt lat="45.30349" lon="6.2252">
        <ele>1498.8000488281</ele>
        <time>2011-02-07T08:25:49.000Z</time>
      </trkpt>
      <trkpt lat="45.30347" lon="6.22519">
        <ele>1499</ele>
        <time>2011-02-07T08:25:50.000Z</time>
      </trkpt>
      <trkpt lat="45.30344" lon="6.22512">
        <ele>1499.4000244141</ele>
        <time>2011-02-07T08:25:55.000Z</time>
      </trkpt>
      <trkpt lat="45.30339" lon="6.22505">
        <ele>1500.1999511719</ele>
        <time>2011-02-07T08:26:01.000Z</time>
      </trkpt>
      <trkpt lat="45.30335" lon="6.22497">
        <ele>1501.4000244141</ele>
        <time>2011-02-07T08:26:09.000Z</time>
      </trkpt>
      <trkpt lat="45.30334" lon="6.22495">
        <ele>1501.4000244141</ele>
        <time>2011-02-07T08:26:10.000Z</time>
      </trkpt>
      <trkpt lat="45.30332" lon="6.22485">
        <ele>1502.1999511719</ele>
        <time>2011-02-07T08:26:15.000Z</time>
      </trkpt>
      <trkpt lat="45.30328" lon="6.22473">
        <ele>1503.1999511719</ele>
        <time>2011-02-07T08:26:25.000Z</time>
      </trkpt>
      <trkpt lat="45.30324" lon="6.22469">
        <ele>1503.5999755859</ele>
        <time>2011-02-07T08:26:29.000Z</time>
      </trkpt>
      <trkpt lat="45.30321" lon="6.22463">
        <ele>1504.4000244141</ele>
        <time>2011-02-07T08:26:35.000Z</time>
      </trkpt>
      <trkpt lat="45.30317" lon="6.22461">
        <ele>1505</ele>
        <time>2011-02-07T08:26:40.000Z</time>
      </trkpt>
      <trkpt lat="45.30314" lon="6.22455">
        <ele>1505.8000488281</ele>
        <time>2011-02-07T08:26:44.000Z</time>
      </trkpt>
      <trkpt lat="45.30311" lon="6.22448">
        <ele>1506.4000244141</ele>
        <time>2011-02-07T08:26:48.000Z</time>
      </trkpt>
      <trkpt lat="45.30306" lon="6.22444">
        <ele>1506.8000488281</ele>
        <time>2011-02-07T08:26:52.000Z</time>
      </trkpt>
      <trkpt lat="45.30301" lon="6.22442">
        <ele>1507.4000244141</ele>
        <time>2011-02-07T08:26:57.000Z</time>
      </trkpt>
      <trkpt lat="45.303" lon="6.22439">
        <ele>1507.8000488281</ele>
        <time>2011-02-07T08:26:59.000Z</time>
      </trkpt>
      <trkpt lat="45.30295" lon="6.22428">
        <ele>1509</ele>
        <time>2011-02-07T08:27:07.000Z</time>
      </trkpt>
      <trkpt lat="45.30286" lon="6.22413">
        <ele>1510.5999755859</ele>
        <time>2011-02-07T08:27:22.000Z</time>
      </trkpt>
      <trkpt lat="45.30283" lon="6.22409">
        <ele>1511.5999755859</ele>
        <time>2011-02-07T08:27:26.000Z</time>
      </trkpt>
      <trkpt lat="45.3028" lon="6.22399">
        <ele>1512.1999511719</ele>
        <time>2011-02-07T08:27:33.000Z</time>
      </trkpt>
      <trkpt lat="45.30278" lon="6.22391">
        <ele>1513.1999511719</ele>
        <time>2011-02-07T08:27:40.000Z</time>
      </trkpt>
      <trkpt lat="45.30274" lon="6.22381">
        <ele>1514.1999511719</ele>
        <time>2011-02-07T08:27:48.000Z</time>
      </trkpt>
      <trkpt lat="45.30267" lon="6.2237">
        <ele>1515</ele>
        <time>2011-02-07T08:27:56.000Z</time>
      </trkpt>
      <trkpt lat="45.30264" lon="6.22365">
        <ele>1515.5999755859</ele>
        <time>2011-02-07T08:28:00.000Z</time>
      </trkpt>
      <trkpt lat="45.30261" lon="6.22361">
        <ele>1515.8000488281</ele>
        <time>2011-02-07T08:28:03.000Z</time>
      </trkpt>
      <trkpt lat="45.30254" lon="6.22353">
        <ele>1516.5999755859</ele>
        <time>2011-02-07T08:28:08.000Z</time>
      </trkpt>
      <trkpt lat="45.30252" lon="6.22346">
        <ele>1517</ele>
        <time>2011-02-07T08:28:13.000Z</time>
      </trkpt>
      <trkpt lat="45.30251" lon="6.22341">
        <ele>1517.5999755859</ele>
        <time>2011-02-07T08:28:17.000Z</time>
      </trkpt>
      <trkpt lat="45.30249" lon="6.22334">
        <ele>1518</ele>
        <time>2011-02-07T08:28:22.000Z</time>
      </trkpt>
      <trkpt lat="45.30241" lon="6.22318">
        <ele>1519.5999755859</ele>
        <time>2011-02-07T08:28:35.000Z</time>
      </trkpt>
      <trkpt lat="45.30239" lon="6.22313">
        <ele>1520.1999511719</ele>
        <time>2011-02-07T08:28:40.000Z</time>
      </trkpt>
      <trkpt lat="45.30237" lon="6.22308">
        <ele>1520.5999755859</ele>
        <time>2011-02-07T08:28:45.000Z</time>
      </trkpt>
      <trkpt lat="45.30234" lon="6.22299">
        <ele>1521.4000244141</ele>
        <time>2011-02-07T08:28:51.000Z</time>
      </trkpt>
      <trkpt lat="45.30231" lon="6.2229">
        <ele>1522.1999511719</ele>
        <time>2011-02-07T08:28:58.000Z</time>
      </trkpt>
      <trkpt lat="45.30229" lon="6.22282">
        <ele>1522.8000488281</ele>
        <time>2011-02-07T08:29:02.000Z</time>
      </trkpt>
      <trkpt lat="45.30226" lon="6.22278">
        <ele>1523.1999511719</ele>
        <time>2011-02-07T08:29:06.000Z</time>
      </trkpt>
      <trkpt lat="45.30222" lon="6.2227">
        <ele>1524.1999511719</ele>
        <time>2011-02-07T08:29:12.000Z</time>
      </trkpt>
      <trkpt lat="45.30217" lon="6.22263">
        <ele>1525.1999511719</ele>
        <time>2011-02-07T08:29:19.000Z</time>
      </trkpt>
      <trkpt lat="45.30203" lon="6.22244">
        <ele>1527.4000244141</ele>
        <time>2011-02-07T08:29:37.000Z</time>
      </trkpt>
      <trkpt lat="45.30201" lon="6.22238">
        <ele>1528.1999511719</ele>
        <time>2011-02-07T08:29:42.000Z</time>
      </trkpt>
      <trkpt lat="45.30201" lon="6.22237">
        <ele>1528.4000244141</ele>
        <time>2011-02-07T08:29:43.000Z</time>
      </trkpt>
      <trkpt lat="45.30197" lon="6.22231">
        <ele>1529</ele>
        <time>2011-02-07T08:29:47.000Z</time>
      </trkpt>
      <trkpt lat="45.30193" lon="6.22213">
        <ele>1530.1999511719</ele>
        <time>2011-02-07T08:29:58.000Z</time>
      </trkpt>
      <trkpt lat="45.30191" lon="6.2221">
        <ele>1530.5999755859</ele>
        <time>2011-02-07T08:30:00.000Z</time>
      </trkpt>
      <trkpt lat="45.30188" lon="6.22204">
        <ele>1531.5999755859</ele>
        <time>2011-02-07T08:30:05.000Z</time>
      </trkpt>
      <trkpt lat="45.30186" lon="6.22194">
        <ele>1532.5999755859</ele>
        <time>2011-02-07T08:30:13.000Z</time>
      </trkpt>
      <trkpt lat="45.30182" lon="6.22185">
        <ele>1533.8000488281</ele>
        <time>2011-02-07T08:30:20.000Z</time>
      </trkpt>
      <trkpt lat="45.30174" lon="6.22185">
        <ele>1534.5999755859</ele>
        <time>2011-02-07T08:30:27.000Z</time>
      </trkpt>
      <trkpt lat="45.30172" lon="6.22183">
        <ele>1535.5999755859</ele>
        <time>2011-02-07T08:30:33.000Z</time>
      </trkpt>
      <trkpt lat="45.30172" lon="6.22183">
        <ele>1535.8000488281</ele>
        <time>2011-02-07T08:30:34.000Z</time>
      </trkpt>
      <trkpt lat="45.3017" lon="6.22177">
        <ele>1537</ele>
        <time>2011-02-07T08:30:42.000Z</time>
      </trkpt>
      <trkpt lat="45.3017" lon="6.22176">
        <ele>1537.1999511719</ele>
        <time>2011-02-07T08:30:43.000Z</time>
      </trkpt>
      <trkpt lat="45.30167" lon="6.22161">
        <ele>1539</ele>
        <time>2011-02-07T08:30:56.000Z</time>
      </trkpt>
      <trkpt lat="45.30166" lon="6.22157">
        <ele>1539.8000488281</ele>
        <time>2011-02-07T08:31:00.000Z</time>
      </trkpt>
      <trkpt lat="45.30164" lon="6.22152">
        <ele>1540.1999511719</ele>
        <time>2011-02-07T08:31:04.000Z</time>
      </trkpt>
      <trkpt lat="45.30161" lon="6.22145">
        <ele>1540.8000488281</ele>
        <time>2011-02-07T08:31:09.000Z</time>
      </trkpt>
      <trkpt lat="45.30161" lon="6.22143">
        <ele>1541.5999755859</ele>
        <time>2011-02-07T08:31:11.000Z</time>
      </trkpt>
      <trkpt lat="45.30169" lon="6.2214">
        <ele>1542.4000244141</ele>
        <time>2011-02-07T08:31:49.000Z</time>
      </trkpt>
      <trkpt lat="45.30167" lon="6.22145">
        <ele>1542.5999755859</ele>
        <time>2011-02-07T08:31:52.000Z</time>
      </trkpt>
      <trkpt lat="45.30161" lon="6.22086">
        <ele>1546</ele>
        <time>2011-02-07T08:34:26.000Z</time>
      </trkpt>
      <trkpt lat="45.30161" lon="6.2208">
        <ele>1546.8000488281</ele>
        <time>2011-02-07T08:34:32.000Z</time>
      </trkpt>
      <trkpt lat="45.30159" lon="6.22074">
        <ele>1547.5999755859</ele>
        <time>2011-02-07T08:34:37.000Z</time>
      </trkpt>
      <trkpt lat="45.30155" lon="6.22061">
        <ele>1548.8000488281</ele>
        <time>2011-02-07T08:34:50.000Z</time>
      </trkpt>
      <trkpt lat="45.30154" lon="6.22059">
        <ele>1549.1999511719</ele>
        <time>2011-02-07T08:34:51.000Z</time>
      </trkpt>
      <trkpt lat="45.30151" lon="6.22049">
        <ele>1550</ele>
        <time>2011-02-07T08:34:59.000Z</time>
      </trkpt>
      <trkpt lat="45.30148" lon="6.22042">
        <ele>1550.5999755859</ele>
        <time>2011-02-07T08:35:04.000Z</time>
      </trkpt>
      <trkpt lat="45.30147" lon="6.22039">
        <ele>1551</ele>
        <time>2011-02-07T08:35:06.000Z</time>
      </trkpt>
      <trkpt lat="45.30143" lon="6.22028">
        <ele>1551.8000488281</ele>
        <time>2011-02-07T08:35:14.000Z</time>
      </trkpt>
      <trkpt lat="45.30145" lon="6.22017">
        <ele>1552.5999755859</ele>
        <time>2011-02-07T08:35:22.000Z</time>
      </trkpt>
      <trkpt lat="45.30146" lon="6.22015">
        <ele>1552.8000488281</ele>
        <time>2011-02-07T08:35:24.000Z</time>
      </trkpt>
      <trkpt lat="45.30151" lon="6.22014">
        <ele>1554</ele>
        <time>2011-02-07T08:35:43.000Z</time>
      </trkpt>
      <trkpt lat="45.30153" lon="6.22019">
        <ele>1555</ele>
        <time>2011-02-07T08:35:50.000Z</time>
      </trkpt>
      <trkpt lat="45.30155" lon="6.22028">
        <ele>1555.5999755859</ele>
        <time>2011-02-07T08:35:57.000Z</time>
      </trkpt>
      <trkpt lat="45.30158" lon="6.22034">
        <ele>1556.5999755859</ele>
        <time>2011-02-07T08:36:04.000Z</time>
      </trkpt>
      <trkpt lat="45.3016" lon="6.22042">
        <ele>1557.5999755859</ele>
        <time>2011-02-07T08:36:13.000Z</time>
      </trkpt>
      <trkpt lat="45.30167" lon="6.22055">
        <ele>1557.1999511719</ele>
        <time>2011-02-07T08:37:08.000Z</time>
      </trkpt>
      <trkpt lat="45.30168" lon="6.22054">
        <ele>1557</ele>
        <time>2011-02-07T08:37:10.000Z</time>
      </trkpt>
      <trkpt lat="45.30165" lon="6.2206">
        <ele>1557.8000488281</ele>
        <time>2011-02-07T08:37:49.000Z</time>
      </trkpt>
      <trkpt lat="45.30166" lon="6.22063">
        <ele>1558</ele>
        <time>2011-02-07T08:37:53.000Z</time>
      </trkpt>
      <trkpt lat="45.30169" lon="6.22066">
        <ele>1558.5999755859</ele>
        <time>2011-02-07T08:37:59.000Z</time>
      </trkpt>
      <trkpt lat="45.30169" lon="6.22064">
        <ele>1558.5999755859</ele>
        <time>2011-02-07T08:38:01.000Z</time>
      </trkpt>
      <trkpt lat="45.3017" lon="6.22066">
        <ele>1558.5999755859</ele>
        <time>2011-02-07T08:38:24.000Z</time>
      </trkpt>
      <trkpt lat="45.30173" lon="6.22077">
        <ele>1559.1999511719</ele>
        <time>2011-02-07T08:38:47.000Z</time>
      </trkpt>
      <trkpt lat="45.30176" lon="6.2208">
        <ele>1559.8000488281</ele>
        <time>2011-02-07T08:38:52.000Z</time>
      </trkpt>
      <trkpt lat="45.30184" lon="6.2208">
        <ele>1560.5999755859</ele>
        <time>2011-02-07T08:39:29.000Z</time>
      </trkpt>
      <trkpt lat="45.30187" lon="6.22087">
        <ele>1561.4000244141</ele>
        <time>2011-02-07T08:39:36.000Z</time>
      </trkpt>
      <trkpt lat="45.3019" lon="6.22093">
        <ele>1562.4000244141</ele>
        <time>2011-02-07T08:39:43.000Z</time>
      </trkpt>
      <trkpt lat="45.30195" lon="6.22103">
        <ele>1564</ele>
        <time>2011-02-07T08:39:52.000Z</time>
      </trkpt>
      <trkpt lat="45.30199" lon="6.22112">
        <ele>1565</ele>
        <time>2011-02-07T08:40:00.000Z</time>
      </trkpt>
      <trkpt lat="45.30204" lon="6.22119">
        <ele>1565.8000488281</ele>
        <time>2011-02-07T08:40:08.000Z</time>
      </trkpt>
      <trkpt lat="45.30209" lon="6.22126">
        <ele>1566.4000244141</ele>
        <time>2011-02-07T08:40:14.000Z</time>
      </trkpt>
      <trkpt lat="45.30211" lon="6.2213">
        <ele>1566.8000488281</ele>
        <time>2011-02-07T08:40:17.000Z</time>
      </trkpt>
      <trkpt lat="45.30217" lon="6.22139">
        <ele>1568</ele>
        <time>2011-02-07T08:40:26.000Z</time>
      </trkpt>
      <trkpt lat="45.30222" lon="6.22148">
        <ele>1568.8000488281</ele>
        <time>2011-02-07T08:40:34.000Z</time>
      </trkpt>
      <trkpt lat="45.3023" lon="6.22155">
        <ele>1569</ele>
        <time>2011-02-07T08:40:42.000Z</time>
      </trkpt>
      <trkpt lat="45.30233" lon="6.2216">
        <ele>1569.5999755859</ele>
        <time>2011-02-07T08:40:46.000Z</time>
      </trkpt>
      <trkpt lat="45.30241" lon="6.22169">
        <ele>1570</ele>
        <time>2011-02-07T08:40:53.000Z</time>
      </trkpt>
      <trkpt lat="45.30248" lon="6.22178">
        <ele>1570.8000488281</ele>
        <time>2011-02-07T08:41:01.000Z</time>
      </trkpt>
      <trkpt lat="45.3025" lon="6.2218">
        <ele>1570.8000488281</ele>
        <time>2011-02-07T08:41:03.000Z</time>
      </trkpt>
      <trkpt lat="45.30255" lon="6.22188">
        <ele>1571.4000244141</ele>
        <time>2011-02-07T08:41:09.000Z</time>
      </trkpt>
      <trkpt lat="45.30262" lon="6.22198">
        <ele>1572.5999755859</ele>
        <time>2011-02-07T08:41:18.000Z</time>
      </trkpt>
      <trkpt lat="45.30264" lon="6.222">
        <ele>1572.5999755859</ele>
        <time>2011-02-07T08:41:20.000Z</time>
      </trkpt>
      <trkpt lat="45.30266" lon="6.22201">
        <ele>1573</ele>
        <time>2011-02-07T08:41:22.000Z</time>
      </trkpt>
      <trkpt lat="45.3027" lon="6.22205">
        <ele>1573.5999755859</ele>
        <time>2011-02-07T08:41:26.000Z</time>
      </trkpt>
      <trkpt lat="45.30277" lon="6.22209">
        <ele>1574.4000244141</ele>
        <time>2011-02-07T08:41:33.000Z</time>
      </trkpt>
      <trkpt lat="45.30283" lon="6.22211">
        <ele>1574.8000488281</ele>
        <time>2011-02-07T08:41:38.000Z</time>
      </trkpt>
      <trkpt lat="45.3029" lon="6.22215">
        <ele>1575.4000244141</ele>
        <time>2011-02-07T08:41:44.000Z</time>
      </trkpt>
      <trkpt lat="45.30296" lon="6.22219">
        <ele>1576.1999511719</ele>
        <time>2011-02-07T08:41:49.000Z</time>
      </trkpt>
      <trkpt lat="45.30304" lon="6.22226">
        <ele>1577</ele>
        <time>2011-02-07T08:41:58.000Z</time>
      </trkpt>
      <trkpt lat="45.30308" lon="6.22232">
        <ele>1577.8000488281</ele>
        <time>2011-02-07T08:42:04.000Z</time>
      </trkpt>
      <trkpt lat="45.30313" lon="6.22242">
        <ele>1579</ele>
        <time>2011-02-07T08:42:12.000Z</time>
      </trkpt>
      <trkpt lat="45.30319" lon="6.22247">
        <ele>1579.8000488281</ele>
        <time>2011-02-07T08:42:20.000Z</time>
      </trkpt>
      <trkpt lat="45.30324" lon="6.22251">
        <ele>1580.1999511719</ele>
        <time>2011-02-07T08:42:26.000Z</time>
      </trkpt>
      <trkpt lat="45.30331" lon="6.22256">
        <ele>1581</ele>
        <time>2011-02-07T08:42:34.000Z</time>
      </trkpt>
      <trkpt lat="45.30338" lon="6.22262">
        <ele>1581.8000488281</ele>
        <time>2011-02-07T08:42:43.000Z</time>
      </trkpt>
      <trkpt lat="45.30343" lon="6.22265">
        <ele>1581.8000488281</ele>
        <time>2011-02-07T08:42:48.000Z</time>
      </trkpt>
      <trkpt lat="45.30345" lon="6.22267">
        <ele>1582.1999511719</ele>
        <time>2011-02-07T08:42:51.000Z</time>
      </trkpt>
      <trkpt lat="45.30351" lon="6.22269">
        <ele>1582.8000488281</ele>
        <time>2011-02-07T08:42:57.000Z</time>
      </trkpt>
      <trkpt lat="45.30357" lon="6.22276">
        <ele>1583</ele>
        <time>2011-02-07T08:43:02.000Z</time>
      </trkpt>
      <trkpt lat="45.3036" lon="6.22279">
        <ele>1583.5999755859</ele>
        <time>2011-02-07T08:43:06.000Z</time>
      </trkpt>
      <trkpt lat="45.30366" lon="6.22281">
        <ele>1583.8000488281</ele>
        <time>2011-02-07T08:43:11.000Z</time>
      </trkpt>
      <trkpt lat="45.30372" lon="6.22285">
        <ele>1584.1999511719</ele>
        <time>2011-02-07T08:43:18.000Z</time>
      </trkpt>
      <trkpt lat="45.30375" lon="6.22287">
        <ele>1584.4000244141</ele>
        <time>2011-02-07T08:43:21.000Z</time>
      </trkpt>
      <trkpt lat="45.30381" lon="6.22294">
        <ele>1585.1999511719</ele>
        <time>2011-02-07T08:43:29.000Z</time>
      </trkpt>
      <trkpt lat="45.30387" lon="6.22301">
        <ele>1585.4000244141</ele>
        <time>2011-02-07T08:43:35.000Z</time>
      </trkpt>
      <trkpt lat="45.30396" lon="6.22306">
        <ele>1586.5999755859</ele>
        <time>2011-02-07T08:43:44.000Z</time>
      </trkpt>
      <trkpt lat="45.30402" lon="6.22311">
        <ele>1587.4000244141</ele>
        <time>2011-02-07T08:43:51.000Z</time>
      </trkpt>
      <trkpt lat="45.30404" lon="6.22312">
        <ele>1587.5999755859</ele>
        <time>2011-02-07T08:43:53.000Z</time>
      </trkpt>
      <trkpt lat="45.30407" lon="6.22314">
        <ele>1588</ele>
        <time>2011-02-07T08:43:56.000Z</time>
      </trkpt>
      <trkpt lat="45.30413" lon="6.22316">
        <ele>1588.5999755859</ele>
        <time>2011-02-07T08:44:01.000Z</time>
      </trkpt>
      <trkpt lat="45.30417" lon="6.22318">
        <ele>1589</ele>
        <time>2011-02-07T08:44:06.000Z</time>
      </trkpt>
      <trkpt lat="45.30421" lon="6.22322">
        <ele>1589.4000244141</ele>
        <time>2011-02-07T08:44:11.000Z</time>
      </trkpt>
      <trkpt lat="45.30422" lon="6.22322">
        <ele>1589.5999755859</ele>
        <time>2011-02-07T08:44:12.000Z</time>
      </trkpt>
      <trkpt lat="45.30433" lon="6.22321">
        <ele>1590.5999755859</ele>
        <time>2011-02-07T08:44:22.000Z</time>
      </trkpt>
      <trkpt lat="45.30437" lon="6.22323">
        <ele>1591.4000244141</ele>
        <time>2011-02-07T08:44:27.000Z</time>
      </trkpt>
      <trkpt lat="45.30443" lon="6.22327">
        <ele>1591.8000488281</ele>
        <time>2011-02-07T08:44:33.000Z</time>
      </trkpt>
      <trkpt lat="45.3045" lon="6.22332">
        <ele>1592.4000244141</ele>
        <time>2011-02-07T08:44:41.000Z</time>
      </trkpt>
      <trkpt lat="45.30455" lon="6.22335">
        <ele>1592.5999755859</ele>
        <time>2011-02-07T08:44:47.000Z</time>
      </trkpt>
      <trkpt lat="45.30463" lon="6.2234">
        <ele>1593.5999755859</ele>
        <time>2011-02-07T08:44:57.000Z</time>
      </trkpt>
      <trkpt lat="45.30467" lon="6.22343">
        <ele>1594</ele>
        <time>2011-02-07T08:45:02.000Z</time>
      </trkpt>
      <trkpt lat="45.30473" lon="6.22347">
        <ele>1594.4000244141</ele>
        <time>2011-02-07T08:45:10.000Z</time>
      </trkpt>
      <trkpt lat="45.30481" lon="6.2235">
        <ele>1595.4000244141</ele>
        <time>2011-02-07T08:45:17.000Z</time>
      </trkpt>
      <trkpt lat="45.30484" lon="6.22351">
        <ele>1595.5999755859</ele>
        <time>2011-02-07T08:45:20.000Z</time>
      </trkpt>
      <trkpt lat="45.30488" lon="6.22354">
        <ele>1596</ele>
        <time>2011-02-07T08:45:25.000Z</time>
      </trkpt>
      <trkpt lat="45.30496" lon="6.22359">
        <ele>1596.8000488281</ele>
        <time>2011-02-07T08:45:34.000Z</time>
      </trkpt>
      <trkpt lat="45.30504" lon="6.22363">
        <ele>1597.5999755859</ele>
        <time>2011-02-07T08:45:41.000Z</time>
      </trkpt>
      <trkpt lat="45.30509" lon="6.22369">
        <ele>1598</ele>
        <time>2011-02-07T08:45:47.000Z</time>
      </trkpt>
      <trkpt lat="45.30515" lon="6.22373">
        <ele>1598.1999511719</ele>
        <time>2011-02-07T08:45:54.000Z</time>
      </trkpt>
      <trkpt lat="45.30522" lon="6.22376">
        <ele>1598.8000488281</ele>
        <time>2011-02-07T08:46:01.000Z</time>
      </trkpt>
      <trkpt lat="45.30529" lon="6.22383">
        <ele>1600</ele>
        <time>2011-02-07T08:46:10.000Z</time>
      </trkpt>
      <trkpt lat="45.30536" lon="6.22388">
        <ele>1600.4000244141</ele>
        <time>2011-02-07T08:46:17.000Z</time>
      </trkpt>
      <trkpt lat="45.30543" lon="6.22396">
        <ele>1601</ele>
        <time>2011-02-07T08:46:26.000Z</time>
      </trkpt>
      <trkpt lat="45.30549" lon="6.22402">
        <ele>1601.5999755859</ele>
        <time>2011-02-07T08:46:34.000Z</time>
      </trkpt>
      <trkpt lat="45.30556" lon="6.22408">
        <ele>1602</ele>
        <time>2011-02-07T08:46:43.000Z</time>
      </trkpt>
      <trkpt lat="45.30562" lon="6.2241">
        <ele>1603</ele>
        <time>2011-02-07T08:46:51.000Z</time>
      </trkpt>
      <trkpt lat="45.30563" lon="6.22412">
        <ele>1602.8000488281</ele>
        <time>2011-02-07T08:46:52.000Z</time>
      </trkpt>
      <trkpt lat="45.30576" lon="6.22423">
        <ele>1603.5999755859</ele>
        <time>2011-02-07T08:47:22.000Z</time>
      </trkpt>
      <trkpt lat="45.30579" lon="6.22421">
        <ele>1604</ele>
        <time>2011-02-07T08:47:26.000Z</time>
      </trkpt>
      <trkpt lat="45.30569" lon="6.22424">
        <ele>1604.4000244141</ele>
        <time>2011-02-07T08:49:06.000Z</time>
      </trkpt>
      <trkpt lat="45.30568" lon="6.22423">
        <ele>1604.4000244141</ele>
        <time>2011-02-07T08:49:07.000Z</time>
      </trkpt>
      <trkpt lat="45.30563" lon="6.22419">
        <ele>1604.5999755859</ele>
        <time>2011-02-07T08:49:14.000Z</time>
      </trkpt>
      <trkpt lat="45.30563" lon="6.22417">
        <ele>1604.8000488281</ele>
        <time>2011-02-07T08:49:16.000Z</time>
      </trkpt>
      <trkpt lat="45.3056" lon="6.22413">
        <ele>1605.1999511719</ele>
        <time>2011-02-07T08:49:21.000Z</time>
      </trkpt>
      <trkpt lat="45.30557" lon="6.2241">
        <ele>1605.5999755859</ele>
        <time>2011-02-07T08:49:25.000Z</time>
      </trkpt>
      <trkpt lat="45.30551" lon="6.22406">
        <ele>1605.8000488281</ele>
        <time>2011-02-07T08:49:31.000Z</time>
      </trkpt>
      <trkpt lat="45.30546" lon="6.22401">
        <ele>1606.1999511719</ele>
        <time>2011-02-07T08:49:37.000Z</time>
      </trkpt>
      <trkpt lat="45.30543" lon="6.22398">
        <ele>1606.8000488281</ele>
        <time>2011-02-07T08:49:41.000Z</time>
      </trkpt>
      <trkpt lat="45.30539" lon="6.22398">
        <ele>1607.1999511719</ele>
        <time>2011-02-07T08:49:49.000Z</time>
      </trkpt>
      <trkpt lat="45.30546" lon="6.22394">
        <ele>1607.1999511719</ele>
        <time>2011-02-07T08:50:14.000Z</time>
      </trkpt>
      <trkpt lat="45.30533" lon="6.22382">
        <ele>1608.1999511719</ele>
        <time>2011-02-07T08:51:39.000Z</time>
      </trkpt>
      <trkpt lat="45.30531" lon="6.2238">
        <ele>1608.8000488281</ele>
        <time>2011-02-07T08:51:43.000Z</time>
      </trkpt>
      <trkpt lat="45.30529" lon="6.22378">
        <ele>1609.4000244141</ele>
        <time>2011-02-07T08:51:49.000Z</time>
      </trkpt>
      <trkpt lat="45.30527" lon="6.22375">
        <ele>1609.5999755859</ele>
        <time>2011-02-07T08:51:53.000Z</time>
      </trkpt>
      <trkpt lat="45.30525" lon="6.22372">
        <ele>1609.8000488281</ele>
        <time>2011-02-07T08:51:57.000Z</time>
      </trkpt>
      <trkpt lat="45.30523" lon="6.22367">
        <ele>1610.4000244141</ele>
        <time>2011-02-07T08:52:02.000Z</time>
      </trkpt>
      <trkpt lat="45.3052" lon="6.22361">
        <ele>1610.8000488281</ele>
        <time>2011-02-07T08:52:08.000Z</time>
      </trkpt>
      <trkpt lat="45.30517" lon="6.22356">
        <ele>1611.5999755859</ele>
        <time>2011-02-07T08:52:13.000Z</time>
      </trkpt>
      <trkpt lat="45.30514" lon="6.22353">
        <ele>1612.1999511719</ele>
        <time>2011-02-07T08:52:17.000Z</time>
      </trkpt>
      <trkpt lat="45.30511" lon="6.2235">
        <ele>1612.5999755859</ele>
        <time>2011-02-07T08:52:21.000Z</time>
      </trkpt>
      <trkpt lat="45.30508" lon="6.22343">
        <ele>1613.1999511719</ele>
        <time>2011-02-07T08:52:27.000Z</time>
      </trkpt>
      <trkpt lat="45.30504" lon="6.22337">
        <ele>1614.1999511719</ele>
        <time>2011-02-07T08:52:34.000Z</time>
      </trkpt>
      <trkpt lat="45.305" lon="6.22329">
        <ele>1615</ele>
        <time>2011-02-07T08:52:41.000Z</time>
      </trkpt>
      <trkpt lat="45.30494" lon="6.22324">
        <ele>1615.8000488281</ele>
        <time>2011-02-07T08:52:48.000Z</time>
      </trkpt>
      <trkpt lat="45.30489" lon="6.22316">
        <ele>1616.5999755859</ele>
        <time>2011-02-07T08:52:55.000Z</time>
      </trkpt>
      <trkpt lat="45.30485" lon="6.22309">
        <ele>1617.4000244141</ele>
        <time>2011-02-07T08:53:01.000Z</time>
      </trkpt>
      <trkpt lat="45.30483" lon="6.22309">
        <ele>1617.5999755859</ele>
        <time>2011-02-07T08:53:02.000Z</time>
      </trkpt>
      <trkpt lat="45.30474" lon="6.22302">
        <ele>1618.5999755859</ele>
        <time>2011-02-07T08:53:10.000Z</time>
      </trkpt>
      <trkpt lat="45.30468" lon="6.22293">
        <ele>1619.1999511719</ele>
        <time>2011-02-07T08:53:17.000Z</time>
      </trkpt>
      <trkpt lat="45.30463" lon="6.22286">
        <ele>1620.1999511719</ele>
        <time>2011-02-07T08:53:24.000Z</time>
      </trkpt>
      <trkpt lat="45.30456" lon="6.22277">
        <ele>1621.1999511719</ele>
        <time>2011-02-07T08:53:33.000Z</time>
      </trkpt>
      <trkpt lat="45.30449" lon="6.22272">
        <ele>1622.1999511719</ele>
        <time>2011-02-07T08:53:42.000Z</time>
      </trkpt>
      <trkpt lat="45.30443" lon="6.22269">
        <ele>1622.8000488281</ele>
        <time>2011-02-07T08:53:48.000Z</time>
      </trkpt>
      <trkpt lat="45.30434" lon="6.22265">
        <ele>1623.8000488281</ele>
        <time>2011-02-07T08:53:57.000Z</time>
      </trkpt>
      <trkpt lat="45.3043" lon="6.22261">
        <ele>1624.8000488281</ele>
        <time>2011-02-07T08:54:03.000Z</time>
      </trkpt>
      <trkpt lat="45.30423" lon="6.22255">
        <ele>1625.8000488281</ele>
        <time>2011-02-07T08:54:11.000Z</time>
      </trkpt>
      <trkpt lat="45.30419" lon="6.2225">
        <ele>1626.1999511719</ele>
        <time>2011-02-07T08:54:16.000Z</time>
      </trkpt>
      <trkpt lat="45.30416" lon="6.22247">
        <ele>1626.8000488281</ele>
        <time>2011-02-07T08:54:20.000Z</time>
      </trkpt>
      <trkpt lat="45.30406" lon="6.22237">
        <ele>1627.5999755859</ele>
        <time>2011-02-07T08:54:31.000Z</time>
      </trkpt>
      <trkpt lat="45.30402" lon="6.22232">
        <ele>1628</ele>
        <time>2011-02-07T08:54:37.000Z</time>
      </trkpt>
      <trkpt lat="45.30398" lon="6.22225">
        <ele>1628.8000488281</ele>
        <time>2011-02-07T08:54:43.000Z</time>
      </trkpt>
      <trkpt lat="45.30394" lon="6.22219">
        <ele>1629.4000244141</ele>
        <time>2011-02-07T08:54:49.000Z</time>
      </trkpt>
      <trkpt lat="45.30393" lon="6.22217">
        <ele>1629.8000488281</ele>
        <time>2011-02-07T08:54:51.000Z</time>
      </trkpt>
      <trkpt lat="45.30389" lon="6.2221">
        <ele>1630.4000244141</ele>
        <time>2011-02-07T08:54:57.000Z</time>
      </trkpt>
      <trkpt lat="45.30386" lon="6.22204">
        <ele>1631.1999511719</ele>
        <time>2011-02-07T08:55:02.000Z</time>
      </trkpt>
      <trkpt lat="45.30382" lon="6.22196">
        <ele>1632</ele>
        <time>2011-02-07T08:55:10.000Z</time>
      </trkpt>
      <trkpt lat="45.30379" lon="6.22191">
        <ele>1632.5999755859</ele>
        <time>2011-02-07T08:55:15.000Z</time>
      </trkpt>
      <trkpt lat="45.30375" lon="6.22184">
        <ele>1633.4000244141</ele>
        <time>2011-02-07T08:55:21.000Z</time>
      </trkpt>
      <trkpt lat="45.30374" lon="6.22179">
        <ele>1633.8000488281</ele>
        <time>2011-02-07T08:55:25.000Z</time>
      </trkpt>
      <trkpt lat="45.30369" lon="6.22169">
        <ele>1634.5999755859</ele>
        <time>2011-02-07T08:55:32.000Z</time>
      </trkpt>
      <trkpt lat="45.30368" lon="6.22166">
        <ele>1634.8000488281</ele>
        <time>2011-02-07T08:55:34.000Z</time>
      </trkpt>
      <trkpt lat="45.30365" lon="6.22157">
        <ele>1635.8000488281</ele>
        <time>2011-02-07T08:55:41.000Z</time>
      </trkpt>
      <trkpt lat="45.30361" lon="6.22149">
        <ele>1636.5999755859</ele>
        <time>2011-02-07T08:55:47.000Z</time>
      </trkpt>
      <trkpt lat="45.3036" lon="6.22147">
        <ele>1637</ele>
        <time>2011-02-07T08:55:49.000Z</time>
      </trkpt>
      <trkpt lat="45.30357" lon="6.22141">
        <ele>1637.8000488281</ele>
        <time>2011-02-07T08:55:55.000Z</time>
      </trkpt>
      <trkpt lat="45.30352" lon="6.22134">
        <ele>1638.5999755859</ele>
        <time>2011-02-07T08:56:01.000Z</time>
      </trkpt>
      <trkpt lat="45.30347" lon="6.22126">
        <ele>1639.5999755859</ele>
        <time>2011-02-07T08:56:08.000Z</time>
      </trkpt>
      <trkpt lat="45.30345" lon="6.2212">
        <ele>1640.4000244141</ele>
        <time>2011-02-07T08:56:13.000Z</time>
      </trkpt>
      <trkpt lat="45.30342" lon="6.22115">
        <ele>1641</ele>
        <time>2011-02-07T08:56:17.000Z</time>
      </trkpt>
      <trkpt lat="45.30339" lon="6.2211">
        <ele>1641.1999511719</ele>
        <time>2011-02-07T08:56:21.000Z</time>
      </trkpt>
      <trkpt lat="45.30334" lon="6.22101">
        <ele>1642</ele>
        <time>2011-02-07T08:56:27.000Z</time>
      </trkpt>
      <trkpt lat="45.30331" lon="6.22093">
        <ele>1643</ele>
        <time>2011-02-07T08:56:32.000Z</time>
      </trkpt>
      <trkpt lat="45.30324" lon="6.22081">
        <ele>1644</ele>
        <time>2011-02-07T08:56:41.000Z</time>
      </trkpt>
      <trkpt lat="45.30322" lon="6.22073">
        <ele>1644.5999755859</ele>
        <time>2011-02-07T08:56:46.000Z</time>
      </trkpt>
      <trkpt lat="45.30315" lon="6.22066">
        <ele>1645.5999755859</ele>
        <time>2011-02-07T08:56:53.000Z</time>
      </trkpt>
      <trkpt lat="45.30307" lon="6.22057">
        <ele>1646.8000488281</ele>
        <time>2011-02-07T08:57:01.000Z</time>
      </trkpt>
      <trkpt lat="45.30303" lon="6.22048">
        <ele>1647.4000244141</ele>
        <time>2011-02-07T08:57:07.000Z</time>
      </trkpt>
      <trkpt lat="45.30299" lon="6.22038">
        <ele>1648.5999755859</ele>
        <time>2011-02-07T08:57:15.000Z</time>
      </trkpt>
      <trkpt lat="45.30296" lon="6.22032">
        <ele>1649.1999511719</ele>
        <time>2011-02-07T08:57:20.000Z</time>
      </trkpt>
      <trkpt lat="45.30295" lon="6.2203">
        <ele>1649.5999755859</ele>
        <time>2011-02-07T08:57:22.000Z</time>
      </trkpt>
      <trkpt lat="45.30284" lon="6.22019">
        <ele>1650.5999755859</ele>
        <time>2011-02-07T08:57:33.000Z</time>
      </trkpt>
      <trkpt lat="45.30277" lon="6.22011">
        <ele>1651.5999755859</ele>
        <time>2011-02-07T08:57:41.000Z</time>
      </trkpt>
      <trkpt lat="45.30276" lon="6.21998">
        <ele>1652.5999755859</ele>
        <time>2011-02-07T08:57:49.000Z</time>
      </trkpt>
      <trkpt lat="45.30282" lon="6.21996">
        <ele>1653.1999511719</ele>
        <time>2011-02-07T08:57:54.000Z</time>
      </trkpt>
      <trkpt lat="45.30287" lon="6.21998">
        <ele>1653.8000488281</ele>
        <time>2011-02-07T08:57:58.000Z</time>
      </trkpt>
      <trkpt lat="45.30294" lon="6.22007">
        <ele>1654.5999755859</ele>
        <time>2011-02-07T08:58:07.000Z</time>
      </trkpt>
      <trkpt lat="45.30298" lon="6.22013">
        <ele>1655.5999755859</ele>
        <time>2011-02-07T08:58:14.000Z</time>
      </trkpt>
      <trkpt lat="45.303" lon="6.2202">
        <ele>1656.8000488281</ele>
        <time>2011-02-07T08:59:55.000Z</time>
      </trkpt>
      <trkpt lat="45.30305" lon="6.22025">
        <ele>1657.5999755859</ele>
        <time>2011-02-07T09:00:02.000Z</time>
      </trkpt>
      <trkpt lat="45.30311" lon="6.22031">
        <ele>1658.8000488281</ele>
        <time>2011-02-07T09:00:10.000Z</time>
      </trkpt>
      <trkpt lat="45.30316" lon="6.22037">
        <ele>1659.8000488281</ele>
        <time>2011-02-07T09:00:16.000Z</time>
      </trkpt>
      <trkpt lat="45.30321" lon="6.22043">
        <ele>1660.8000488281</ele>
        <time>2011-02-07T09:00:22.000Z</time>
      </trkpt>
      <trkpt lat="45.30332" lon="6.2205">
        <ele>1662.1999511719</ele>
        <time>2011-02-07T09:00:31.000Z</time>
      </trkpt>
      <trkpt lat="45.30338" lon="6.22054">
        <ele>1663.4000244141</ele>
        <time>2011-02-07T09:00:38.000Z</time>
      </trkpt>
      <trkpt lat="45.30344" lon="6.22062">
        <ele>1664.4000244141</ele>
        <time>2011-02-07T09:00:45.000Z</time>
      </trkpt>
      <trkpt lat="45.3035" lon="6.22068">
        <ele>1665.4000244141</ele>
        <time>2011-02-07T09:00:52.000Z</time>
      </trkpt>
      <trkpt lat="45.30353" lon="6.2207">
        <ele>1666</ele>
        <time>2011-02-07T09:00:55.000Z</time>
      </trkpt>
      <trkpt lat="45.3036" lon="6.22076">
        <ele>1667.1999511719</ele>
        <time>2011-02-07T09:01:03.000Z</time>
      </trkpt>
      <trkpt lat="45.30368" lon="6.22083">
        <ele>1668.5999755859</ele>
        <time>2011-02-07T09:01:12.000Z</time>
      </trkpt>
      <trkpt lat="45.30376" lon="6.22089">
        <ele>1670</ele>
        <time>2011-02-07T09:01:21.000Z</time>
      </trkpt>
      <trkpt lat="45.30383" lon="6.22095">
        <ele>1671.1999511719</ele>
        <time>2011-02-07T09:01:28.000Z</time>
      </trkpt>
      <trkpt lat="45.30391" lon="6.22099">
        <ele>1672</ele>
        <time>2011-02-07T09:01:36.000Z</time>
      </trkpt>
      <trkpt lat="45.30398" lon="6.22109">
        <ele>1673.4000244141</ele>
        <time>2011-02-07T09:01:45.000Z</time>
      </trkpt>
      <trkpt lat="45.30406" lon="6.22117">
        <ele>1674.5999755859</ele>
        <time>2011-02-07T09:01:53.000Z</time>
      </trkpt>
      <trkpt lat="45.30413" lon="6.22123">
        <ele>1675.4000244141</ele>
        <time>2011-02-07T09:02:00.000Z</time>
      </trkpt>
      <trkpt lat="45.30421" lon="6.22129">
        <ele>1676.4000244141</ele>
        <time>2011-02-07T09:02:08.000Z</time>
      </trkpt>
      <trkpt lat="45.30429" lon="6.22132">
        <ele>1677.4000244141</ele>
        <time>2011-02-07T09:02:16.000Z</time>
      </trkpt>
      <trkpt lat="45.30434" lon="6.22134">
        <ele>1678</ele>
        <time>2011-02-07T09:02:21.000Z</time>
      </trkpt>
      <trkpt lat="45.30446" lon="6.22133">
        <ele>1678.8000488281</ele>
        <time>2011-02-07T09:02:29.000Z</time>
      </trkpt>
      <trkpt lat="45.30455" lon="6.22134">
        <ele>1679.1999511719</ele>
        <time>2011-02-07T09:02:38.000Z</time>
      </trkpt>
      <trkpt lat="45.30462" lon="6.22136">
        <ele>1679.5999755859</ele>
        <time>2011-02-07T09:02:44.000Z</time>
      </trkpt>
      <trkpt lat="45.30468" lon="6.22139">
        <ele>1680.1999511719</ele>
        <time>2011-02-07T09:02:51.000Z</time>
      </trkpt>
      <trkpt lat="45.30471" lon="6.22139">
        <ele>1680.5999755859</ele>
        <time>2011-02-07T09:02:54.000Z</time>
      </trkpt>
      <trkpt lat="45.30479" lon="6.22141">
        <ele>1681.1999511719</ele>
        <time>2011-02-07T09:03:03.000Z</time>
      </trkpt>
      <trkpt lat="45.30486" lon="6.22143">
        <ele>1681.8000488281</ele>
        <time>2011-02-07T09:03:09.000Z</time>
      </trkpt>
      <trkpt lat="45.30493" lon="6.22146">
        <ele>1682.4000244141</ele>
        <time>2011-02-07T09:03:15.000Z</time>
      </trkpt>
      <trkpt lat="45.305" lon="6.22148">
        <ele>1683</ele>
        <time>2011-02-07T09:03:21.000Z</time>
      </trkpt>
      <trkpt lat="45.30508" lon="6.22151">
        <ele>1684</ele>
        <time>2011-02-07T09:03:28.000Z</time>
      </trkpt>
      <trkpt lat="45.30516" lon="6.22155">
        <ele>1684.5999755859</ele>
        <time>2011-02-07T09:03:36.000Z</time>
      </trkpt>
      <trkpt lat="45.30523" lon="6.22157">
        <ele>1685</ele>
        <time>2011-02-07T09:03:41.000Z</time>
      </trkpt>
      <trkpt lat="45.3053" lon="6.22162">
        <ele>1686.1999511719</ele>
        <time>2011-02-07T09:03:49.000Z</time>
      </trkpt>
      <trkpt lat="45.30537" lon="6.22167">
        <ele>1687</ele>
        <time>2011-02-07T09:03:56.000Z</time>
      </trkpt>
      <trkpt lat="45.3054" lon="6.22169">
        <ele>1687.4000244141</ele>
        <time>2011-02-07T09:03:59.000Z</time>
      </trkpt>
      <trkpt lat="45.30547" lon="6.22175">
        <ele>1688</ele>
        <time>2011-02-07T09:04:05.000Z</time>
      </trkpt>
      <trkpt lat="45.30554" lon="6.2218">
        <ele>1688.8000488281</ele>
        <time>2011-02-07T09:04:13.000Z</time>
      </trkpt>
      <trkpt lat="45.3056" lon="6.22185">
        <ele>1689.4000244141</ele>
        <time>2011-02-07T09:04:20.000Z</time>
      </trkpt>
      <trkpt lat="45.30563" lon="6.22185">
        <ele>1689.8000488281</ele>
        <time>2011-02-07T09:04:22.000Z</time>
      </trkpt>
      <trkpt lat="45.3057" lon="6.22189">
        <ele>1690.1999511719</ele>
        <time>2011-02-07T09:04:30.000Z</time>
      </trkpt>
      <trkpt lat="45.3058" lon="6.22195">
        <ele>1691.5999755859</ele>
        <time>2011-02-07T09:04:39.000Z</time>
      </trkpt>
      <trkpt lat="45.30586" lon="6.22197">
        <ele>1692.1999511719</ele>
        <time>2011-02-07T09:04:45.000Z</time>
      </trkpt>
      <trkpt lat="45.30591" lon="6.22198">
        <ele>1692.5999755859</ele>
        <time>2011-02-07T09:04:50.000Z</time>
      </trkpt>
      <trkpt lat="45.30599" lon="6.22199">
        <ele>1693.5999755859</ele>
        <time>2011-02-07T09:04:59.000Z</time>
      </trkpt>
      <trkpt lat="45.30606" lon="6.22201">
        <ele>1694.1999511719</ele>
        <time>2011-02-07T09:05:05.000Z</time>
      </trkpt>
      <trkpt lat="45.30611" lon="6.222">
        <ele>1695</ele>
        <time>2011-02-07T09:05:10.000Z</time>
      </trkpt>
      <trkpt lat="45.30615" lon="6.22198">
        <ele>1695.5999755859</ele>
        <time>2011-02-07T09:05:15.000Z</time>
      </trkpt>
      <trkpt lat="45.30619" lon="6.22203">
        <ele>1696.4000244141</ele>
        <time>2011-02-07T09:05:21.000Z</time>
      </trkpt>
      <trkpt lat="45.30623" lon="6.22203">
        <ele>1697</ele>
        <time>2011-02-07T09:05:25.000Z</time>
      </trkpt>
      <trkpt lat="45.30627" lon="6.22201">
        <ele>1698</ele>
        <time>2011-02-07T09:05:31.000Z</time>
      </trkpt>
      <trkpt lat="45.30643" lon="6.22198">
        <ele>1699.5999755859</ele>
        <time>2011-02-07T09:06:07.000Z</time>
      </trkpt>
      <trkpt lat="45.30647" lon="6.22194">
        <ele>1700.1999511719</ele>
        <time>2011-02-07T09:06:12.000Z</time>
      </trkpt>
      <trkpt lat="45.30653" lon="6.2219">
        <ele>1701</ele>
        <time>2011-02-07T09:06:18.000Z</time>
      </trkpt>
      <trkpt lat="45.30659" lon="6.22184">
        <ele>1701.8000488281</ele>
        <time>2011-02-07T09:06:26.000Z</time>
      </trkpt>
      <trkpt lat="45.30665" lon="6.22178">
        <ele>1702.1999511719</ele>
        <time>2011-02-07T09:06:32.000Z</time>
      </trkpt>
      <trkpt lat="45.30673" lon="6.22168">
        <ele>1703.1999511719</ele>
        <time>2011-02-07T09:06:41.000Z</time>
      </trkpt>
      <trkpt lat="45.30676" lon="6.22166">
        <ele>1704</ele>
        <time>2011-02-07T09:06:46.000Z</time>
      </trkpt>
      <trkpt lat="45.30681" lon="6.22159">
        <ele>1704.8000488281</ele>
        <time>2011-02-07T09:06:52.000Z</time>
      </trkpt>
      <trkpt lat="45.30686" lon="6.2215">
        <ele>1705.8000488281</ele>
        <time>2011-02-07T09:07:00.000Z</time>
      </trkpt>
      <trkpt lat="45.30693" lon="6.22142">
        <ele>1706.5999755859</ele>
        <time>2011-02-07T09:07:07.000Z</time>
      </trkpt>
      <trkpt lat="45.30698" lon="6.22134">
        <ele>1707.8000488281</ele>
        <time>2011-02-07T09:07:14.000Z</time>
      </trkpt>
      <trkpt lat="45.30704" lon="6.22125">
        <ele>1708.5999755859</ele>
        <time>2011-02-07T09:07:21.000Z</time>
      </trkpt>
      <trkpt lat="45.30705" lon="6.22123">
        <ele>1709</ele>
        <time>2011-02-07T09:07:23.000Z</time>
      </trkpt>
      <trkpt lat="45.30709" lon="6.22114">
        <ele>1709.5999755859</ele>
        <time>2011-02-07T09:07:30.000Z</time>
      </trkpt>
      <trkpt lat="45.30716" lon="6.22105">
        <ele>1710.1999511719</ele>
        <time>2011-02-07T09:07:38.000Z</time>
      </trkpt>
      <trkpt lat="45.30717" lon="6.22104">
        <ele>1710.4000244141</ele>
        <time>2011-02-07T09:07:40.000Z</time>
      </trkpt>
      <trkpt lat="45.30724" lon="6.221">
        <ele>1710.8000488281</ele>
        <time>2011-02-07T09:07:46.000Z</time>
      </trkpt>
      <trkpt lat="45.30729" lon="6.22097">
        <ele>1711.4000244141</ele>
        <time>2011-02-07T09:07:51.000Z</time>
      </trkpt>
      <trkpt lat="45.30732" lon="6.22096">
        <ele>1712</ele>
        <time>2011-02-07T09:07:55.000Z</time>
      </trkpt>
      <trkpt lat="45.30741" lon="6.221">
        <ele>1713.1999511719</ele>
        <time>2011-02-07T09:08:04.000Z</time>
      </trkpt>
      <trkpt lat="45.30752" lon="6.22101">
        <ele>1714.5999755859</ele>
        <time>2011-02-07T09:08:13.000Z</time>
      </trkpt>
      <trkpt lat="45.3076" lon="6.22103">
        <ele>1715.8000488281</ele>
        <time>2011-02-07T09:08:21.000Z</time>
      </trkpt>
      <trkpt lat="45.30769" lon="6.221">
        <ele>1717.1999511719</ele>
        <time>2011-02-07T09:08:30.000Z</time>
      </trkpt>
      <trkpt lat="45.30775" lon="6.22095">
        <ele>1718.1999511719</ele>
        <time>2011-02-07T09:08:37.000Z</time>
      </trkpt>
      <trkpt lat="45.30781" lon="6.22088">
        <ele>1719.4000244141</ele>
        <time>2011-02-07T09:08:45.000Z</time>
      </trkpt>
      <trkpt lat="45.30788" lon="6.22083">
        <ele>1720.1999511719</ele>
        <time>2011-02-07T09:08:52.000Z</time>
      </trkpt>
      <trkpt lat="45.30795" lon="6.22077">
        <ele>1721.8000488281</ele>
        <time>2011-02-07T09:09:01.000Z</time>
      </trkpt>
      <trkpt lat="45.30804" lon="6.2207">
        <ele>1723.4000244141</ele>
        <time>2011-02-07T09:09:11.000Z</time>
      </trkpt>
      <trkpt lat="45.30812" lon="6.22066">
        <ele>1724.5999755859</ele>
        <time>2011-02-07T09:09:20.000Z</time>
      </trkpt>
      <trkpt lat="45.30819" lon="6.22065">
        <ele>1725.5999755859</ele>
        <time>2011-02-07T09:09:28.000Z</time>
      </trkpt>
      <trkpt lat="45.30824" lon="6.22066">
        <ele>1726.1999511719</ele>
        <time>2011-02-07T09:09:34.000Z</time>
      </trkpt>
      <trkpt lat="45.30835" lon="6.2207">
        <ele>1726.8000488281</ele>
        <time>2011-02-07T09:10:22.000Z</time>
      </trkpt>
      <trkpt lat="45.30842" lon="6.2207">
        <ele>1727.5999755859</ele>
        <time>2011-02-07T09:10:27.000Z</time>
      </trkpt>
      <trkpt lat="45.30848" lon="6.22067">
        <ele>1728.1999511719</ele>
        <time>2011-02-07T09:10:33.000Z</time>
      </trkpt>
      <trkpt lat="45.30854" lon="6.22065">
        <ele>1729</ele>
        <time>2011-02-07T09:10:42.000Z</time>
      </trkpt>
      <trkpt lat="45.30854" lon="6.22064">
        <ele>1729</ele>
        <time>2011-02-07T09:10:47.000Z</time>
      </trkpt>
      <trkpt lat="45.30853" lon="6.22062">
        <ele>1729.8000488281</ele>
        <time>2011-02-07T09:11:15.000Z</time>
      </trkpt>
      <trkpt lat="45.30856" lon="6.22061">
        <ele>1730.1999511719</ele>
        <time>2011-02-07T09:11:34.000Z</time>
      </trkpt>
      <trkpt lat="45.30864" lon="6.22062">
        <ele>1731</ele>
        <time>2011-02-07T09:11:41.000Z</time>
      </trkpt>
      <trkpt lat="45.30869" lon="6.22065">
        <ele>1731.8000488281</ele>
        <time>2011-02-07T09:11:48.000Z</time>
      </trkpt>
      <trkpt lat="45.30874" lon="6.22069">
        <ele>1732.4000244141</ele>
        <time>2011-02-07T09:11:54.000Z</time>
      </trkpt>
      <trkpt lat="45.30882" lon="6.22071">
        <ele>1734</ele>
        <time>2011-02-07T09:12:02.000Z</time>
      </trkpt>
      <trkpt lat="45.30887" lon="6.22072">
        <ele>1734.8000488281</ele>
        <time>2011-02-07T09:12:08.000Z</time>
      </trkpt>
      <trkpt lat="45.30897" lon="6.22069">
        <ele>1736.1999511719</ele>
        <time>2011-02-07T09:12:16.000Z</time>
      </trkpt>
      <trkpt lat="45.309" lon="6.22067">
        <ele>1736.1999511719</ele>
        <time>2011-02-07T09:12:22.000Z</time>
      </trkpt>
      <trkpt lat="45.30914" lon="6.22063">
        <ele>1736.4000244141</ele>
        <time>2011-02-07T09:12:46.000Z</time>
      </trkpt>
      <trkpt lat="45.30913" lon="6.22058">
        <ele>1737.8000488281</ele>
        <time>2011-02-07T09:13:09.000Z</time>
      </trkpt>
      <trkpt lat="45.30906" lon="6.22056">
        <ele>1739.5999755859</ele>
        <time>2011-02-07T09:13:18.000Z</time>
      </trkpt>
      <trkpt lat="45.30904" lon="6.22055">
        <ele>1740.4000244141</ele>
        <time>2011-02-07T09:13:21.000Z</time>
      </trkpt>
      <trkpt lat="45.30905" lon="6.22049">
        <ele>1741.4000244141</ele>
        <time>2011-02-07T09:13:29.000Z</time>
      </trkpt>
      <trkpt lat="45.30909" lon="6.22047">
        <ele>1743</ele>
        <time>2011-02-07T09:13:36.000Z</time>
      </trkpt>
      <trkpt lat="45.30914" lon="6.22046">
        <ele>1744.5999755859</ele>
        <time>2011-02-07T09:13:42.000Z</time>
      </trkpt>
      <trkpt lat="45.30917" lon="6.22045">
        <ele>1745.4000244141</ele>
        <time>2011-02-07T09:13:47.000Z</time>
      </trkpt>
      <trkpt lat="45.30917" lon="6.22045">
        <ele>1745.8000488281</ele>
        <time>2011-02-07T09:13:48.000Z</time>
      </trkpt>
      <trkpt lat="45.30922" lon="6.22042">
        <ele>1747</ele>
        <time>2011-02-07T09:13:56.000Z</time>
      </trkpt>
      <trkpt lat="45.30921" lon="6.22039">
        <ele>1747.8000488281</ele>
        <time>2011-02-07T09:14:01.000Z</time>
      </trkpt>
      <trkpt lat="45.30916" lon="6.22035">
        <ele>1748.4000244141</ele>
        <time>2011-02-07T09:14:09.000Z</time>
      </trkpt>
      <trkpt lat="45.30916" lon="6.22032">
        <ele>1749.8000488281</ele>
        <time>2011-02-07T09:14:13.000Z</time>
      </trkpt>
      <trkpt lat="45.30918" lon="6.22029">
        <ele>1751.5999755859</ele>
        <time>2011-02-07T09:14:21.000Z</time>
      </trkpt>
      <trkpt lat="45.30921" lon="6.22025">
        <ele>1752.8000488281</ele>
        <time>2011-02-07T09:14:27.000Z</time>
      </trkpt>
      <trkpt lat="45.30924" lon="6.22023">
        <ele>1753.8000488281</ele>
        <time>2011-02-07T09:14:31.000Z</time>
      </trkpt>
      <trkpt lat="45.30925" lon="6.22019">
        <ele>1755</ele>
        <time>2011-02-07T09:14:38.000Z</time>
      </trkpt>
      <trkpt lat="45.30922" lon="6.22016">
        <ele>1756.4000244141</ele>
        <time>2011-02-07T09:14:45.000Z</time>
      </trkpt>
      <trkpt lat="45.3092" lon="6.22015">
        <ele>1757.5999755859</ele>
        <time>2011-02-07T09:14:51.000Z</time>
      </trkpt>
      <trkpt lat="45.30917" lon="6.22013">
        <ele>1759</ele>
        <time>2011-02-07T09:14:58.000Z</time>
      </trkpt>
      <trkpt lat="45.30916" lon="6.22012">
        <ele>1759.8000488281</ele>
        <time>2011-02-07T09:15:01.000Z</time>
      </trkpt>
      <trkpt lat="45.30919" lon="6.22005">
        <ele>1761</ele>
        <time>2011-02-07T09:15:09.000Z</time>
      </trkpt>
      <trkpt lat="45.30921" lon="6.22001">
        <ele>1762.5999755859</ele>
        <time>2011-02-07T09:15:15.000Z</time>
      </trkpt>
      <trkpt lat="45.30919" lon="6.22001">
        <ele>1763.5999755859</ele>
        <time>2011-02-07T09:15:21.000Z</time>
      </trkpt>
      <trkpt lat="45.30913" lon="6.22">
        <ele>1765.8000488281</ele>
        <time>2011-02-07T09:15:32.000Z</time>
      </trkpt>
      <trkpt lat="45.30914" lon="6.21988">
        <ele>1767.5999755859</ele>
        <time>2011-02-07T09:15:44.000Z</time>
      </trkpt>
      <trkpt lat="45.30921" lon="6.21981">
        <ele>1769.1999511719</ele>
        <time>2011-02-07T09:15:54.000Z</time>
      </trkpt>
      <trkpt lat="45.30922" lon="6.2198">
        <ele>1770</ele>
        <time>2011-02-07T09:15:56.000Z</time>
      </trkpt>
      <trkpt lat="45.30925" lon="6.21977">
        <ele>1770.5999755859</ele>
        <time>2011-02-07T09:16:00.000Z</time>
      </trkpt>
      <trkpt lat="45.30929" lon="6.21973">
        <ele>1771.8000488281</ele>
        <time>2011-02-07T09:16:06.000Z</time>
      </trkpt>
      <trkpt lat="45.30934" lon="6.21967">
        <ele>1773.5999755859</ele>
        <time>2011-02-07T09:16:14.000Z</time>
      </trkpt>
      <trkpt lat="45.30938" lon="6.21961">
        <ele>1775.4000244141</ele>
        <time>2011-02-07T09:16:23.000Z</time>
      </trkpt>
      <trkpt lat="45.30939" lon="6.2196">
        <ele>1776</ele>
        <time>2011-02-07T09:16:25.000Z</time>
      </trkpt>
      <trkpt lat="45.30936" lon="6.21959">
        <ele>1776.8000488281</ele>
        <time>2011-02-07T09:16:31.000Z</time>
      </trkpt>
      <trkpt lat="45.30927" lon="6.21957">
        <ele>1779</ele>
        <time>2011-02-07T09:16:42.000Z</time>
      </trkpt>
      <trkpt lat="45.30922" lon="6.21955">
        <ele>1780.4000244141</ele>
        <time>2011-02-07T09:16:49.000Z</time>
      </trkpt>
      <trkpt lat="45.30921" lon="6.21952">
        <ele>1781.8000488281</ele>
        <time>2011-02-07T09:16:55.000Z</time>
      </trkpt>
      <trkpt lat="45.30918" lon="6.21944">
        <ele>1783.1999511719</ele>
        <time>2011-02-07T09:17:30.000Z</time>
      </trkpt>
      <trkpt lat="45.30921" lon="6.21942">
        <ele>1784.5999755859</ele>
        <time>2011-02-07T09:17:35.000Z</time>
      </trkpt>
      <trkpt lat="45.30922" lon="6.21942">
        <ele>1784.8000488281</ele>
        <time>2011-02-07T09:17:36.000Z</time>
      </trkpt>
      <trkpt lat="45.30927" lon="6.21939">
        <ele>1785.8000488281</ele>
        <time>2011-02-07T09:17:41.000Z</time>
      </trkpt>
      <trkpt lat="45.30934" lon="6.21934">
        <ele>1787.5999755859</ele>
        <time>2011-02-07T09:17:51.000Z</time>
      </trkpt>
      <trkpt lat="45.30936" lon="6.21932">
        <ele>1788.1999511719</ele>
        <time>2011-02-07T09:17:55.000Z</time>
      </trkpt>
      <trkpt lat="45.30936" lon="6.21927">
        <ele>1789.4000244141</ele>
        <time>2011-02-07T09:18:01.000Z</time>
      </trkpt>
      <trkpt lat="45.30934" lon="6.21923">
        <ele>1790.5999755859</ele>
        <time>2011-02-07T09:18:07.000Z</time>
      </trkpt>
      <trkpt lat="45.30933" lon="6.21921">
        <ele>1791</ele>
        <time>2011-02-07T09:18:10.000Z</time>
      </trkpt>
      <trkpt lat="45.30932" lon="6.21916">
        <ele>1792</ele>
        <time>2011-02-07T09:18:14.000Z</time>
      </trkpt>
      <trkpt lat="45.30931" lon="6.2191">
        <ele>1793.4000244141</ele>
        <time>2011-02-07T09:18:22.000Z</time>
      </trkpt>
      <trkpt lat="45.30932" lon="6.21909">
        <ele>1794.8000488281</ele>
        <time>2011-02-07T09:18:27.000Z</time>
      </trkpt>
      <trkpt lat="45.30933" lon="6.21909">
        <ele>1795</ele>
        <time>2011-02-07T09:18:29.000Z</time>
      </trkpt>
      <trkpt lat="45.3094" lon="6.21909">
        <ele>1796.1999511719</ele>
        <time>2011-02-07T09:18:39.000Z</time>
      </trkpt>
      <trkpt lat="45.30948" lon="6.21905">
        <ele>1798.1999511719</ele>
        <time>2011-02-07T09:18:48.000Z</time>
      </trkpt>
      <trkpt lat="45.30951" lon="6.21903">
        <ele>1799</ele>
        <time>2011-02-07T09:18:53.000Z</time>
      </trkpt>
      <trkpt lat="45.30954" lon="6.21899">
        <ele>1800.1999511719</ele>
        <time>2011-02-07T09:18:59.000Z</time>
      </trkpt>
      <trkpt lat="45.30953" lon="6.21895">
        <ele>1801</ele>
        <time>2011-02-07T09:19:04.000Z</time>
      </trkpt>
      <trkpt lat="45.30953" lon="6.21894">
        <ele>1801.8000488281</ele>
        <time>2011-02-07T09:19:08.000Z</time>
      </trkpt>
      <trkpt lat="45.30948" lon="6.21892">
        <ele>1802.8000488281</ele>
        <time>2011-02-07T09:20:16.000Z</time>
      </trkpt>
      <trkpt lat="45.30948" lon="6.21886">
        <ele>1804.4000244141</ele>
        <time>2011-02-07T09:20:22.000Z</time>
      </trkpt>
      <trkpt lat="45.30952" lon="6.21886">
        <ele>1805.8000488281</ele>
        <time>2011-02-07T09:20:27.000Z</time>
      </trkpt>
      <trkpt lat="45.30958" lon="6.21886">
        <ele>1806.8000488281</ele>
        <time>2011-02-07T09:20:36.000Z</time>
      </trkpt>
      <trkpt lat="45.30964" lon="6.21884">
        <ele>1807.8000488281</ele>
        <time>2011-02-07T09:20:43.000Z</time>
      </trkpt>
      <trkpt lat="45.30967" lon="6.21884">
        <ele>1808.4000244141</ele>
        <time>2011-02-07T09:20:47.000Z</time>
      </trkpt>
      <trkpt lat="45.30975" lon="6.21887">
        <ele>1809</ele>
        <time>2011-02-07T09:21:17.000Z</time>
      </trkpt>
      <trkpt lat="45.30981" lon="6.21884">
        <ele>1809.8000488281</ele>
        <time>2011-02-07T09:21:24.000Z</time>
      </trkpt>
      <trkpt lat="45.30984" lon="6.2188">
        <ele>1811.4000244141</ele>
        <time>2011-02-07T09:21:31.000Z</time>
      </trkpt>
      <trkpt lat="45.30983" lon="6.21876">
        <ele>1812.1999511719</ele>
        <time>2011-02-07T09:21:36.000Z</time>
      </trkpt>
      <trkpt lat="45.30979" lon="6.2187">
        <ele>1813.4000244141</ele>
        <time>2011-02-07T09:21:44.000Z</time>
      </trkpt>
      <trkpt lat="45.30977" lon="6.21865">
        <ele>1814.5999755859</ele>
        <time>2011-02-07T09:21:50.000Z</time>
      </trkpt>
      <trkpt lat="45.30973" lon="6.21858">
        <ele>1816.5999755859</ele>
        <time>2011-02-07T09:22:00.000Z</time>
      </trkpt>
      <trkpt lat="45.30969" lon="6.21849">
        <ele>1818.5999755859</ele>
        <time>2011-02-07T09:22:11.000Z</time>
      </trkpt>
      <trkpt lat="45.30968" lon="6.21844">
        <ele>1820.4000244141</ele>
        <time>2011-02-07T09:22:16.000Z</time>
      </trkpt>
      <trkpt lat="45.30971" lon="6.2184">
        <ele>1822.1999511719</ele>
        <time>2011-02-07T09:22:23.000Z</time>
      </trkpt>
      <trkpt lat="45.30976" lon="6.21836">
        <ele>1824</ele>
        <time>2011-02-07T09:22:30.000Z</time>
      </trkpt>
      <trkpt lat="45.30981" lon="6.21835">
        <ele>1825.1999511719</ele>
        <time>2011-02-07T09:22:38.000Z</time>
      </trkpt>
      <trkpt lat="45.30983" lon="6.21834">
        <ele>1825.8000488281</ele>
        <time>2011-02-07T09:22:41.000Z</time>
      </trkpt>
      <trkpt lat="45.30989" lon="6.21831">
        <ele>1827</ele>
        <time>2011-02-07T09:22:48.000Z</time>
      </trkpt>
      <trkpt lat="45.30993" lon="6.21828">
        <ele>1828.5999755859</ele>
        <time>2011-02-07T09:22:55.000Z</time>
      </trkpt>
      <trkpt lat="45.30997" lon="6.21824">
        <ele>1829.8000488281</ele>
        <time>2011-02-07T09:23:03.000Z</time>
      </trkpt>
      <trkpt lat="45.31003" lon="6.21819">
        <ele>1831.1999511719</ele>
        <time>2011-02-07T09:23:11.000Z</time>
      </trkpt>
      <trkpt lat="45.31003" lon="6.21817">
        <ele>1831.8000488281</ele>
        <time>2011-02-07T09:23:14.000Z</time>
      </trkpt>
      <trkpt lat="45.30998" lon="6.21815">
        <ele>1832.1999511719</ele>
        <time>2011-02-07T09:23:23.000Z</time>
      </trkpt>
      <trkpt lat="45.30995" lon="6.21814">
        <ele>1833.1999511719</ele>
        <time>2011-02-07T09:23:28.000Z</time>
      </trkpt>
      <trkpt lat="45.3099" lon="6.21798">
        <ele>1836.8000488281</ele>
        <time>2011-02-07T09:23:45.000Z</time>
      </trkpt>
      <trkpt lat="45.30987" lon="6.2179">
        <ele>1838</ele>
        <time>2011-02-07T09:23:53.000Z</time>
      </trkpt>
      <trkpt lat="45.30986" lon="6.21788">
        <ele>1838.5999755859</ele>
        <time>2011-02-07T09:23:55.000Z</time>
      </trkpt>
      <trkpt lat="45.30984" lon="6.2178">
        <ele>1840.5999755859</ele>
        <time>2011-02-07T09:24:04.000Z</time>
      </trkpt>
      <trkpt lat="45.30984" lon="6.21773">
        <ele>1842.4000244141</ele>
        <time>2011-02-07T09:24:12.000Z</time>
      </trkpt>
      <trkpt lat="45.30989" lon="6.21772">
        <ele>1844.4000244141</ele>
        <time>2011-02-07T09:24:20.000Z</time>
      </trkpt>
      <trkpt lat="45.30992" lon="6.21771">
        <ele>1845.4000244141</ele>
        <time>2011-02-07T09:24:24.000Z</time>
      </trkpt>
      <trkpt lat="45.30997" lon="6.21767">
        <ele>1846.4000244141</ele>
        <time>2011-02-07T09:24:31.000Z</time>
      </trkpt>
      <trkpt lat="45.30997" lon="6.21767">
        <ele>1846.8000488281</ele>
        <time>2011-02-07T09:24:32.000Z</time>
      </trkpt>
      <trkpt lat="45.31" lon="6.21764">
        <ele>1847.8000488281</ele>
        <time>2011-02-07T09:24:38.000Z</time>
      </trkpt>
      <trkpt lat="45.31003" lon="6.21759">
        <ele>1848.8000488281</ele>
        <time>2011-02-07T09:24:43.000Z</time>
      </trkpt>
      <trkpt lat="45.31004" lon="6.21755">
        <ele>1849.8000488281</ele>
        <time>2011-02-07T09:24:49.000Z</time>
      </trkpt>
      <trkpt lat="45.31009" lon="6.21753">
        <ele>1851</ele>
        <time>2011-02-07T09:24:57.000Z</time>
      </trkpt>
      <trkpt lat="45.31019" lon="6.21751">
        <ele>1853.4000244141</ele>
        <time>2011-02-07T09:25:08.000Z</time>
      </trkpt>
      <trkpt lat="45.31022" lon="6.21749">
        <ele>1854.4000244141</ele>
        <time>2011-02-07T09:25:14.000Z</time>
      </trkpt>
      <trkpt lat="45.31025" lon="6.21747">
        <ele>1855.4000244141</ele>
        <time>2011-02-07T09:25:19.000Z</time>
      </trkpt>
      <trkpt lat="45.3103" lon="6.21744">
        <ele>1856.8000488281</ele>
        <time>2011-02-07T09:25:27.000Z</time>
      </trkpt>
      <trkpt lat="45.31034" lon="6.21742">
        <ele>1857.5999755859</ele>
        <time>2011-02-07T09:25:32.000Z</time>
      </trkpt>
      <trkpt lat="45.31042" lon="6.2174">
        <ele>1859.4000244141</ele>
        <time>2011-02-07T09:25:41.000Z</time>
      </trkpt>
      <trkpt lat="45.31049" lon="6.21736">
        <ele>1861</ele>
        <time>2011-02-07T09:25:51.000Z</time>
      </trkpt>
      <trkpt lat="45.31056" lon="6.21733">
        <ele>1863.1999511719</ele>
        <time>2011-02-07T09:26:03.000Z</time>
      </trkpt>
      <trkpt lat="45.31062" lon="6.21729">
        <ele>1864.8000488281</ele>
        <time>2011-02-07T09:26:13.000Z</time>
      </trkpt>
      <trkpt lat="45.31068" lon="6.21726">
        <ele>1866.8000488281</ele>
        <time>2011-02-07T09:26:22.000Z</time>
      </trkpt>
      <trkpt lat="45.31074" lon="6.21723">
        <ele>1868</ele>
        <time>2011-02-07T09:26:30.000Z</time>
      </trkpt>
      <trkpt lat="45.31073" lon="6.21717">
        <ele>1868.8000488281</ele>
        <time>2011-02-07T09:26:36.000Z</time>
      </trkpt>
      <trkpt lat="45.31072" lon="6.21708">
        <ele>1871</ele>
        <time>2011-02-07T09:26:46.000Z</time>
      </trkpt>
      <trkpt lat="45.31073" lon="6.21701">
        <ele>1872</ele>
        <time>2011-02-07T09:26:52.000Z</time>
      </trkpt>
      <trkpt lat="45.31073" lon="6.21694">
        <ele>1873</ele>
        <time>2011-02-07T09:26:57.000Z</time>
      </trkpt>
      <trkpt lat="45.31074" lon="6.21685">
        <ele>1874.8000488281</ele>
        <time>2011-02-07T09:27:06.000Z</time>
      </trkpt>
      <trkpt lat="45.31073" lon="6.21679">
        <ele>1876.1999511719</ele>
        <time>2011-02-07T09:27:13.000Z</time>
      </trkpt>
      <trkpt lat="45.31071" lon="6.21671">
        <ele>1878</ele>
        <time>2011-02-07T09:27:22.000Z</time>
      </trkpt>
      <trkpt lat="45.3107" lon="6.21665">
        <ele>1879.5999755859</ele>
        <time>2011-02-07T09:27:29.000Z</time>
      </trkpt>
      <trkpt lat="45.31071" lon="6.21657">
        <ele>1881.4000244141</ele>
        <time>2011-02-07T09:27:38.000Z</time>
      </trkpt>
      <trkpt lat="45.31072" lon="6.21651">
        <ele>1882.5999755859</ele>
        <time>2011-02-07T09:27:45.000Z</time>
      </trkpt>
      <trkpt lat="45.31075" lon="6.21649">
        <ele>1884.4000244141</ele>
        <time>2011-02-07T09:27:51.000Z</time>
      </trkpt>
      <trkpt lat="45.31081" lon="6.21647">
        <ele>1886</ele>
        <time>2011-02-07T09:27:59.000Z</time>
      </trkpt>
      <trkpt lat="45.3109" lon="6.21642">
        <ele>1888.5999755859</ele>
        <time>2011-02-07T09:28:11.000Z</time>
      </trkpt>
      <trkpt lat="45.31097" lon="6.21639">
        <ele>1890.1999511719</ele>
        <time>2011-02-07T09:28:20.000Z</time>
      </trkpt>
      <trkpt lat="45.31099" lon="6.21633">
        <ele>1891.4000244141</ele>
        <time>2011-02-07T09:28:28.000Z</time>
      </trkpt>
      <trkpt lat="45.31098" lon="6.21626">
        <ele>1893.4000244141</ele>
        <time>2011-02-07T09:28:35.000Z</time>
      </trkpt>
      <trkpt lat="45.31096" lon="6.21619">
        <ele>1894.5999755859</ele>
        <time>2011-02-07T09:28:42.000Z</time>
      </trkpt>
      <trkpt lat="45.31097" lon="6.21612">
        <ele>1896.5999755859</ele>
        <time>2011-02-07T09:28:50.000Z</time>
      </trkpt>
      <trkpt lat="45.31102" lon="6.21605">
        <ele>1898.5999755859</ele>
        <time>2011-02-07T09:29:00.000Z</time>
      </trkpt>
      <trkpt lat="45.31105" lon="6.216">
        <ele>1900.4000244141</ele>
        <time>2011-02-07T09:29:08.000Z</time>
      </trkpt>
      <trkpt lat="45.31108" lon="6.21595">
        <ele>1902.4000244141</ele>
        <time>2011-02-07T09:29:16.000Z</time>
      </trkpt>
      <trkpt lat="45.3111" lon="6.21591">
        <ele>1903.5999755859</ele>
        <time>2011-02-07T09:29:23.000Z</time>
      </trkpt>
      <trkpt lat="45.31113" lon="6.21585">
        <ele>1905</ele>
        <time>2011-02-07T09:29:30.000Z</time>
      </trkpt>
      <trkpt lat="45.31115" lon="6.21582">
        <ele>1906.4000244141</ele>
        <time>2011-02-07T09:29:35.000Z</time>
      </trkpt>
      <trkpt lat="45.31117" lon="6.21576">
        <ele>1908.5999755859</ele>
        <time>2011-02-07T09:29:45.000Z</time>
      </trkpt>
      <trkpt lat="45.3112" lon="6.2157">
        <ele>1910</ele>
        <time>2011-02-07T09:29:52.000Z</time>
      </trkpt>
      <trkpt lat="45.31122" lon="6.21566">
        <ele>1911.5999755859</ele>
        <time>2011-02-07T09:29:59.000Z</time>
      </trkpt>
      <trkpt lat="45.31123" lon="6.21558">
        <ele>1913.8000488281</ele>
        <time>2011-02-07T09:30:09.000Z</time>
      </trkpt>
      <trkpt lat="45.31124" lon="6.21554">
        <ele>1914.4000244141</ele>
        <time>2011-02-07T09:30:14.000Z</time>
      </trkpt>
      <trkpt lat="45.31124" lon="6.21549">
        <ele>1915.8000488281</ele>
        <time>2011-02-07T09:30:20.000Z</time>
      </trkpt>
      <trkpt lat="45.31125" lon="6.21547">
        <ele>1916.8000488281</ele>
        <time>2011-02-07T09:30:24.000Z</time>
      </trkpt>
      <trkpt lat="45.31126" lon="6.21543">
        <ele>1917.5999755859</ele>
        <time>2011-02-07T09:30:28.000Z</time>
      </trkpt>
      <trkpt lat="45.31126" lon="6.21542">
        <ele>1917.8000488281</ele>
        <time>2011-02-07T09:30:29.000Z</time>
      </trkpt>
      <trkpt lat="45.31128" lon="6.21538">
        <ele>1918.8000488281</ele>
        <time>2011-02-07T09:30:34.000Z</time>
      </trkpt>
      <trkpt lat="45.31129" lon="6.21538">
        <ele>1919.1999511719</ele>
        <time>2011-02-07T09:30:35.000Z</time>
      </trkpt>
      <trkpt lat="45.31131" lon="6.21535">
        <ele>1920.4000244141</ele>
        <time>2011-02-07T09:30:39.000Z</time>
      </trkpt>
      <trkpt lat="45.31138" lon="6.21528">
        <ele>1921.8000488281</ele>
        <time>2011-02-07T09:30:49.000Z</time>
      </trkpt>
      <trkpt lat="45.3114" lon="6.21523">
        <ele>1923</ele>
        <time>2011-02-07T09:30:55.000Z</time>
      </trkpt>
      <trkpt lat="45.31139" lon="6.21519">
        <ele>1924</ele>
        <time>2011-02-07T09:31:00.000Z</time>
      </trkpt>
      <trkpt lat="45.31139" lon="6.21511">
        <ele>1926.4000244141</ele>
        <time>2011-02-07T09:31:10.000Z</time>
      </trkpt>
      <trkpt lat="45.31139" lon="6.21508">
        <ele>1927.1999511719</ele>
        <time>2011-02-07T09:31:14.000Z</time>
      </trkpt>
      <trkpt lat="45.3114" lon="6.21505">
        <ele>1928</ele>
        <time>2011-02-07T09:31:19.000Z</time>
      </trkpt>
      <trkpt lat="45.31141" lon="6.21503">
        <ele>1929</ele>
        <time>2011-02-07T09:31:22.000Z</time>
      </trkpt>
      <trkpt lat="45.31143" lon="6.215">
        <ele>1930</ele>
        <time>2011-02-07T09:31:28.000Z</time>
      </trkpt>
      <trkpt lat="45.31143" lon="6.21499">
        <ele>1930.5999755859</ele>
        <time>2011-02-07T09:31:29.000Z</time>
      </trkpt>
      <trkpt lat="45.31145" lon="6.21497">
        <ele>1931.1999511719</ele>
        <time>2011-02-07T09:31:33.000Z</time>
      </trkpt>
      <trkpt lat="45.31147" lon="6.21493">
        <ele>1932.8000488281</ele>
        <time>2011-02-07T09:31:39.000Z</time>
      </trkpt>
      <trkpt lat="45.31149" lon="6.21487">
        <ele>1934.4000244141</ele>
        <time>2011-02-07T09:31:47.000Z</time>
      </trkpt>
      <trkpt lat="45.31151" lon="6.2148">
        <ele>1935.8000488281</ele>
        <time>2011-02-07T09:31:56.000Z</time>
      </trkpt>
      <trkpt lat="45.31153" lon="6.21475">
        <ele>1937.1999511719</ele>
        <time>2011-02-07T09:32:02.000Z</time>
      </trkpt>
      <trkpt lat="45.31156" lon="6.21473">
        <ele>1938.4000244141</ele>
        <time>2011-02-07T09:32:09.000Z</time>
      </trkpt>
      <trkpt lat="45.3116" lon="6.21472">
        <ele>1939.5999755859</ele>
        <time>2011-02-07T09:32:15.000Z</time>
      </trkpt>
      <trkpt lat="45.31162" lon="6.21471">
        <ele>1940.1999511719</ele>
        <time>2011-02-07T09:32:19.000Z</time>
      </trkpt>
      <trkpt lat="45.3117" lon="6.21464">
        <ele>1940.5999755859</ele>
        <time>2011-02-07T09:38:59.000Z</time>
      </trkpt>
      <trkpt lat="45.31172" lon="6.21459">
        <ele>1941.5999755859</ele>
        <time>2011-02-07T09:39:06.000Z</time>
      </trkpt>
      <trkpt lat="45.31176" lon="6.21454">
        <ele>1943</ele>
        <time>2011-02-07T09:39:13.000Z</time>
      </trkpt>
      <trkpt lat="45.31181" lon="6.21448">
        <ele>1945.1999511719</ele>
        <time>2011-02-07T09:39:23.000Z</time>
      </trkpt>
      <trkpt lat="45.31185" lon="6.21439">
        <ele>1947.4000244141</ele>
        <time>2011-02-07T09:39:33.000Z</time>
      </trkpt>
      <trkpt lat="45.31186" lon="6.21435">
        <ele>1948</ele>
        <time>2011-02-07T09:39:36.000Z</time>
      </trkpt>
      <trkpt lat="45.31189" lon="6.21432">
        <ele>1949</ele>
        <time>2011-02-07T09:39:42.000Z</time>
      </trkpt>
      <trkpt lat="45.31194" lon="6.21425">
        <ele>1950.8000488281</ele>
        <time>2011-02-07T09:39:50.000Z</time>
      </trkpt>
      <trkpt lat="45.31197" lon="6.21419">
        <ele>1952.4000244141</ele>
        <time>2011-02-07T09:39:58.000Z</time>
      </trkpt>
      <trkpt lat="45.31202" lon="6.21415">
        <ele>1954.4000244141</ele>
        <time>2011-02-07T09:40:07.000Z</time>
      </trkpt>
      <trkpt lat="45.31209" lon="6.21411">
        <ele>1956.5999755859</ele>
        <time>2011-02-07T09:40:17.000Z</time>
      </trkpt>
      <trkpt lat="45.31214" lon="6.21408">
        <ele>1958</ele>
        <time>2011-02-07T09:40:26.000Z</time>
      </trkpt>
      <trkpt lat="45.31214" lon="6.21408">
        <ele>1958</ele>
        <time>2011-02-07T09:40:27.000Z</time>
      </trkpt>
      <trkpt lat="45.31217" lon="6.21404">
        <ele>1959.4000244141</ele>
        <time>2011-02-07T09:40:47.000Z</time>
      </trkpt>
      <trkpt lat="45.31219" lon="6.21403">
        <ele>1960</ele>
        <time>2011-02-07T09:40:51.000Z</time>
      </trkpt>
      <trkpt lat="45.31224" lon="6.21404">
        <ele>1960.8000488281</ele>
        <time>2011-02-07T09:40:56.000Z</time>
      </trkpt>
      <trkpt lat="45.3123" lon="6.21404">
        <ele>1962.8000488281</ele>
        <time>2011-02-07T09:41:05.000Z</time>
      </trkpt>
      <trkpt lat="45.3123" lon="6.21404">
        <ele>1963.4000244141</ele>
        <time>2011-02-07T09:41:08.000Z</time>
      </trkpt>
      <trkpt lat="45.31233" lon="6.21405">
        <ele>1964.1999511719</ele>
        <time>2011-02-07T09:41:14.000Z</time>
      </trkpt>
      <trkpt lat="45.31236" lon="6.21406">
        <ele>1965</ele>
        <time>2011-02-07T09:41:19.000Z</time>
      </trkpt>
      <trkpt lat="45.31237" lon="6.21406">
        <ele>1965.4000244141</ele>
        <time>2011-02-07T09:41:21.000Z</time>
      </trkpt>
      <trkpt lat="45.31242" lon="6.21405">
        <ele>1966.4000244141</ele>
        <time>2011-02-07T09:41:27.000Z</time>
      </trkpt>
      <trkpt lat="45.31248" lon="6.21403">
        <ele>1968.4000244141</ele>
        <time>2011-02-07T09:41:36.000Z</time>
      </trkpt>
      <trkpt lat="45.31251" lon="6.21402">
        <ele>1970</ele>
        <time>2011-02-07T09:41:42.000Z</time>
      </trkpt>
      <trkpt lat="45.31256" lon="6.214">
        <ele>1971.4000244141</ele>
        <time>2011-02-07T09:41:49.000Z</time>
      </trkpt>
      <trkpt lat="45.31263" lon="6.21399">
        <ele>1973.5999755859</ele>
        <time>2011-02-07T09:41:58.000Z</time>
      </trkpt>
      <trkpt lat="45.31266" lon="6.21399">
        <ele>1974.8000488281</ele>
        <time>2011-02-07T09:42:04.000Z</time>
      </trkpt>
      <trkpt lat="45.31272" lon="6.21403">
        <ele>1977.4000244141</ele>
        <time>2011-02-07T09:42:15.000Z</time>
      </trkpt>
      <trkpt lat="45.31276" lon="6.21405">
        <ele>1979.4000244141</ele>
        <time>2011-02-07T09:42:23.000Z</time>
      </trkpt>
      <trkpt lat="45.31279" lon="6.21405">
        <ele>1980.1999511719</ele>
        <time>2011-02-07T09:42:28.000Z</time>
      </trkpt>
      <trkpt lat="45.3128" lon="6.21401">
        <ele>1980.8000488281</ele>
        <time>2011-02-07T09:42:34.000Z</time>
      </trkpt>
      <trkpt lat="45.31281" lon="6.21395">
        <ele>1982</ele>
        <time>2011-02-07T09:42:41.000Z</time>
      </trkpt>
      <trkpt lat="45.31283" lon="6.21391">
        <ele>1983.4000244141</ele>
        <time>2011-02-07T09:42:47.000Z</time>
      </trkpt>
      <trkpt lat="45.31286" lon="6.21387">
        <ele>1984.8000488281</ele>
        <time>2011-02-07T09:42:53.000Z</time>
      </trkpt>
      <trkpt lat="45.31287" lon="6.21384">
        <ele>1985.8000488281</ele>
        <time>2011-02-07T09:42:56.000Z</time>
      </trkpt>
      <trkpt lat="45.31288" lon="6.21381">
        <ele>1986.4000244141</ele>
        <time>2011-02-07T09:43:01.000Z</time>
      </trkpt>
      <trkpt lat="45.31289" lon="6.21377">
        <ele>1987.4000244141</ele>
        <time>2011-02-07T09:43:06.000Z</time>
      </trkpt>
      <trkpt lat="45.3129" lon="6.21372">
        <ele>1988.5999755859</ele>
        <time>2011-02-07T09:43:11.000Z</time>
      </trkpt>
      <trkpt lat="45.31291" lon="6.21367">
        <ele>1989.8000488281</ele>
        <time>2011-02-07T09:43:16.000Z</time>
      </trkpt>
      <trkpt lat="45.31292" lon="6.21363">
        <ele>1991.1999511719</ele>
        <time>2011-02-07T09:43:22.000Z</time>
      </trkpt>
      <trkpt lat="45.31293" lon="6.21357">
        <ele>1992.4000244141</ele>
        <time>2011-02-07T09:43:28.000Z</time>
      </trkpt>
      <trkpt lat="45.31295" lon="6.21349">
        <ele>1993.5999755859</ele>
        <time>2011-02-07T09:43:35.000Z</time>
      </trkpt>
      <trkpt lat="45.31295" lon="6.21344">
        <ele>1995.8000488281</ele>
        <time>2011-02-07T09:43:42.000Z</time>
      </trkpt>
      <trkpt lat="45.31294" lon="6.21334">
        <ele>1998</ele>
        <time>2011-02-07T09:43:52.000Z</time>
      </trkpt>
      <trkpt lat="45.31293" lon="6.21326">
        <ele>2000</ele>
        <time>2011-02-07T09:44:00.000Z</time>
      </trkpt>
      <trkpt lat="45.31293" lon="6.2132">
        <ele>2001.1999511719</ele>
        <time>2011-02-07T09:44:06.000Z</time>
      </trkpt>
      <trkpt lat="45.31292" lon="6.21312">
        <ele>2003.4000244141</ele>
        <time>2011-02-07T09:44:16.000Z</time>
      </trkpt>
      <trkpt lat="45.31294" lon="6.21305">
        <ele>2004.8000488281</ele>
        <time>2011-02-07T09:44:24.000Z</time>
      </trkpt>
      <trkpt lat="45.31293" lon="6.21303">
        <ele>2005.5999755859</ele>
        <time>2011-02-07T09:44:27.000Z</time>
      </trkpt>
      <trkpt lat="45.31293" lon="6.21299">
        <ele>2006.8000488281</ele>
        <time>2011-02-07T09:44:31.000Z</time>
      </trkpt>
      <trkpt lat="45.31292" lon="6.21293">
        <ele>2007.8000488281</ele>
        <time>2011-02-07T09:44:37.000Z</time>
      </trkpt>
      <trkpt lat="45.31293" lon="6.21293">
        <ele>2008.4000244141</ele>
        <time>2011-02-07T09:44:39.000Z</time>
      </trkpt>
      <trkpt lat="45.31293" lon="6.21287">
        <ele>2010.1999511719</ele>
        <time>2011-02-07T09:44:47.000Z</time>
      </trkpt>
      <trkpt lat="45.31293" lon="6.21277">
        <ele>2011.8000488281</ele>
        <time>2011-02-07T09:44:55.000Z</time>
      </trkpt>
      <trkpt lat="45.31294" lon="6.21272">
        <ele>2012.8000488281</ele>
        <time>2011-02-07T09:45:00.000Z</time>
      </trkpt>
      <trkpt lat="45.31293" lon="6.21263">
        <ele>2015.4000244141</ele>
        <time>2011-02-07T09:45:10.000Z</time>
      </trkpt>
      <trkpt lat="45.31292" lon="6.21258">
        <ele>2016.5999755859</ele>
        <time>2011-02-07T09:45:15.000Z</time>
      </trkpt>
      <trkpt lat="45.31293" lon="6.21255">
        <ele>2018.4000244141</ele>
        <time>2011-02-07T09:45:21.000Z</time>
      </trkpt>
      <trkpt lat="45.31295" lon="6.21253">
        <ele>2019.4000244141</ele>
        <time>2011-02-07T09:45:25.000Z</time>
      </trkpt>
      <trkpt lat="45.31296" lon="6.21253">
        <ele>2019.8000488281</ele>
        <time>2011-02-07T09:45:26.000Z</time>
      </trkpt>
      <trkpt lat="45.31298" lon="6.21247">
        <ele>2020.8000488281</ele>
        <time>2011-02-07T09:45:31.000Z</time>
      </trkpt>
      <trkpt lat="45.31298" lon="6.2124">
        <ele>2022</ele>
        <time>2011-02-07T09:45:37.000Z</time>
      </trkpt>
      <trkpt lat="45.313" lon="6.21235">
        <ele>2023</ele>
        <time>2011-02-07T09:45:43.000Z</time>
      </trkpt>
      <trkpt lat="45.31302" lon="6.2123">
        <ele>2024</ele>
        <time>2011-02-07T09:45:49.000Z</time>
      </trkpt>
      <trkpt lat="45.31304" lon="6.21227">
        <ele>2025.4000244141</ele>
        <time>2011-02-07T09:45:54.000Z</time>
      </trkpt>
      <trkpt lat="45.31308" lon="6.2122">
        <ele>2026.8000488281</ele>
        <time>2011-02-07T09:46:02.000Z</time>
      </trkpt>
      <trkpt lat="45.3131" lon="6.21215">
        <ele>2028</ele>
        <time>2011-02-07T09:46:09.000Z</time>
      </trkpt>
      <trkpt lat="45.31311" lon="6.2121">
        <ele>2029</ele>
        <time>2011-02-07T09:46:14.000Z</time>
      </trkpt>
      <trkpt lat="45.31313" lon="6.21203">
        <ele>2030.4000244141</ele>
        <time>2011-02-07T09:46:21.000Z</time>
      </trkpt>
      <trkpt lat="45.31315" lon="6.21199">
        <ele>2032</ele>
        <time>2011-02-07T09:46:27.000Z</time>
      </trkpt>
      <trkpt lat="45.31317" lon="6.21193">
        <ele>2033.1999511719</ele>
        <time>2011-02-07T09:46:33.000Z</time>
      </trkpt>
      <trkpt lat="45.3132" lon="6.21187">
        <ele>2034.8000488281</ele>
        <time>2011-02-07T09:46:40.000Z</time>
      </trkpt>
      <trkpt lat="45.31322" lon="6.21182">
        <ele>2036</ele>
        <time>2011-02-07T09:46:48.000Z</time>
      </trkpt>
      <trkpt lat="45.31323" lon="6.21179">
        <ele>2037.1999511719</ele>
        <time>2011-02-07T09:46:53.000Z</time>
      </trkpt>
      <trkpt lat="45.31325" lon="6.2117">
        <ele>2038.8000488281</ele>
        <time>2011-02-07T09:47:01.000Z</time>
      </trkpt>
      <trkpt lat="45.31328" lon="6.21164">
        <ele>2039.8000488281</ele>
        <time>2011-02-07T09:47:07.000Z</time>
      </trkpt>
      <trkpt lat="45.31328" lon="6.21158">
        <ele>2041</ele>
        <time>2011-02-07T09:47:14.000Z</time>
      </trkpt>
      <trkpt lat="45.3133" lon="6.21154">
        <ele>2042.1999511719</ele>
        <time>2011-02-07T09:47:20.000Z</time>
      </trkpt>
      <trkpt lat="45.31332" lon="6.21152">
        <ele>2043.4000244141</ele>
        <time>2011-02-07T09:47:26.000Z</time>
      </trkpt>
      <trkpt lat="45.31333" lon="6.21151">
        <ele>2044</ele>
        <time>2011-02-07T09:47:28.000Z</time>
      </trkpt>
      <trkpt lat="45.31333" lon="6.21145">
        <ele>2045.1999511719</ele>
        <time>2011-02-07T09:47:35.000Z</time>
      </trkpt>
      <trkpt lat="45.31332" lon="6.21145">
        <ele>2045.8000488281</ele>
        <time>2011-02-07T09:48:09.000Z</time>
      </trkpt>
      <trkpt lat="45.31336" lon="6.21151">
        <ele>2048.1999511719</ele>
        <time>2011-02-07T09:55:02.000Z</time>
      </trkpt>
      <trkpt lat="45.31335" lon="6.21144">
        <ele>2049</ele>
        <time>2011-02-07T09:55:08.000Z</time>
      </trkpt>
      <trkpt lat="45.31334" lon="6.21142">
        <ele>2049.6000976562</ele>
        <time>2011-02-07T09:55:10.000Z</time>
      </trkpt>
      <trkpt lat="45.31333" lon="6.21137">
        <ele>2050.6000976562</ele>
        <time>2011-02-07T09:55:16.000Z</time>
      </trkpt>
      <trkpt lat="45.31331" lon="6.21131">
        <ele>2051.6000976562</ele>
        <time>2011-02-07T09:55:22.000Z</time>
      </trkpt>
      <trkpt lat="45.3133" lon="6.21127">
        <ele>2053</ele>
        <time>2011-02-07T09:55:27.000Z</time>
      </trkpt>
      <trkpt lat="45.31329" lon="6.21124">
        <ele>2053.6000976562</ele>
        <time>2011-02-07T09:55:31.000Z</time>
      </trkpt>
      <trkpt lat="45.31329" lon="6.21116">
        <ele>2055.3999023438</ele>
        <time>2011-02-07T09:55:40.000Z</time>
      </trkpt>
      <trkpt lat="45.31329" lon="6.21109">
        <ele>2057.3999023438</ele>
        <time>2011-02-07T09:55:48.000Z</time>
      </trkpt>
      <trkpt lat="45.3133" lon="6.21107">
        <ele>2058.8000488281</ele>
        <time>2011-02-07T09:55:56.000Z</time>
      </trkpt>
      <trkpt lat="45.3133" lon="6.21104">
        <ele>2060</ele>
        <time>2011-02-07T09:56:04.000Z</time>
      </trkpt>
      <trkpt lat="45.31329" lon="6.211">
        <ele>2061.8000488281</ele>
        <time>2011-02-07T09:56:11.000Z</time>
      </trkpt>
      <trkpt lat="45.3133" lon="6.21096">
        <ele>2063.8000488281</ele>
        <time>2011-02-07T09:56:18.000Z</time>
      </trkpt>
      <trkpt lat="45.3133" lon="6.21093">
        <ele>2064.8000488281</ele>
        <time>2011-02-07T09:56:24.000Z</time>
      </trkpt>
      <trkpt lat="45.3133" lon="6.21092">
        <ele>2065.6000976562</ele>
        <time>2011-02-07T09:56:26.000Z</time>
      </trkpt>
      <trkpt lat="45.3133" lon="6.21087">
        <ele>2066.3999023438</ele>
        <time>2011-02-07T09:56:30.000Z</time>
      </trkpt>
      <trkpt lat="45.31329" lon="6.21072">
        <ele>2068.8000488281</ele>
        <time>2011-02-07T09:56:41.000Z</time>
      </trkpt>
      <trkpt lat="45.3133" lon="6.21062">
        <ele>2070.3999023438</ele>
        <time>2011-02-07T09:56:48.000Z</time>
      </trkpt>
      <trkpt lat="45.31333" lon="6.21045">
        <ele>2072.6000976562</ele>
        <time>2011-02-07T09:56:58.000Z</time>
      </trkpt>
      <trkpt lat="45.31336" lon="6.21033">
        <ele>2074.3999023438</ele>
        <time>2011-02-07T09:57:07.000Z</time>
      </trkpt>
      <trkpt lat="45.3134" lon="6.21018">
        <ele>2076.3999023438</ele>
        <time>2011-02-07T09:57:17.000Z</time>
      </trkpt>
      <trkpt lat="45.31341" lon="6.2101">
        <ele>2077.8000488281</ele>
        <time>2011-02-07T09:57:24.000Z</time>
      </trkpt>
      <trkpt lat="45.31341" lon="6.21007">
        <ele>2078.6000976562</ele>
        <time>2011-02-07T09:57:28.000Z</time>
      </trkpt>
      <trkpt lat="45.31343" lon="6.21">
        <ele>2080</ele>
        <time>2011-02-07T09:57:36.000Z</time>
      </trkpt>
      <trkpt lat="45.31347" lon="6.20993">
        <ele>2081.3999023438</ele>
        <time>2011-02-07T09:57:43.000Z</time>
      </trkpt>
      <trkpt lat="45.31349" lon="6.20987">
        <ele>2083</ele>
        <time>2011-02-07T09:57:50.000Z</time>
      </trkpt>
      <trkpt lat="45.31354" lon="6.20978">
        <ele>2084.8000488281</ele>
        <time>2011-02-07T09:57:59.000Z</time>
      </trkpt>
      <trkpt lat="45.31357" lon="6.20975">
        <ele>2086</ele>
        <time>2011-02-07T09:58:05.000Z</time>
      </trkpt>
      <trkpt lat="45.31357" lon="6.20974">
        <ele>2087</ele>
        <time>2011-02-07T09:58:08.000Z</time>
      </trkpt>
      <trkpt lat="45.31368" lon="6.20963">
        <ele>2092.1999511719</ele>
        <time>2011-02-07T09:58:37.000Z</time>
      </trkpt>
      <trkpt lat="45.31368" lon="6.20962">
        <ele>2092.6000976562</ele>
        <time>2011-02-07T09:58:38.000Z</time>
      </trkpt>
      <trkpt lat="45.3137" lon="6.20958">
        <ele>2093.8000488281</ele>
        <time>2011-02-07T09:58:44.000Z</time>
      </trkpt>
      <trkpt lat="45.31369" lon="6.20954">
        <ele>2094.8000488281</ele>
        <time>2011-02-07T09:58:49.000Z</time>
      </trkpt>
      <trkpt lat="45.3137" lon="6.20949">
        <ele>2096.1999511719</ele>
        <time>2011-02-07T09:58:56.000Z</time>
      </trkpt>
      <trkpt lat="45.31369" lon="6.20947">
        <ele>2096.6000976562</ele>
        <time>2011-02-07T09:58:59.000Z</time>
      </trkpt>
      <trkpt lat="45.31367" lon="6.20943">
        <ele>2097.6000976562</ele>
        <time>2011-02-07T09:59:05.000Z</time>
      </trkpt>
      <trkpt lat="45.31365" lon="6.20935">
        <ele>2099.3999023438</ele>
        <time>2011-02-07T09:59:14.000Z</time>
      </trkpt>
      <trkpt lat="45.31363" lon="6.2093">
        <ele>2101</ele>
        <time>2011-02-07T09:59:21.000Z</time>
      </trkpt>
      <trkpt lat="45.31362" lon="6.20926">
        <ele>2102.1999511719</ele>
        <time>2011-02-07T09:59:27.000Z</time>
      </trkpt>
      <trkpt lat="45.31361" lon="6.20922">
        <ele>2103.6000976562</ele>
        <time>2011-02-07T09:59:33.000Z</time>
      </trkpt>
      <trkpt lat="45.3136" lon="6.20918">
        <ele>2104.3999023438</ele>
        <time>2011-02-07T09:59:39.000Z</time>
      </trkpt>
      <trkpt lat="45.3136" lon="6.20914">
        <ele>2105.1999511719</ele>
        <time>2011-02-07T09:59:44.000Z</time>
      </trkpt>
      <trkpt lat="45.3136" lon="6.20911">
        <ele>2106.1999511719</ele>
        <time>2011-02-07T09:59:48.000Z</time>
      </trkpt>
      <trkpt lat="45.3136" lon="6.20907">
        <ele>2106.8000488281</ele>
        <time>2011-02-07T09:59:52.000Z</time>
      </trkpt>
      <trkpt lat="45.3136" lon="6.20899">
        <ele>2109.3999023438</ele>
        <time>2011-02-07T10:00:03.000Z</time>
      </trkpt>
      <trkpt lat="45.31359" lon="6.20893">
        <ele>2111.1999511719</ele>
        <time>2011-02-07T10:00:12.000Z</time>
      </trkpt>
      <trkpt lat="45.31359" lon="6.20886">
        <ele>2112.8000488281</ele>
        <time>2011-02-07T10:00:20.000Z</time>
      </trkpt>
      <trkpt lat="45.3136" lon="6.20881">
        <ele>2114.3999023438</ele>
        <time>2011-02-07T10:00:26.000Z</time>
      </trkpt>
      <trkpt lat="45.3136" lon="6.20878">
        <ele>2114.8000488281</ele>
        <time>2011-02-07T10:00:30.000Z</time>
      </trkpt>
      <trkpt lat="45.31362" lon="6.20868">
        <ele>2116.6000976562</ele>
        <time>2011-02-07T10:00:40.000Z</time>
      </trkpt>
      <trkpt lat="45.31361" lon="6.2086">
        <ele>2118.8000488281</ele>
        <time>2011-02-07T10:00:51.000Z</time>
      </trkpt>
      <trkpt lat="45.3136" lon="6.20856">
        <ele>2119.8000488281</ele>
        <time>2011-02-07T10:00:57.000Z</time>
      </trkpt>
      <trkpt lat="45.31358" lon="6.20852">
        <ele>2121.3999023438</ele>
        <time>2011-02-07T10:01:03.000Z</time>
      </trkpt>
      <trkpt lat="45.31358" lon="6.20847">
        <ele>2122.6000976562</ele>
        <time>2011-02-07T10:01:10.000Z</time>
      </trkpt>
      <trkpt lat="45.31357" lon="6.20841">
        <ele>2124.1999511719</ele>
        <time>2011-02-07T10:01:18.000Z</time>
      </trkpt>
      <trkpt lat="45.31357" lon="6.20837">
        <ele>2125.1999511719</ele>
        <time>2011-02-07T10:01:23.000Z</time>
      </trkpt>
      <trkpt lat="45.31357" lon="6.20833">
        <ele>2126.6000976562</ele>
        <time>2011-02-07T10:01:29.000Z</time>
      </trkpt>
      <trkpt lat="45.31356" lon="6.20823">
        <ele>2128.1999511719</ele>
        <time>2011-02-07T10:01:38.000Z</time>
      </trkpt>
      <trkpt lat="45.31356" lon="6.20815">
        <ele>2130.6000976562</ele>
        <time>2011-02-07T10:01:47.000Z</time>
      </trkpt>
      <trkpt lat="45.31354" lon="6.20809">
        <ele>2133</ele>
        <time>2011-02-07T10:01:54.000Z</time>
      </trkpt>
      <trkpt lat="45.31353" lon="6.20806">
        <ele>2134.1999511719</ele>
        <time>2011-02-07T10:02:00.000Z</time>
      </trkpt>
      <trkpt lat="45.31352" lon="6.20806">
        <ele>2134.6000976562</ele>
        <time>2011-02-07T10:02:01.000Z</time>
      </trkpt>
      <trkpt lat="45.31352" lon="6.20801">
        <ele>2135.8000488281</ele>
        <time>2011-02-07T10:02:08.000Z</time>
      </trkpt>
      <trkpt lat="45.31351" lon="6.20795">
        <ele>2136.8000488281</ele>
        <time>2011-02-07T10:02:14.000Z</time>
      </trkpt>
      <trkpt lat="45.31351" lon="6.20794">
        <ele>2137.3999023438</ele>
        <time>2011-02-07T10:02:16.000Z</time>
      </trkpt>
      <trkpt lat="45.31349" lon="6.20786">
        <ele>2139</ele>
        <time>2011-02-07T10:02:25.000Z</time>
      </trkpt>
      <trkpt lat="45.31349" lon="6.20782">
        <ele>2140</ele>
        <time>2011-02-07T10:02:31.000Z</time>
      </trkpt>
      <trkpt lat="45.31347" lon="6.2077">
        <ele>2142.3999023438</ele>
        <time>2011-02-07T10:02:44.000Z</time>
      </trkpt>
      <trkpt lat="45.31347" lon="6.2077">
        <ele>2142.8000488281</ele>
        <time>2011-02-07T10:02:45.000Z</time>
      </trkpt>
      <trkpt lat="45.31345" lon="6.20764">
        <ele>2144</ele>
        <time>2011-02-07T10:02:52.000Z</time>
      </trkpt>
      <trkpt lat="45.31345" lon="6.20754">
        <ele>2146.3999023438</ele>
        <time>2011-02-07T10:03:02.000Z</time>
      </trkpt>
      <trkpt lat="45.31345" lon="6.2075">
        <ele>2147.8000488281</ele>
        <time>2011-02-07T10:03:06.000Z</time>
      </trkpt>
      <trkpt lat="45.31345" lon="6.20746">
        <ele>2148.8000488281</ele>
        <time>2011-02-07T10:03:12.000Z</time>
      </trkpt>
      <trkpt lat="45.31345" lon="6.20745">
        <ele>2149.3999023438</ele>
        <time>2011-02-07T10:03:13.000Z</time>
      </trkpt>
      <trkpt lat="45.31344" lon="6.20737">
        <ele>2150.8000488281</ele>
        <time>2011-02-07T10:03:23.000Z</time>
      </trkpt>
      <trkpt lat="45.31344" lon="6.20728">
        <ele>2153.6000976562</ele>
        <time>2011-02-07T10:03:35.000Z</time>
      </trkpt>
      <trkpt lat="45.31343" lon="6.20722">
        <ele>2155.1999511719</ele>
        <time>2011-02-07T10:03:43.000Z</time>
      </trkpt>
      <trkpt lat="45.31343" lon="6.2072">
        <ele>2156.1999511719</ele>
        <time>2011-02-07T10:03:46.000Z</time>
      </trkpt>
      <trkpt lat="45.31342" lon="6.20714">
        <ele>2157.6000976562</ele>
        <time>2011-02-07T10:03:55.000Z</time>
      </trkpt>
      <trkpt lat="45.31341" lon="6.20711">
        <ele>2158.8000488281</ele>
        <time>2011-02-07T10:04:00.000Z</time>
      </trkpt>
      <trkpt lat="45.31339" lon="6.20707">
        <ele>2159.8000488281</ele>
        <time>2011-02-07T10:04:06.000Z</time>
      </trkpt>
      <trkpt lat="45.31336" lon="6.20704">
        <ele>2160.6000976562</ele>
        <time>2011-02-07T10:04:12.000Z</time>
      </trkpt>
      <trkpt lat="45.31335" lon="6.20704">
        <ele>2161.1999511719</ele>
        <time>2011-02-07T10:04:14.000Z</time>
      </trkpt>
      <trkpt lat="45.31331" lon="6.20704">
        <ele>2162.8000488281</ele>
        <time>2011-02-07T10:04:20.000Z</time>
      </trkpt>
      <trkpt lat="45.31325" lon="6.20703">
        <ele>2163.6000976562</ele>
        <time>2011-02-07T10:06:10.000Z</time>
      </trkpt>
      <trkpt lat="45.31323" lon="6.207">
        <ele>2164.3999023438</ele>
        <time>2011-02-07T10:07:35.000Z</time>
      </trkpt>
      <trkpt lat="45.31319" lon="6.20704">
        <ele>2165.3999023438</ele>
        <time>2011-02-07T10:08:57.000Z</time>
      </trkpt>
      <trkpt lat="45.31315" lon="6.20702">
        <ele>2167.8000488281</ele>
        <time>2011-02-07T10:09:05.000Z</time>
      </trkpt>
      <trkpt lat="45.31309" lon="6.20698">
        <ele>2169.1999511719</ele>
        <time>2011-02-07T10:09:14.000Z</time>
      </trkpt>
      <trkpt lat="45.31305" lon="6.20696">
        <ele>2170.3999023438</ele>
        <time>2011-02-07T10:09:22.000Z</time>
      </trkpt>
      <trkpt lat="45.31299" lon="6.20692">
        <ele>2172.6000976562</ele>
        <time>2011-02-07T10:09:33.000Z</time>
      </trkpt>
      <trkpt lat="45.31294" lon="6.20689">
        <ele>2174.1999511719</ele>
        <time>2011-02-07T10:09:42.000Z</time>
      </trkpt>
      <trkpt lat="45.31288" lon="6.20687">
        <ele>2176.1999511719</ele>
        <time>2011-02-07T10:09:52.000Z</time>
      </trkpt>
      <trkpt lat="45.31286" lon="6.20687">
        <ele>2177.1999511719</ele>
        <time>2011-02-07T10:09:57.000Z</time>
      </trkpt>
      <trkpt lat="45.31284" lon="6.20686">
        <ele>2177.8000488281</ele>
        <time>2011-02-07T10:10:02.000Z</time>
      </trkpt>
      <trkpt lat="45.31285" lon="6.20678">
        <ele>2178.6000976562</ele>
        <time>2011-02-07T10:10:11.000Z</time>
      </trkpt>
      <trkpt lat="45.31288" lon="6.20672">
        <ele>2179.8000488281</ele>
        <time>2011-02-07T10:10:17.000Z</time>
      </trkpt>
      <trkpt lat="45.31289" lon="6.20669">
        <ele>2180.3999023438</ele>
        <time>2011-02-07T10:10:20.000Z</time>
      </trkpt>
      <trkpt lat="45.31291" lon="6.20662">
        <ele>2181.3999023438</ele>
        <time>2011-02-07T10:10:26.000Z</time>
      </trkpt>
      <trkpt lat="45.31294" lon="6.20657">
        <ele>2182.6000976562</ele>
        <time>2011-02-07T10:10:32.000Z</time>
      </trkpt>
      <trkpt lat="45.31294" lon="6.20654">
        <ele>2183.8000488281</ele>
        <time>2011-02-07T10:10:37.000Z</time>
      </trkpt>
      <trkpt lat="45.31293" lon="6.20647">
        <ele>2185.8000488281</ele>
        <time>2011-02-07T10:10:47.000Z</time>
      </trkpt>
      <trkpt lat="45.31292" lon="6.2064">
        <ele>2187.8000488281</ele>
        <time>2011-02-07T10:10:56.000Z</time>
      </trkpt>
      <trkpt lat="45.31292" lon="6.20631">
        <ele>2189.3999023438</ele>
        <time>2011-02-07T10:11:06.000Z</time>
      </trkpt>
      <trkpt lat="45.3129" lon="6.20629">
        <ele>2189.8000488281</ele>
        <time>2011-02-07T10:11:09.000Z</time>
      </trkpt>
      <trkpt lat="45.31285" lon="6.20623">
        <ele>2190.8000488281</ele>
        <time>2011-02-07T10:11:18.000Z</time>
      </trkpt>
      <trkpt lat="45.31281" lon="6.20619">
        <ele>2192</ele>
        <time>2011-02-07T10:11:27.000Z</time>
      </trkpt>
      <trkpt lat="45.31281" lon="6.20618">
        <ele>2192.6000976562</ele>
        <time>2011-02-07T10:11:30.000Z</time>
      </trkpt>
      <trkpt lat="45.31278" lon="6.20616">
        <ele>2193.6000976562</ele>
        <time>2011-02-07T10:11:37.000Z</time>
      </trkpt>
      <trkpt lat="45.31274" lon="6.20612">
        <ele>2195.3999023438</ele>
        <time>2011-02-07T10:11:47.000Z</time>
      </trkpt>
      <trkpt lat="45.31271" lon="6.20604">
        <ele>2195.6000976562</ele>
        <time>2011-02-07T10:12:10.000Z</time>
      </trkpt>
      <trkpt lat="45.31271" lon="6.206">
        <ele>2196.8000488281</ele>
        <time>2011-02-07T10:12:17.000Z</time>
      </trkpt>
      <trkpt lat="45.31282" lon="6.20587">
        <ele>2198.6000976562</ele>
        <time>2011-02-07T10:16:59.000Z</time>
      </trkpt>
      <trkpt lat="45.31283" lon="6.20579">
        <ele>2199.1999511719</ele>
        <time>2011-02-07T10:17:24.000Z</time>
      </trkpt>
      <trkpt lat="45.31286" lon="6.20576">
        <ele>2199.3999023438</ele>
        <time>2011-02-07T10:17:31.000Z</time>
      </trkpt>
      <trkpt lat="45.3129" lon="6.20571">
        <ele>2200</ele>
        <time>2011-02-07T10:17:38.000Z</time>
      </trkpt>
      <trkpt lat="45.31291" lon="6.20569">
        <ele>2200.1999511719</ele>
        <time>2011-02-07T10:17:42.000Z</time>
      </trkpt>
      <trkpt lat="45.31294" lon="6.20564">
        <ele>2201.6000976562</ele>
        <time>2011-02-07T10:17:50.000Z</time>
      </trkpt>
      <trkpt lat="45.31297" lon="6.20555">
        <ele>2202.8000488281</ele>
        <time>2011-02-07T10:18:00.000Z</time>
      </trkpt>
      <trkpt lat="45.31298" lon="6.20552">
        <ele>2203.8000488281</ele>
        <time>2011-02-07T10:18:04.000Z</time>
      </trkpt>
      <trkpt lat="45.31304" lon="6.20539">
        <ele>2207.3999023438</ele>
        <time>2011-02-07T10:18:21.000Z</time>
      </trkpt>
      <trkpt lat="45.31307" lon="6.20533">
        <ele>2208.8000488281</ele>
        <time>2011-02-07T10:18:28.000Z</time>
      </trkpt>
      <trkpt lat="45.31309" lon="6.20529">
        <ele>2210</ele>
        <time>2011-02-07T10:18:34.000Z</time>
      </trkpt>
      <trkpt lat="45.3131" lon="6.20525">
        <ele>2210.8000488281</ele>
        <time>2011-02-07T10:18:38.000Z</time>
      </trkpt>
      <trkpt lat="45.31311" lon="6.20518">
        <ele>2211.6000976562</ele>
        <time>2011-02-07T10:18:44.000Z</time>
      </trkpt>
      <trkpt lat="45.31311" lon="6.20515">
        <ele>2212.3999023438</ele>
        <time>2011-02-07T10:18:48.000Z</time>
      </trkpt>
      <trkpt lat="45.31313" lon="6.20508">
        <ele>2213</ele>
        <time>2011-02-07T10:18:54.000Z</time>
      </trkpt>
      <trkpt lat="45.31314" lon="6.20506">
        <ele>2213.6000976562</ele>
        <time>2011-02-07T10:18:56.000Z</time>
      </trkpt>
      <trkpt lat="45.31316" lon="6.205">
        <ele>2214.6000976562</ele>
        <time>2011-02-07T10:19:02.000Z</time>
      </trkpt>
      <trkpt lat="45.31316" lon="6.20498">
        <ele>2215</ele>
        <time>2011-02-07T10:19:04.000Z</time>
      </trkpt>
      <trkpt lat="45.31317" lon="6.20495">
        <ele>2216</ele>
        <time>2011-02-07T10:19:08.000Z</time>
      </trkpt>
      <trkpt lat="45.31316" lon="6.20492">
        <ele>2217.1999511719</ele>
        <time>2011-02-07T10:19:14.000Z</time>
      </trkpt>
      <trkpt lat="45.31317" lon="6.20485">
        <ele>2218.6000976562</ele>
        <time>2011-02-07T10:19:22.000Z</time>
      </trkpt>
      <trkpt lat="45.31319" lon="6.20477">
        <ele>2219.8000488281</ele>
        <time>2011-02-07T10:19:28.000Z</time>
      </trkpt>
      <trkpt lat="45.31318" lon="6.2047">
        <ele>2221.8000488281</ele>
        <time>2011-02-07T10:19:39.000Z</time>
      </trkpt>
      <trkpt lat="45.31317" lon="6.20466">
        <ele>2223</ele>
        <time>2011-02-07T10:19:45.000Z</time>
      </trkpt>
      <trkpt lat="45.31316" lon="6.20461">
        <ele>2224.1999511719</ele>
        <time>2011-02-07T10:19:52.000Z</time>
      </trkpt>
      <trkpt lat="45.31315" lon="6.20456">
        <ele>2226</ele>
        <time>2011-02-07T10:19:59.000Z</time>
      </trkpt>
      <trkpt lat="45.31315" lon="6.2045">
        <ele>2227.3999023438</ele>
        <time>2011-02-07T10:20:07.000Z</time>
      </trkpt>
      <trkpt lat="45.31316" lon="6.20444">
        <ele>2228.1999511719</ele>
        <time>2011-02-07T10:20:12.000Z</time>
      </trkpt>
      <trkpt lat="45.31317" lon="6.20438">
        <ele>2229</ele>
        <time>2011-02-07T10:20:21.000Z</time>
      </trkpt>
      <trkpt lat="45.31318" lon="6.20432">
        <ele>2229.8000488281</ele>
        <time>2011-02-07T10:20:27.000Z</time>
      </trkpt>
      <trkpt lat="45.31319" lon="6.20429">
        <ele>2231</ele>
        <time>2011-02-07T10:20:31.000Z</time>
      </trkpt>
      <trkpt lat="45.31319" lon="6.20425">
        <ele>2232.1999511719</ele>
        <time>2011-02-07T10:20:35.000Z</time>
      </trkpt>
      <trkpt lat="45.31321" lon="6.20419">
        <ele>2232.8000488281</ele>
        <time>2011-02-07T10:20:40.000Z</time>
      </trkpt>
      <trkpt lat="45.31323" lon="6.20413">
        <ele>2233.6000976562</ele>
        <time>2011-02-07T10:20:45.000Z</time>
      </trkpt>
      <trkpt lat="45.31323" lon="6.20409">
        <ele>2234.8000488281</ele>
        <time>2011-02-07T10:20:51.000Z</time>
      </trkpt>
      <trkpt lat="45.31326" lon="6.20404">
        <ele>2236.3999023438</ele>
        <time>2011-02-07T10:20:59.000Z</time>
      </trkpt>
      <trkpt lat="45.31331" lon="6.20394">
        <ele>2237.6000976562</ele>
        <time>2011-02-07T10:21:07.000Z</time>
      </trkpt>
      <trkpt lat="45.31333" lon="6.20386">
        <ele>2239.1999511719</ele>
        <time>2011-02-07T10:21:16.000Z</time>
      </trkpt>
      <trkpt lat="45.31335" lon="6.20379">
        <ele>2240.3999023438</ele>
        <time>2011-02-07T10:21:25.000Z</time>
      </trkpt>
      <trkpt lat="45.31335" lon="6.20375">
        <ele>2242</ele>
        <time>2011-02-07T10:21:32.000Z</time>
      </trkpt>
      <trkpt lat="45.31335" lon="6.20373">
        <ele>2242.6000976562</ele>
        <time>2011-02-07T10:21:35.000Z</time>
      </trkpt>
      <trkpt lat="45.31335" lon="6.2037">
        <ele>2243.8000488281</ele>
        <time>2011-02-07T10:21:40.000Z</time>
      </trkpt>
      <trkpt lat="45.31336" lon="6.20365">
        <ele>2244.3999023438</ele>
        <time>2011-02-07T10:21:47.000Z</time>
      </trkpt>
      <trkpt lat="45.31336" lon="6.20359">
        <ele>2245.6000976562</ele>
        <time>2011-02-07T10:21:54.000Z</time>
      </trkpt>
      <trkpt lat="45.31336" lon="6.20355">
        <ele>2246.3999023438</ele>
        <time>2011-02-07T10:21:59.000Z</time>
      </trkpt>
      <trkpt lat="45.31337" lon="6.20349">
        <ele>2247.1999511719</ele>
        <time>2011-02-07T10:22:05.000Z</time>
      </trkpt>
      <trkpt lat="45.31339" lon="6.20343">
        <ele>2248.3999023438</ele>
        <time>2011-02-07T10:22:10.000Z</time>
      </trkpt>
      <trkpt lat="45.31339" lon="6.20343">
        <ele>2248.8000488281</ele>
        <time>2011-02-07T10:22:11.000Z</time>
      </trkpt>
      <trkpt lat="45.31341" lon="6.20336">
        <ele>2249.8000488281</ele>
        <time>2011-02-07T10:22:17.000Z</time>
      </trkpt>
      <trkpt lat="45.31345" lon="6.20322">
        <ele>2251.3999023438</ele>
        <time>2011-02-07T10:22:27.000Z</time>
      </trkpt>
      <trkpt lat="45.31348" lon="6.20314">
        <ele>2252.8000488281</ele>
        <time>2011-02-07T10:22:34.000Z</time>
      </trkpt>
      <trkpt lat="45.31348" lon="6.20309">
        <ele>2253.6000976562</ele>
        <time>2011-02-07T10:22:39.000Z</time>
      </trkpt>
      <trkpt lat="45.31347" lon="6.20306">
        <ele>2254</ele>
        <time>2011-02-07T10:22:42.000Z</time>
      </trkpt>
      <trkpt lat="45.31345" lon="6.203">
        <ele>2254.8000488281</ele>
        <time>2011-02-07T10:22:49.000Z</time>
      </trkpt>
      <trkpt lat="45.31343" lon="6.20294">
        <ele>2256.1999511719</ele>
        <time>2011-02-07T10:22:58.000Z</time>
      </trkpt>
      <trkpt lat="45.31339" lon="6.20282">
        <ele>2258.1999511719</ele>
        <time>2011-02-07T10:23:09.000Z</time>
      </trkpt>
      <trkpt lat="45.31341" lon="6.20271">
        <ele>2260</ele>
        <time>2011-02-07T10:23:20.000Z</time>
      </trkpt>
      <trkpt lat="45.31342" lon="6.20266">
        <ele>2261.6000976562</ele>
        <time>2011-02-07T10:23:25.000Z</time>
      </trkpt>
      <trkpt lat="45.31343" lon="6.20261">
        <ele>2262.1999511719</ele>
        <time>2011-02-07T10:23:29.000Z</time>
      </trkpt>
      <trkpt lat="45.31343" lon="6.20255">
        <ele>2263.8000488281</ele>
        <time>2011-02-07T10:23:37.000Z</time>
      </trkpt>
      <trkpt lat="45.31341" lon="6.20254">
        <ele>2264.6000976562</ele>
        <time>2011-02-07T10:23:47.000Z</time>
      </trkpt>
      <trkpt lat="45.31346" lon="6.20258">
        <ele>2266</ele>
        <time>2011-02-07T10:23:54.000Z</time>
      </trkpt>
      <trkpt lat="45.3135" lon="6.20258">
        <ele>2267</ele>
        <time>2011-02-07T10:23:59.000Z</time>
      </trkpt>
      <trkpt lat="45.3135" lon="6.20258">
        <ele>2267.1999511719</ele>
        <time>2011-02-07T10:24:00.000Z</time>
      </trkpt>
      <trkpt lat="45.31353" lon="6.20247">
        <ele>2268.1999511719</ele>
        <time>2011-02-07T10:24:11.000Z</time>
      </trkpt>
      <trkpt lat="45.31353" lon="6.20245">
        <ele>2268.8000488281</ele>
        <time>2011-02-07T10:24:14.000Z</time>
      </trkpt>
      <trkpt lat="45.31352" lon="6.20242">
        <ele>2269.8000488281</ele>
        <time>2011-02-07T10:24:19.000Z</time>
      </trkpt>
      <trkpt lat="45.3135" lon="6.20237">
        <ele>2271.6000976562</ele>
        <time>2011-02-07T10:24:28.000Z</time>
      </trkpt>
      <trkpt lat="45.3135" lon="6.20232">
        <ele>2272.6000976562</ele>
        <time>2011-02-07T10:24:34.000Z</time>
      </trkpt>
      <trkpt lat="45.31349" lon="6.2023">
        <ele>2273</ele>
        <time>2011-02-07T10:24:36.000Z</time>
      </trkpt>
      <trkpt lat="45.3135" lon="6.20224">
        <ele>2274.1999511719</ele>
        <time>2011-02-07T10:24:43.000Z</time>
      </trkpt>
      <trkpt lat="45.3135" lon="6.20223">
        <ele>2274.3999023438</ele>
        <time>2011-02-07T10:24:44.000Z</time>
      </trkpt>
      <trkpt lat="45.31351" lon="6.20215">
        <ele>2275.8000488281</ele>
        <time>2011-02-07T10:24:53.000Z</time>
      </trkpt>
      <trkpt lat="45.31353" lon="6.2021">
        <ele>2276.6000976562</ele>
        <time>2011-02-07T10:24:57.000Z</time>
      </trkpt>
      <trkpt lat="45.3135" lon="6.20205">
        <ele>2278.3999023438</ele>
        <time>2011-02-07T10:25:05.000Z</time>
      </trkpt>
      <trkpt lat="45.3135" lon="6.20196">
        <ele>2280</ele>
        <time>2011-02-07T10:25:14.000Z</time>
      </trkpt>
      <trkpt lat="45.31349" lon="6.20187">
        <ele>2282</ele>
        <time>2011-02-07T10:25:25.000Z</time>
      </trkpt>
      <trkpt lat="45.31348" lon="6.20186">
        <ele>2282.3999023438</ele>
        <time>2011-02-07T10:25:26.000Z</time>
      </trkpt>
      <trkpt lat="45.31345" lon="6.20181">
        <ele>2284</ele>
        <time>2011-02-07T10:25:34.000Z</time>
      </trkpt>
      <trkpt lat="45.31343" lon="6.20177">
        <ele>2285.6000976562</ele>
        <time>2011-02-07T10:25:42.000Z</time>
      </trkpt>
      <trkpt lat="45.31343" lon="6.20176">
        <ele>2285.8000488281</ele>
        <time>2011-02-07T10:25:43.000Z</time>
      </trkpt>
      <trkpt lat="45.31342" lon="6.20169">
        <ele>2287.3999023438</ele>
        <time>2011-02-07T10:25:53.000Z</time>
      </trkpt>
      <trkpt lat="45.31342" lon="6.20161">
        <ele>2289.3999023438</ele>
        <time>2011-02-07T10:26:03.000Z</time>
      </trkpt>
      <trkpt lat="45.31343" lon="6.20153">
        <ele>2291</ele>
        <time>2011-02-07T10:26:11.000Z</time>
      </trkpt>
      <trkpt lat="45.31343" lon="6.20153">
        <ele>2291.1999511719</ele>
        <time>2011-02-07T10:26:12.000Z</time>
      </trkpt>
      <trkpt lat="45.31345" lon="6.20145">
        <ele>2292.8000488281</ele>
        <time>2011-02-07T10:26:19.000Z</time>
      </trkpt>
      <trkpt lat="45.31343" lon="6.20139">
        <ele>2294</ele>
        <time>2011-02-07T10:26:26.000Z</time>
      </trkpt>
      <trkpt lat="45.31342" lon="6.20133">
        <ele>2295.1999511719</ele>
        <time>2011-02-07T10:26:32.000Z</time>
      </trkpt>
      <trkpt lat="45.3134" lon="6.20127">
        <ele>2297</ele>
        <time>2011-02-07T10:26:42.000Z</time>
      </trkpt>
      <trkpt lat="45.3134" lon="6.2012">
        <ele>2299.1999511719</ele>
        <time>2011-02-07T10:26:51.000Z</time>
      </trkpt>
      <trkpt lat="45.31341" lon="6.20115">
        <ele>2299.8000488281</ele>
        <time>2011-02-07T10:26:55.000Z</time>
      </trkpt>
      <trkpt lat="45.31343" lon="6.20108">
        <ele>2301.1999511719</ele>
        <time>2011-02-07T10:27:03.000Z</time>
      </trkpt>
      <trkpt lat="45.31344" lon="6.20105">
        <ele>2301.8000488281</ele>
        <time>2011-02-07T10:27:06.000Z</time>
      </trkpt>
      <trkpt lat="45.31346" lon="6.20097">
        <ele>2304.8000488281</ele>
        <time>2011-02-07T10:27:19.000Z</time>
      </trkpt>
      <trkpt lat="45.31351" lon="6.20077">
        <ele>2308.3999023438</ele>
        <time>2011-02-07T10:27:54.000Z</time>
      </trkpt>
      <trkpt lat="45.31353" lon="6.20068">
        <ele>2310.3999023438</ele>
        <time>2011-02-07T10:28:05.000Z</time>
      </trkpt>
      <trkpt lat="45.31353" lon="6.20063">
        <ele>2311.6000976562</ele>
        <time>2011-02-07T10:28:11.000Z</time>
      </trkpt>
      <trkpt lat="45.31353" lon="6.20062">
        <ele>2312</ele>
        <time>2011-02-07T10:28:13.000Z</time>
      </trkpt>
      <trkpt lat="45.31352" lon="6.20055">
        <ele>2313.3999023438</ele>
        <time>2011-02-07T10:28:27.000Z</time>
      </trkpt>
      <trkpt lat="45.31353" lon="6.20049">
        <ele>2314.6000976562</ele>
        <time>2011-02-07T10:28:33.000Z</time>
      </trkpt>
      <trkpt lat="45.31352" lon="6.20044">
        <ele>2316</ele>
        <time>2011-02-07T10:28:41.000Z</time>
      </trkpt>
      <trkpt lat="45.31352" lon="6.20042">
        <ele>2316.3999023438</ele>
        <time>2011-02-07T10:28:44.000Z</time>
      </trkpt>
      <trkpt lat="45.31355" lon="6.20027">
        <ele>2321.6000976562</ele>
        <time>2011-02-07T10:29:11.000Z</time>
      </trkpt>
      <trkpt lat="45.31356" lon="6.20023">
        <ele>2322.8000488281</ele>
        <time>2011-02-07T10:29:18.000Z</time>
      </trkpt>
      <trkpt lat="45.31357" lon="6.20019">
        <ele>2323.8000488281</ele>
        <time>2011-02-07T10:29:23.000Z</time>
      </trkpt>
      <trkpt lat="45.31357" lon="6.20018">
        <ele>2323.8000488281</ele>
        <time>2011-02-07T10:29:24.000Z</time>
      </trkpt>
      <trkpt lat="45.31358" lon="6.20013">
        <ele>2325.3999023438</ele>
        <time>2011-02-07T10:29:31.000Z</time>
      </trkpt>
      <trkpt lat="45.31361" lon="6.20004">
        <ele>2326.8000488281</ele>
        <time>2011-02-07T10:29:40.000Z</time>
      </trkpt>
      <trkpt lat="45.31362" lon="6.20001">
        <ele>2327.6000976562</ele>
        <time>2011-02-07T10:29:43.000Z</time>
      </trkpt>
      <trkpt lat="45.31365" lon="6.19993">
        <ele>2328.8000488281</ele>
        <time>2011-02-07T10:29:53.000Z</time>
      </trkpt>
      <trkpt lat="45.31368" lon="6.19989">
        <ele>2329.3999023438</ele>
        <time>2011-02-07T10:29:57.000Z</time>
      </trkpt>
      <trkpt lat="45.31372" lon="6.19975">
        <ele>2332.6000976562</ele>
        <time>2011-02-07T10:30:11.000Z</time>
      </trkpt>
      <trkpt lat="45.31372" lon="6.19974">
        <ele>2332.6000976562</ele>
        <time>2011-02-07T10:30:12.000Z</time>
      </trkpt>
      <trkpt lat="45.31372" lon="6.19973">
        <ele>2333.1999511719</ele>
        <time>2011-02-07T10:30:15.000Z</time>
      </trkpt>
      <trkpt lat="45.31374" lon="6.19964">
        <ele>2335.8000488281</ele>
        <time>2011-02-07T10:30:28.000Z</time>
      </trkpt>
      <trkpt lat="45.31375" lon="6.19963">
        <ele>2335.8000488281</ele>
        <time>2011-02-07T10:30:29.000Z</time>
      </trkpt>
      <trkpt lat="45.31374" lon="6.19962">
        <ele>2336.6000976562</ele>
        <time>2011-02-07T10:30:32.000Z</time>
      </trkpt>
      <trkpt lat="45.31379" lon="6.19943">
        <ele>2339.1999511719</ele>
        <time>2011-02-07T10:31:06.000Z</time>
      </trkpt>
      <trkpt lat="45.31379" lon="6.19943">
        <ele>2339.6000976562</ele>
        <time>2011-02-07T10:31:07.000Z</time>
      </trkpt>
      <trkpt lat="45.3138" lon="6.19938">
        <ele>2340.6000976562</ele>
        <time>2011-02-07T10:31:14.000Z</time>
      </trkpt>
      <trkpt lat="45.31382" lon="6.19929">
        <ele>2342.6000976562</ele>
        <time>2011-02-07T10:31:53.000Z</time>
      </trkpt>
      <trkpt lat="45.31381" lon="6.19928">
        <ele>2342.6000976562</ele>
        <time>2011-02-07T10:31:54.000Z</time>
      </trkpt>
      <trkpt lat="45.31381" lon="6.19925">
        <ele>2344</ele>
        <time>2011-02-07T10:31:59.000Z</time>
      </trkpt>
      <trkpt lat="45.31381" lon="6.19922">
        <ele>2345.1999511719</ele>
        <time>2011-02-07T10:32:05.000Z</time>
      </trkpt>
      <trkpt lat="45.31381" lon="6.19921">
        <ele>2345.3999023438</ele>
        <time>2011-02-07T10:32:06.000Z</time>
      </trkpt>
      <trkpt lat="45.31382" lon="6.19921">
        <ele>2345.6000976562</ele>
        <time>2011-02-07T10:32:07.000Z</time>
      </trkpt>
      <trkpt lat="45.31384" lon="6.19909">
        <ele>2348.6000976562</ele>
        <time>2011-02-07T10:32:23.000Z</time>
      </trkpt>
      <trkpt lat="45.31385" lon="6.19908">
        <ele>2348.8000488281</ele>
        <time>2011-02-07T10:32:24.000Z</time>
      </trkpt>
      <trkpt lat="45.31383" lon="6.19905">
        <ele>2349.8000488281</ele>
        <time>2011-02-07T10:32:31.000Z</time>
      </trkpt>
      <trkpt lat="45.31382" lon="6.19905">
        <ele>2350.8000488281</ele>
        <time>2011-02-07T10:32:35.000Z</time>
      </trkpt>
      <trkpt lat="45.31373" lon="6.19905">
        <ele>2352</ele>
        <time>2011-02-07T10:33:02.000Z</time>
      </trkpt>
      <trkpt lat="45.31373" lon="6.19898">
        <ele>2354.1999511719</ele>
        <time>2011-02-07T10:33:11.000Z</time>
      </trkpt>
      <trkpt lat="45.31373" lon="6.19891">
        <ele>2355.8000488281</ele>
        <time>2011-02-07T10:33:19.000Z</time>
      </trkpt>
      <trkpt lat="45.31373" lon="6.19889">
        <ele>2356.8000488281</ele>
        <time>2011-02-07T10:33:23.000Z</time>
      </trkpt>
      <trkpt lat="45.31375" lon="6.1987">
        <ele>2362.1999511719</ele>
        <time>2011-02-07T10:33:48.000Z</time>
      </trkpt>
      <trkpt lat="45.31376" lon="6.19868">
        <ele>2362.6000976562</ele>
        <time>2011-02-07T10:33:50.000Z</time>
      </trkpt>
      <trkpt lat="45.3138" lon="6.19859">
        <ele>2364</ele>
        <time>2011-02-07T10:33:57.000Z</time>
      </trkpt>
      <trkpt lat="45.31381" lon="6.19858">
        <ele>2364.3999023438</ele>
        <time>2011-02-07T10:33:58.000Z</time>
      </trkpt>
      <trkpt lat="45.31374" lon="6.19858">
        <ele>2365.6000976562</ele>
        <time>2011-02-07T10:34:23.000Z</time>
      </trkpt>
      <trkpt lat="45.31376" lon="6.19855">
        <ele>2366.6000976562</ele>
        <time>2011-02-07T10:34:28.000Z</time>
      </trkpt>
      <trkpt lat="45.31376" lon="6.19854">
        <ele>2366.8000488281</ele>
        <time>2011-02-07T10:34:29.000Z</time>
      </trkpt>
      <trkpt lat="45.31377" lon="6.19845">
        <ele>2369.6000976562</ele>
        <time>2011-02-07T10:34:42.000Z</time>
      </trkpt>
      <trkpt lat="45.31379" lon="6.19839">
        <ele>2371.1999511719</ele>
        <time>2011-02-07T10:34:49.000Z</time>
      </trkpt>
      <trkpt lat="45.31382" lon="6.19833">
        <ele>2372.3999023438</ele>
        <time>2011-02-07T10:34:55.000Z</time>
      </trkpt>
      <trkpt lat="45.31386" lon="6.19826">
        <ele>2373.8000488281</ele>
        <time>2011-02-07T10:35:01.000Z</time>
      </trkpt>
      <trkpt lat="45.31391" lon="6.19815">
        <ele>2376</ele>
        <time>2011-02-07T10:35:11.000Z</time>
      </trkpt>
      <trkpt lat="45.31393" lon="6.19811">
        <ele>2377</ele>
        <time>2011-02-07T10:35:15.000Z</time>
      </trkpt>
      <trkpt lat="45.31393" lon="6.19806">
        <ele>2378.1999511719</ele>
        <time>2011-02-07T10:35:21.000Z</time>
      </trkpt>
      <trkpt lat="45.31394" lon="6.19803">
        <ele>2379</ele>
        <time>2011-02-07T10:35:25.000Z</time>
      </trkpt>
      <trkpt lat="45.31394" lon="6.19802">
        <ele>2379.8000488281</ele>
        <time>2011-02-07T10:35:27.000Z</time>
      </trkpt>
      <trkpt lat="45.31393" lon="6.198">
        <ele>2380.3999023438</ele>
        <time>2011-02-07T10:35:31.000Z</time>
      </trkpt>
      <trkpt lat="45.3139" lon="6.19794">
        <ele>2382</ele>
        <time>2011-02-07T10:35:53.000Z</time>
      </trkpt>
      <trkpt lat="45.31389" lon="6.19787">
        <ele>2383.8000488281</ele>
        <time>2011-02-07T10:36:02.000Z</time>
      </trkpt>
      <trkpt lat="45.31388" lon="6.19781">
        <ele>2385.3999023438</ele>
        <time>2011-02-07T10:36:11.000Z</time>
      </trkpt>
      <trkpt lat="45.31386" lon="6.19775">
        <ele>2386.8000488281</ele>
        <time>2011-02-07T10:36:19.000Z</time>
      </trkpt>
      <trkpt lat="45.31386" lon="6.19774">
        <ele>2387.6000976562</ele>
        <time>2011-02-07T10:36:22.000Z</time>
      </trkpt>
      <trkpt lat="45.31384" lon="6.19773">
        <ele>2388.1999511719</ele>
        <time>2011-02-07T10:36:26.000Z</time>
      </trkpt>
      <trkpt lat="45.31381" lon="6.1977">
        <ele>2389</ele>
        <time>2011-02-07T10:36:32.000Z</time>
      </trkpt>
      <trkpt lat="45.3138" lon="6.1977">
        <ele>2389.1999511719</ele>
        <time>2011-02-07T10:36:34.000Z</time>
      </trkpt>
      <trkpt lat="45.31379" lon="6.19767">
        <ele>2392.1999511719</ele>
        <time>2011-02-07T10:37:00.000Z</time>
      </trkpt>
      <trkpt lat="45.31382" lon="6.19767">
        <ele>2392.6000976562</ele>
        <time>2011-02-07T10:37:05.000Z</time>
      </trkpt>
      <trkpt lat="45.3138" lon="6.19761">
        <ele>2394.3999023438</ele>
        <time>2011-02-07T10:37:15.000Z</time>
      </trkpt>
      <trkpt lat="45.31379" lon="6.19761">
        <ele>2394.6000976562</ele>
        <time>2011-02-07T10:37:16.000Z</time>
      </trkpt>
      <trkpt lat="45.31376" lon="6.19756">
        <ele>2396.3999023438</ele>
        <time>2011-02-07T10:37:25.000Z</time>
      </trkpt>
      <trkpt lat="45.31373" lon="6.19751">
        <ele>2397.6000976562</ele>
        <time>2011-02-07T10:37:33.000Z</time>
      </trkpt>
      <trkpt lat="45.31369" lon="6.19747">
        <ele>2399.6000976562</ele>
        <time>2011-02-07T10:37:42.000Z</time>
      </trkpt>
      <trkpt lat="45.31364" lon="6.19742">
        <ele>2400.6000976562</ele>
        <time>2011-02-07T10:38:03.000Z</time>
      </trkpt>
      <trkpt lat="45.31362" lon="6.19741">
        <ele>2401</ele>
        <time>2011-02-07T10:38:06.000Z</time>
      </trkpt>
      <trkpt lat="45.31359" lon="6.19739">
        <ele>2401</ele>
        <time>2011-02-07T10:38:12.000Z</time>
      </trkpt>
      <trkpt lat="45.31356" lon="6.19737">
        <ele>2401.6000976562</ele>
        <time>2011-02-07T10:38:18.000Z</time>
      </trkpt>
      <trkpt lat="45.31357" lon="6.19731">
        <ele>2403</ele>
        <time>2011-02-07T10:39:01.000Z</time>
      </trkpt>
      <trkpt lat="45.31358" lon="6.19731">
        <ele>2403.1999511719</ele>
        <time>2011-02-07T10:39:02.000Z</time>
      </trkpt>
      <trkpt lat="45.31361" lon="6.19728">
        <ele>2404.6000976562</ele>
        <time>2011-02-07T10:39:08.000Z</time>
      </trkpt>
      <trkpt lat="45.31363" lon="6.19725">
        <ele>2406.3999023438</ele>
        <time>2011-02-07T10:39:28.000Z</time>
      </trkpt>
      <trkpt lat="45.3136" lon="6.19721">
        <ele>2411.1999511719</ele>
        <time>2011-02-07T10:42:37.000Z</time>
      </trkpt>
      <trkpt lat="45.31357" lon="6.19719">
        <ele>2411.6000976562</ele>
        <time>2011-02-07T10:42:43.000Z</time>
      </trkpt>
      <trkpt lat="45.31357" lon="6.19719">
        <ele>2411.8000488281</ele>
        <time>2011-02-07T10:42:44.000Z</time>
      </trkpt>
      <trkpt lat="45.31362" lon="6.19701">
        <ele>2417</ele>
        <time>2011-02-07T10:44:04.000Z</time>
      </trkpt>
      <trkpt lat="45.31359" lon="6.19701">
        <ele>2418</ele>
        <time>2011-02-07T10:44:09.000Z</time>
      </trkpt>
      <trkpt lat="45.31362" lon="6.19697">
        <ele>2418.8000488281</ele>
        <time>2011-02-07T10:45:06.000Z</time>
      </trkpt>
      <trkpt lat="45.31367" lon="6.19693">
        <ele>2419.8000488281</ele>
        <time>2011-02-07T10:45:13.000Z</time>
      </trkpt>
      <trkpt lat="45.31368" lon="6.19692">
        <ele>2420</ele>
        <time>2011-02-07T10:45:16.000Z</time>
      </trkpt>
      <trkpt lat="45.31368" lon="6.19698">
        <ele>2421</ele>
        <time>2011-02-07T10:46:55.000Z</time>
      </trkpt>
      <trkpt lat="45.31366" lon="6.19696">
        <ele>2420.3999023438</ele>
        <time>2011-02-07T10:47:57.000Z</time>
      </trkpt>
      <trkpt lat="45.31363" lon="6.19697">
        <ele>2419.8000488281</ele>
        <time>2011-02-07T10:48:02.000Z</time>
      </trkpt>
      <trkpt lat="45.31363" lon="6.19693">
        <ele>2419.6000976562</ele>
        <time>2011-02-07T10:49:28.000Z</time>
      </trkpt>
      <trkpt lat="45.31366" lon="6.19692">
        <ele>2419.6000976562</ele>
        <time>2011-02-07T10:49:34.000Z</time>
      </trkpt>
      <trkpt lat="45.31364" lon="6.19693">
        <ele>2419.6000976562</ele>
        <time>2011-02-07T10:49:35.000Z</time>
      </trkpt>
      <trkpt lat="45.31365" lon="6.19693">
        <ele>2421.1999511719</ele>
        <time>2011-02-07T10:52:29.000Z</time>
      </trkpt>
      <trkpt lat="45.31364" lon="6.19692">
        <ele>2421</ele>
        <time>2011-02-07T10:52:34.000Z</time>
      </trkpt>
      <trkpt lat="45.31365" lon="6.19695">
        <ele>2421.3999023438</ele>
        <time>2011-02-07T10:52:47.000Z</time>
      </trkpt>
      <trkpt lat="45.31371" lon="6.19701">
        <ele>2422.1999511719</ele>
        <time>2011-02-07T10:52:56.000Z</time>
      </trkpt>
      <trkpt lat="45.31372" lon="6.19702">
        <ele>2422.6000976562</ele>
        <time>2011-02-07T10:52:58.000Z</time>
      </trkpt>
      <trkpt lat="45.31377" lon="6.19703">
        <ele>2423.1999511719</ele>
        <time>2011-02-07T10:53:05.000Z</time>
      </trkpt>
      <trkpt lat="45.31378" lon="6.19703">
        <ele>2423.3999023438</ele>
        <time>2011-02-07T10:53:07.000Z</time>
      </trkpt>
      <trkpt lat="45.31376" lon="6.19702">
        <ele>2423.3999023438</ele>
        <time>2011-02-07T10:53:23.000Z</time>
      </trkpt>
      <trkpt lat="45.31369" lon="6.19699">
        <ele>2422.3999023438</ele>
        <time>2011-02-07T10:53:31.000Z</time>
      </trkpt>
      <trkpt lat="45.31364" lon="6.19694">
        <ele>2421</ele>
        <time>2011-02-07T10:53:38.000Z</time>
      </trkpt>
      <trkpt lat="45.31361" lon="6.19688">
        <ele>2419.1999511719</ele>
        <time>2011-02-07T10:56:00.000Z</time>
      </trkpt>
      <trkpt lat="45.31362" lon="6.19688">
        <ele>2419.6000976562</ele>
        <time>2011-02-07T10:56:01.000Z</time>
      </trkpt>
      <trkpt lat="45.31363" lon="6.1969">
        <ele>2422</ele>
        <time>2011-02-07T10:56:31.000Z</time>
      </trkpt>
      <trkpt lat="45.31361" lon="6.19691">
        <ele>2422.1999511719</ele>
        <time>2011-02-07T10:56:54.000Z</time>
      </trkpt>
      <trkpt lat="45.3136" lon="6.19691">
        <ele>2421.8000488281</ele>
        <time>2011-02-07T10:56:55.000Z</time>
      </trkpt>
      <trkpt lat="45.31361" lon="6.19695">
        <ele>2424.1999511719</ele>
        <time>2011-02-07T10:57:09.000Z</time>
      </trkpt>
      <trkpt lat="45.31365" lon="6.19691">
        <ele>2425.6000976562</ele>
        <time>2011-02-07T10:58:50.000Z</time>
      </trkpt>
      <trkpt lat="45.31365" lon="6.19693">
        <ele>2422.1999511719</ele>
        <time>2011-02-07T10:59:33.000Z</time>
      </trkpt>
      <trkpt lat="45.31371" lon="6.19698">
        <ele>2423.1999511719</ele>
        <time>2011-02-07T10:59:54.000Z</time>
      </trkpt>
      <trkpt lat="45.31372" lon="6.19699">
        <ele>2423.6000976562</ele>
        <time>2011-02-07T10:59:58.000Z</time>
      </trkpt>
      <trkpt lat="45.31377" lon="6.19702">
        <ele>2425.1999511719</ele>
        <time>2011-02-07T11:00:13.000Z</time>
      </trkpt>
      <trkpt lat="45.31377" lon="6.19702">
        <ele>2425.3999023438</ele>
        <time>2011-02-07T11:00:14.000Z</time>
      </trkpt>
      <trkpt lat="45.31383" lon="6.19706">
        <ele>2425.3999023438</ele>
        <time>2011-02-07T11:00:27.000Z</time>
      </trkpt>
      <trkpt lat="45.31386" lon="6.19711">
        <ele>2425.3999023438</ele>
        <time>2011-02-07T11:00:40.000Z</time>
      </trkpt>
      <trkpt lat="45.31389" lon="6.19715">
        <ele>2424.1999511719</ele>
        <time>2011-02-07T11:00:45.000Z</time>
      </trkpt>
      <trkpt lat="45.31391" lon="6.19716">
        <ele>2423.8000488281</ele>
        <time>2011-02-07T11:00:48.000Z</time>
      </trkpt>
      <trkpt lat="45.31392" lon="6.19716">
        <ele>2423.1999511719</ele>
        <time>2011-02-07T11:00:51.000Z</time>
      </trkpt>
      <trkpt lat="45.31392" lon="6.19718">
        <ele>2421.8000488281</ele>
        <time>2011-02-07T11:01:01.000Z</time>
      </trkpt>
      <trkpt lat="45.31394" lon="6.19718">
        <ele>2421</ele>
        <time>2011-02-07T11:01:05.000Z</time>
      </trkpt>
      <trkpt lat="45.31398" lon="6.19719">
        <ele>2420</ele>
        <time>2011-02-07T11:01:12.000Z</time>
      </trkpt>
      <trkpt lat="45.31402" lon="6.19726">
        <ele>2418.6000976562</ele>
        <time>2011-02-07T11:01:17.000Z</time>
      </trkpt>
      <trkpt lat="45.31409" lon="6.19725">
        <ele>2417.8000488281</ele>
        <time>2011-02-07T11:01:53.000Z</time>
      </trkpt>
      <trkpt lat="45.31422" lon="6.19731">
        <ele>2416</ele>
        <time>2011-02-07T11:02:00.000Z</time>
      </trkpt>
      <trkpt lat="45.31435" lon="6.19731">
        <ele>2413.3999023438</ele>
        <time>2011-02-07T11:02:04.000Z</time>
      </trkpt>
      <trkpt lat="45.3145" lon="6.19734">
        <ele>2411.3999023438</ele>
        <time>2011-02-07T11:02:08.000Z</time>
      </trkpt>
      <trkpt lat="45.3146" lon="6.19736">
        <ele>2410</ele>
        <time>2011-02-07T11:02:13.000Z</time>
      </trkpt>
      <trkpt lat="45.31466" lon="6.1973">
        <ele>2408.8000488281</ele>
        <time>2011-02-07T11:02:37.000Z</time>
      </trkpt>
      <trkpt lat="45.31476" lon="6.19729">
        <ele>2407.6000976562</ele>
        <time>2011-02-07T11:02:40.000Z</time>
      </trkpt>
      <trkpt lat="45.31495" lon="6.19721">
        <ele>2405.1999511719</ele>
        <time>2011-02-07T11:02:46.000Z</time>
      </trkpt>
      <trkpt lat="45.31513" lon="6.19711">
        <ele>2402.1999511719</ele>
        <time>2011-02-07T11:02:50.000Z</time>
      </trkpt>
      <trkpt lat="45.31516" lon="6.19707">
        <ele>2402.1999511719</ele>
        <time>2011-02-07T11:02:51.000Z</time>
      </trkpt>
      <trkpt lat="45.31519" lon="6.19702">
        <ele>2402.8000488281</ele>
        <time>2011-02-07T11:02:55.000Z</time>
      </trkpt>
      <trkpt lat="45.31523" lon="6.19699">
        <ele>2403</ele>
        <time>2011-02-07T11:03:02.000Z</time>
      </trkpt>
      <trkpt lat="45.31523" lon="6.19699">
        <ele>2403</ele>
        <time>2011-02-07T11:03:03.000Z</time>
      </trkpt>
      <trkpt lat="45.31529" lon="6.19696">
        <ele>2402.6000976562</ele>
        <time>2011-02-07T11:03:24.000Z</time>
      </trkpt>
      <trkpt lat="45.31536" lon="6.19684">
        <ele>2401.6000976562</ele>
        <time>2011-02-07T11:03:29.000Z</time>
      </trkpt>
      <trkpt lat="45.31553" lon="6.19652">
        <ele>2399.1999511719</ele>
        <time>2011-02-07T11:03:36.000Z</time>
      </trkpt>
      <trkpt lat="45.31556" lon="6.19647">
        <ele>2398.1999511719</ele>
        <time>2011-02-07T11:03:37.000Z</time>
      </trkpt>
      <trkpt lat="45.31564" lon="6.19626">
        <ele>2396.3999023438</ele>
        <time>2011-02-07T11:03:40.000Z</time>
      </trkpt>
      <trkpt lat="45.31566" lon="6.19621">
        <ele>2396.1999511719</ele>
        <time>2011-02-07T11:03:41.000Z</time>
      </trkpt>
      <trkpt lat="45.31569" lon="6.19601">
        <ele>2396.6000976562</ele>
        <time>2011-02-07T11:03:47.000Z</time>
      </trkpt>
      <trkpt lat="45.31574" lon="6.19583">
        <ele>2395.8000488281</ele>
        <time>2011-02-07T11:03:54.000Z</time>
      </trkpt>
      <trkpt lat="45.31574" lon="6.19578">
        <ele>2395.6000976562</ele>
        <time>2011-02-07T11:03:57.000Z</time>
      </trkpt>
      <trkpt lat="45.31572" lon="6.19579">
        <ele>2394.8000488281</ele>
        <time>2011-02-07T11:09:23.000Z</time>
      </trkpt>
      <trkpt lat="45.31571" lon="6.19578">
        <ele>2394.8000488281</ele>
        <time>2011-02-07T11:09:25.000Z</time>
      </trkpt>
      <trkpt lat="45.31569" lon="6.19576">
        <ele>2394.6000976562</ele>
        <time>2011-02-07T11:09:27.000Z</time>
      </trkpt>
      <trkpt lat="45.31571" lon="6.19578">
        <ele>2396.1999511719</ele>
        <time>2011-02-07T11:09:33.000Z</time>
      </trkpt>
      <trkpt lat="45.31571" lon="6.1958">
        <ele>2396.1999511719</ele>
        <time>2011-02-07T11:09:36.000Z</time>
      </trkpt>
      <trkpt lat="45.31574" lon="6.19582">
        <ele>2397.1999511719</ele>
        <time>2011-02-07T11:09:42.000Z</time>
      </trkpt>
      <trkpt lat="45.31575" lon="6.1958">
        <ele>2396.6000976562</ele>
        <time>2011-02-07T11:10:06.000Z</time>
      </trkpt>
      <trkpt lat="45.31574" lon="6.19578">
        <ele>2397</ele>
        <time>2011-02-07T11:10:07.000Z</time>
      </trkpt>
      <trkpt lat="45.31573" lon="6.19577">
        <ele>2397.3999023438</ele>
        <time>2011-02-07T11:10:48.000Z</time>
      </trkpt>
      <trkpt lat="45.31576" lon="6.19566">
        <ele>2397.6000976562</ele>
        <time>2011-02-07T11:12:05.000Z</time>
      </trkpt>
      <trkpt lat="45.3158" lon="6.19564">
        <ele>2398.6000976562</ele>
        <time>2011-02-07T11:12:11.000Z</time>
      </trkpt>
      <trkpt lat="45.31589" lon="6.19561">
        <ele>2399.3999023438</ele>
        <time>2011-02-07T11:12:27.000Z</time>
      </trkpt>
      <trkpt lat="45.31592" lon="6.1956">
        <ele>2399.6000976562</ele>
        <time>2011-02-07T11:12:31.000Z</time>
      </trkpt>
      <trkpt lat="45.31596" lon="6.19558">
        <ele>2400</ele>
        <time>2011-02-07T11:12:36.000Z</time>
      </trkpt>
      <trkpt lat="45.31599" lon="6.19555">
        <ele>2400.3999023438</ele>
        <time>2011-02-07T11:12:40.000Z</time>
      </trkpt>
      <trkpt lat="45.31603" lon="6.19551">
        <ele>2400.6000976562</ele>
        <time>2011-02-07T11:12:45.000Z</time>
      </trkpt>
      <trkpt lat="45.31608" lon="6.19548">
        <ele>2400.8000488281</ele>
        <time>2011-02-07T11:12:50.000Z</time>
      </trkpt>
      <trkpt lat="45.31614" lon="6.1954">
        <ele>2401.3999023438</ele>
        <time>2011-02-07T11:12:59.000Z</time>
      </trkpt>
      <trkpt lat="45.31618" lon="6.19537">
        <ele>2401.8000488281</ele>
        <time>2011-02-07T11:13:04.000Z</time>
      </trkpt>
      <trkpt lat="45.31619" lon="6.19536">
        <ele>2401.8000488281</ele>
        <time>2011-02-07T11:13:05.000Z</time>
      </trkpt>
      <trkpt lat="45.31624" lon="6.19537">
        <ele>2402.3999023438</ele>
        <time>2011-02-07T11:13:10.000Z</time>
      </trkpt>
      <trkpt lat="45.31627" lon="6.19533">
        <ele>2403</ele>
        <time>2011-02-07T11:13:14.000Z</time>
      </trkpt>
      <trkpt lat="45.3163" lon="6.19525">
        <ele>2404.8000488281</ele>
        <time>2011-02-07T11:13:23.000Z</time>
      </trkpt>
      <trkpt lat="45.31633" lon="6.19518">
        <ele>2406.6000976562</ele>
        <time>2011-02-07T11:13:36.000Z</time>
      </trkpt>
      <trkpt lat="45.31636" lon="6.19515">
        <ele>2407.8000488281</ele>
        <time>2011-02-07T11:13:43.000Z</time>
      </trkpt>
      <trkpt lat="45.31639" lon="6.19511">
        <ele>2409.3999023438</ele>
        <time>2011-02-07T11:13:50.000Z</time>
      </trkpt>
      <trkpt lat="45.31639" lon="6.19508">
        <ele>2410</ele>
        <time>2011-02-07T11:13:54.000Z</time>
      </trkpt>
      <trkpt lat="45.31638" lon="6.19505">
        <ele>2410.3999023438</ele>
        <time>2011-02-07T11:13:57.000Z</time>
      </trkpt>
      <trkpt lat="45.31637" lon="6.19499">
        <ele>2411.1999511719</ele>
        <time>2011-02-07T11:14:04.000Z</time>
      </trkpt>
      <trkpt lat="45.31635" lon="6.19495">
        <ele>2411.8000488281</ele>
        <time>2011-02-07T11:14:10.000Z</time>
      </trkpt>
      <trkpt lat="45.31632" lon="6.19491">
        <ele>2413</ele>
        <time>2011-02-07T11:14:17.000Z</time>
      </trkpt>
      <trkpt lat="45.31632" lon="6.1949">
        <ele>2413</ele>
        <time>2011-02-07T11:14:18.000Z</time>
      </trkpt>
      <trkpt lat="45.31631" lon="6.19488">
        <ele>2413.3999023438</ele>
        <time>2011-02-07T11:14:22.000Z</time>
      </trkpt>
      <trkpt lat="45.31632" lon="6.19485">
        <ele>2414.1999511719</ele>
        <time>2011-02-07T11:14:32.000Z</time>
      </trkpt>
      <trkpt lat="45.31636" lon="6.19482">
        <ele>2415.1999511719</ele>
        <time>2011-02-07T11:14:38.000Z</time>
      </trkpt>
      <trkpt lat="45.31641" lon="6.19479">
        <ele>2415.3999023438</ele>
        <time>2011-02-07T11:14:44.000Z</time>
      </trkpt>
      <trkpt lat="45.31645" lon="6.19476">
        <ele>2415.8000488281</ele>
        <time>2011-02-07T11:14:50.000Z</time>
      </trkpt>
      <trkpt lat="45.31646" lon="6.19477">
        <ele>2415.8000488281</ele>
        <time>2011-02-07T11:14:53.000Z</time>
      </trkpt>
      <trkpt lat="45.31648" lon="6.19471">
        <ele>2415.8000488281</ele>
        <time>2011-02-07T11:15:15.000Z</time>
      </trkpt>
      <trkpt lat="45.31651" lon="6.19468">
        <ele>2415.8000488281</ele>
        <time>2011-02-07T11:15:21.000Z</time>
      </trkpt>
      <trkpt lat="45.31655" lon="6.19464">
        <ele>2415.8000488281</ele>
        <time>2011-02-07T11:15:28.000Z</time>
      </trkpt>
      <trkpt lat="45.3166" lon="6.19457">
        <ele>2415.6000976562</ele>
        <time>2011-02-07T11:15:36.000Z</time>
      </trkpt>
      <trkpt lat="45.31665" lon="6.19452">
        <ele>2415</ele>
        <time>2011-02-07T11:15:43.000Z</time>
      </trkpt>
      <trkpt lat="45.31667" lon="6.19449">
        <ele>2414.3999023438</ele>
        <time>2011-02-07T11:15:48.000Z</time>
      </trkpt>
      <trkpt lat="45.31669" lon="6.19444">
        <ele>2414.3999023438</ele>
        <time>2011-02-07T11:15:53.000Z</time>
      </trkpt>
      <trkpt lat="45.31674" lon="6.19439">
        <ele>2414.3999023438</ele>
        <time>2011-02-07T11:16:01.000Z</time>
      </trkpt>
      <trkpt lat="45.31675" lon="6.19437">
        <ele>2414.3999023438</ele>
        <time>2011-02-07T11:16:03.000Z</time>
      </trkpt>
      <trkpt lat="45.3168" lon="6.19435">
        <ele>2414.6000976562</ele>
        <time>2011-02-07T11:16:09.000Z</time>
      </trkpt>
      <trkpt lat="45.31682" lon="6.19433">
        <ele>2414.8000488281</ele>
        <time>2011-02-07T11:16:12.000Z</time>
      </trkpt>
      <trkpt lat="45.31687" lon="6.19427">
        <ele>2415.8000488281</ele>
        <time>2011-02-07T11:16:21.000Z</time>
      </trkpt>
      <trkpt lat="45.3169" lon="6.19422">
        <ele>2417</ele>
        <time>2011-02-07T11:16:28.000Z</time>
      </trkpt>
      <trkpt lat="45.31694" lon="6.19417">
        <ele>2418</ele>
        <time>2011-02-07T11:16:36.000Z</time>
      </trkpt>
      <trkpt lat="45.31698" lon="6.19412">
        <ele>2419.3999023438</ele>
        <time>2011-02-07T11:16:44.000Z</time>
      </trkpt>
      <trkpt lat="45.31702" lon="6.19405">
        <ele>2420.6000976562</ele>
        <time>2011-02-07T11:16:54.000Z</time>
      </trkpt>
      <trkpt lat="45.31706" lon="6.19401">
        <ele>2421.6000976562</ele>
        <time>2011-02-07T11:17:01.000Z</time>
      </trkpt>
      <trkpt lat="45.31712" lon="6.19397">
        <ele>2422.8000488281</ele>
        <time>2011-02-07T11:17:22.000Z</time>
      </trkpt>
      <trkpt lat="45.31716" lon="6.19391">
        <ele>2424.3999023438</ele>
        <time>2011-02-07T11:17:30.000Z</time>
      </trkpt>
      <trkpt lat="45.31717" lon="6.19388">
        <ele>2425.1999511719</ele>
        <time>2011-02-07T11:17:35.000Z</time>
      </trkpt>
      <trkpt lat="45.3172" lon="6.19382">
        <ele>2426.6000976562</ele>
        <time>2011-02-07T11:17:43.000Z</time>
      </trkpt>
      <trkpt lat="45.31723" lon="6.19376">
        <ele>2427.8000488281</ele>
        <time>2011-02-07T11:17:50.000Z</time>
      </trkpt>
      <trkpt lat="45.31725" lon="6.19367">
        <ele>2429.3999023438</ele>
        <time>2011-02-07T11:18:02.000Z</time>
      </trkpt>
      <trkpt lat="45.31726" lon="6.19362">
        <ele>2430</ele>
        <time>2011-02-07T11:18:08.000Z</time>
      </trkpt>
      <trkpt lat="45.31727" lon="6.19356">
        <ele>2430.8000488281</ele>
        <time>2011-02-07T11:18:15.000Z</time>
      </trkpt>
      <trkpt lat="45.31729" lon="6.19347">
        <ele>2432</ele>
        <time>2011-02-07T11:18:25.000Z</time>
      </trkpt>
      <trkpt lat="45.31732" lon="6.19338">
        <ele>2433.6000976562</ele>
        <time>2011-02-07T11:18:35.000Z</time>
      </trkpt>
      <trkpt lat="45.31735" lon="6.19329">
        <ele>2435</ele>
        <time>2011-02-07T11:18:46.000Z</time>
      </trkpt>
      <trkpt lat="45.31739" lon="6.1932">
        <ele>2436.1999511719</ele>
        <time>2011-02-07T11:18:56.000Z</time>
      </trkpt>
      <trkpt lat="45.31742" lon="6.19312">
        <ele>2437.6000976562</ele>
        <time>2011-02-07T11:19:05.000Z</time>
      </trkpt>
      <trkpt lat="45.31744" lon="6.19308">
        <ele>2438.1999511719</ele>
        <time>2011-02-07T11:19:10.000Z</time>
      </trkpt>
      <trkpt lat="45.31745" lon="6.19303">
        <ele>2438.8000488281</ele>
        <time>2011-02-07T11:19:16.000Z</time>
      </trkpt>
      <trkpt lat="45.31749" lon="6.19299">
        <ele>2439.8000488281</ele>
        <time>2011-02-07T11:19:22.000Z</time>
      </trkpt>
      <trkpt lat="45.3175" lon="6.19298">
        <ele>2440.1999511719</ele>
        <time>2011-02-07T11:19:24.000Z</time>
      </trkpt>
      <trkpt lat="45.31756" lon="6.19293">
        <ele>2441</ele>
        <time>2011-02-07T11:19:33.000Z</time>
      </trkpt>
      <trkpt lat="45.3176" lon="6.19288">
        <ele>2441.1999511719</ele>
        <time>2011-02-07T11:19:41.000Z</time>
      </trkpt>
      <trkpt lat="45.31766" lon="6.19284">
        <ele>2441</ele>
        <time>2011-02-07T11:19:51.000Z</time>
      </trkpt>
      <trkpt lat="45.31772" lon="6.1928">
        <ele>2440.6000976562</ele>
        <time>2011-02-07T11:19:59.000Z</time>
      </trkpt>
      <trkpt lat="45.3178" lon="6.19275">
        <ele>2439.3999023438</ele>
        <time>2011-02-07T11:20:08.000Z</time>
      </trkpt>
      <trkpt lat="45.31784" lon="6.19273">
        <ele>2438.6000976562</ele>
        <time>2011-02-07T11:20:13.000Z</time>
      </trkpt>
      <trkpt lat="45.31789" lon="6.19267">
        <ele>2437.8000488281</ele>
        <time>2011-02-07T11:20:20.000Z</time>
      </trkpt>
      <trkpt lat="45.31795" lon="6.19258">
        <ele>2437</ele>
        <time>2011-02-07T11:20:28.000Z</time>
      </trkpt>
      <trkpt lat="45.318" lon="6.1925">
        <ele>2437</ele>
        <time>2011-02-07T11:20:36.000Z</time>
      </trkpt>
      <trkpt lat="45.31801" lon="6.19242">
        <ele>2438</ele>
        <time>2011-02-07T11:20:45.000Z</time>
      </trkpt>
      <trkpt lat="45.31803" lon="6.19236">
        <ele>2438.6000976562</ele>
        <time>2011-02-07T11:20:53.000Z</time>
      </trkpt>
      <trkpt lat="45.31803" lon="6.19231">
        <ele>2439</ele>
        <time>2011-02-07T11:21:01.000Z</time>
      </trkpt>
      <trkpt lat="45.31805" lon="6.19223">
        <ele>2439.6000976562</ele>
        <time>2011-02-07T11:21:10.000Z</time>
      </trkpt>
      <trkpt lat="45.31805" lon="6.19218">
        <ele>2439.6000976562</ele>
        <time>2011-02-07T11:21:15.000Z</time>
      </trkpt>
      <trkpt lat="45.31807" lon="6.19208">
        <ele>2440</ele>
        <time>2011-02-07T11:21:23.000Z</time>
      </trkpt>
      <trkpt lat="45.3181" lon="6.19197">
        <ele>2440.3999023438</ele>
        <time>2011-02-07T11:21:32.000Z</time>
      </trkpt>
      <trkpt lat="45.31814" lon="6.19187">
        <ele>2441.1999511719</ele>
        <time>2011-02-07T11:21:42.000Z</time>
      </trkpt>
      <trkpt lat="45.31817" lon="6.19179">
        <ele>2442.3999023438</ele>
        <time>2011-02-07T11:21:51.000Z</time>
      </trkpt>
      <trkpt lat="45.31817" lon="6.19172">
        <ele>2443.1999511719</ele>
        <time>2011-02-07T11:21:58.000Z</time>
      </trkpt>
      <trkpt lat="45.31817" lon="6.19164">
        <ele>2444.3999023438</ele>
        <time>2011-02-07T11:22:07.000Z</time>
      </trkpt>
      <trkpt lat="45.31818" lon="6.19156">
        <ele>2445</ele>
        <time>2011-02-07T11:22:15.000Z</time>
      </trkpt>
      <trkpt lat="45.31818" lon="6.19156">
        <ele>2445.1999511719</ele>
        <time>2011-02-07T11:22:16.000Z</time>
      </trkpt>
      <trkpt lat="45.3182" lon="6.19149">
        <ele>2446.1999511719</ele>
        <time>2011-02-07T11:22:23.000Z</time>
      </trkpt>
      <trkpt lat="45.31818" lon="6.19131">
        <ele>2448</ele>
        <time>2011-02-07T11:22:42.000Z</time>
      </trkpt>
      <trkpt lat="45.31819" lon="6.19126">
        <ele>2448.3999023438</ele>
        <time>2011-02-07T11:22:48.000Z</time>
      </trkpt>
      <trkpt lat="45.31823" lon="6.19118">
        <ele>2449</ele>
        <time>2011-02-07T11:22:56.000Z</time>
      </trkpt>
      <trkpt lat="45.31829" lon="6.19113">
        <ele>2449.6000976562</ele>
        <time>2011-02-07T11:23:02.000Z</time>
      </trkpt>
      <trkpt lat="45.31833" lon="6.19109">
        <ele>2450</ele>
        <time>2011-02-07T11:23:06.000Z</time>
      </trkpt>
      <trkpt lat="45.3184" lon="6.19101">
        <ele>2451</ele>
        <time>2011-02-07T11:23:15.000Z</time>
      </trkpt>
      <trkpt lat="45.31842" lon="6.19097">
        <ele>2451.6000976562</ele>
        <time>2011-02-07T11:23:19.000Z</time>
      </trkpt>
      <trkpt lat="45.31843" lon="6.19091">
        <ele>2452.1999511719</ele>
        <time>2011-02-07T11:23:25.000Z</time>
      </trkpt>
      <trkpt lat="45.31844" lon="6.19085">
        <ele>2453</ele>
        <time>2011-02-07T11:23:31.000Z</time>
      </trkpt>
      <trkpt lat="45.31843" lon="6.19075">
        <ele>2454.1999511719</ele>
        <time>2011-02-07T11:23:41.000Z</time>
      </trkpt>
      <trkpt lat="45.31842" lon="6.1907">
        <ele>2455.3999023438</ele>
        <time>2011-02-07T11:23:48.000Z</time>
      </trkpt>
      <trkpt lat="45.3184" lon="6.19067">
        <ele>2456</ele>
        <time>2011-02-07T11:23:51.000Z</time>
      </trkpt>
      <trkpt lat="45.3184" lon="6.1906">
        <ele>2457</ele>
        <time>2011-02-07T11:23:59.000Z</time>
      </trkpt>
      <trkpt lat="45.3184" lon="6.1906">
        <ele>2457.1999511719</ele>
        <time>2011-02-07T11:24:00.000Z</time>
      </trkpt>
      <trkpt lat="45.31841" lon="6.19054">
        <ele>2458</ele>
        <time>2011-02-07T11:24:10.000Z</time>
      </trkpt>
      <trkpt lat="45.31839" lon="6.19046">
        <ele>2458.8000488281</ele>
        <time>2011-02-07T11:24:19.000Z</time>
      </trkpt>
      <trkpt lat="45.3184" lon="6.19039">
        <ele>2460</ele>
        <time>2011-02-07T11:24:27.000Z</time>
      </trkpt>
      <trkpt lat="45.31841" lon="6.19034">
        <ele>2460.8000488281</ele>
        <time>2011-02-07T11:24:34.000Z</time>
      </trkpt>
      <trkpt lat="45.31843" lon="6.19028">
        <ele>2462</ele>
        <time>2011-02-07T11:24:43.000Z</time>
      </trkpt>
      <trkpt lat="45.31844" lon="6.19026">
        <ele>2462.3999023438</ele>
        <time>2011-02-07T11:24:47.000Z</time>
      </trkpt>
      <trkpt lat="45.31845" lon="6.19021">
        <ele>2462.8000488281</ele>
        <time>2011-02-07T11:24:53.000Z</time>
      </trkpt>
      <trkpt lat="45.31845" lon="6.19015">
        <ele>2464.1999511719</ele>
        <time>2011-02-07T11:25:01.000Z</time>
      </trkpt>
      <trkpt lat="45.31845" lon="6.19007">
        <ele>2465.3999023438</ele>
        <time>2011-02-07T11:25:10.000Z</time>
      </trkpt>
      <trkpt lat="45.31846" lon="6.19001">
        <ele>2466.6000976562</ele>
        <time>2011-02-07T11:25:17.000Z</time>
      </trkpt>
      <trkpt lat="45.31848" lon="6.18998">
        <ele>2467</ele>
        <time>2011-02-07T11:25:21.000Z</time>
      </trkpt>
      <trkpt lat="45.31848" lon="6.18993">
        <ele>2467.3999023438</ele>
        <time>2011-02-07T11:25:27.000Z</time>
      </trkpt>
      <trkpt lat="45.31849" lon="6.18985">
        <ele>2468.3999023438</ele>
        <time>2011-02-07T11:25:36.000Z</time>
      </trkpt>
      <trkpt lat="45.31852" lon="6.18976">
        <ele>2470</ele>
        <time>2011-02-07T11:25:47.000Z</time>
      </trkpt>
      <trkpt lat="45.31853" lon="6.18968">
        <ele>2470.6000976562</ele>
        <time>2011-02-07T11:25:55.000Z</time>
      </trkpt>
      <trkpt lat="45.31858" lon="6.18959">
        <ele>2472.3999023438</ele>
        <time>2011-02-07T11:26:06.000Z</time>
      </trkpt>
      <trkpt lat="45.3186" lon="6.18952">
        <ele>2474</ele>
        <time>2011-02-07T11:26:14.000Z</time>
      </trkpt>
      <trkpt lat="45.31859" lon="6.18944">
        <ele>2475.1999511719</ele>
        <time>2011-02-07T11:26:23.000Z</time>
      </trkpt>
      <trkpt lat="45.31862" lon="6.18937">
        <ele>2476.3999023438</ele>
        <time>2011-02-07T11:26:32.000Z</time>
      </trkpt>
      <trkpt lat="45.31867" lon="6.18929">
        <ele>2477.8000488281</ele>
        <time>2011-02-07T11:26:42.000Z</time>
      </trkpt>
      <trkpt lat="45.31871" lon="6.18923">
        <ele>2479.3999023438</ele>
        <time>2011-02-07T11:26:51.000Z</time>
      </trkpt>
      <trkpt lat="45.31875" lon="6.18918">
        <ele>2480.8000488281</ele>
        <time>2011-02-07T11:26:59.000Z</time>
      </trkpt>
      <trkpt lat="45.31879" lon="6.1891">
        <ele>2483</ele>
        <time>2011-02-07T11:27:10.000Z</time>
      </trkpt>
      <trkpt lat="45.31881" lon="6.18904">
        <ele>2485</ele>
        <time>2011-02-07T11:27:18.000Z</time>
      </trkpt>
      <trkpt lat="45.31884" lon="6.18901">
        <ele>2485.6000976562</ele>
        <time>2011-02-07T11:27:24.000Z</time>
      </trkpt>
      <trkpt lat="45.31886" lon="6.18895">
        <ele>2487</ele>
        <time>2011-02-07T11:27:32.000Z</time>
      </trkpt>
      <trkpt lat="45.31888" lon="6.1889">
        <ele>2488.3999023438</ele>
        <time>2011-02-07T11:27:40.000Z</time>
      </trkpt>
      <trkpt lat="45.31889" lon="6.18887">
        <ele>2489.1999511719</ele>
        <time>2011-02-07T11:27:45.000Z</time>
      </trkpt>
      <trkpt lat="45.31889" lon="6.18879">
        <ele>2491.1999511719</ele>
        <time>2011-02-07T11:27:55.000Z</time>
      </trkpt>
      <trkpt lat="45.31889" lon="6.18874">
        <ele>2492</ele>
        <time>2011-02-07T11:28:00.000Z</time>
      </trkpt>
      <trkpt lat="45.31889" lon="6.18871">
        <ele>2492.8000488281</ele>
        <time>2011-02-07T11:28:06.000Z</time>
      </trkpt>
      <trkpt lat="45.31886" lon="6.18862">
        <ele>2493.3999023438</ele>
        <time>2011-02-07T11:28:41.000Z</time>
      </trkpt>
      <trkpt lat="45.31886" lon="6.1886">
        <ele>2493.8000488281</ele>
        <time>2011-02-07T11:28:46.000Z</time>
      </trkpt>
      <trkpt lat="45.31886" lon="6.1886">
        <ele>2493.8000488281</ele>
        <time>2011-02-07T11:28:47.000Z</time>
      </trkpt>
      <trkpt lat="45.31885" lon="6.18854">
        <ele>2495.1999511719</ele>
        <time>2011-02-07T11:28:58.000Z</time>
      </trkpt>
      <trkpt lat="45.31888" lon="6.1885">
        <ele>2496.3999023438</ele>
        <time>2011-02-07T11:29:05.000Z</time>
      </trkpt>
      <trkpt lat="45.31892" lon="6.18842">
        <ele>2498</ele>
        <time>2011-02-07T11:29:15.000Z</time>
      </trkpt>
      <trkpt lat="45.31898" lon="6.18837">
        <ele>2498.6000976562</ele>
        <time>2011-02-07T11:29:25.000Z</time>
      </trkpt>
      <trkpt lat="45.31903" lon="6.18832">
        <ele>2499.3999023438</ele>
        <time>2011-02-07T11:29:35.000Z</time>
      </trkpt>
      <trkpt lat="45.31907" lon="6.1883">
        <ele>2500</ele>
        <time>2011-02-07T11:29:44.000Z</time>
      </trkpt>
      <trkpt lat="45.31912" lon="6.18827">
        <ele>2500</ele>
        <time>2011-02-07T11:29:56.000Z</time>
      </trkpt>
      <trkpt lat="45.31916" lon="6.18825">
        <ele>2499.8000488281</ele>
        <time>2011-02-07T11:30:57.000Z</time>
      </trkpt>
      <trkpt lat="45.31921" lon="6.1883">
        <ele>2500.1999511719</ele>
        <time>2011-02-07T11:31:32.000Z</time>
      </trkpt>
      <trkpt lat="45.31923" lon="6.18827">
        <ele>2500.6000976562</ele>
        <time>2011-02-07T11:31:36.000Z</time>
      </trkpt>
      <trkpt lat="45.31923" lon="6.18823">
        <ele>2501.3999023438</ele>
        <time>2011-02-07T11:32:02.000Z</time>
      </trkpt>
      <trkpt lat="45.31923" lon="6.1882">
        <ele>2501.8000488281</ele>
        <time>2011-02-07T11:32:04.000Z</time>
      </trkpt>
      <trkpt lat="45.31919" lon="6.18806">
        <ele>2503.1999511719</ele>
        <time>2011-02-07T11:32:12.000Z</time>
      </trkpt>
      <trkpt lat="45.31918" lon="6.18803">
        <ele>2503.8000488281</ele>
        <time>2011-02-07T11:32:15.000Z</time>
      </trkpt>
      <trkpt lat="45.31914" lon="6.18795">
        <ele>2504.6000976562</ele>
        <time>2011-02-07T11:32:22.000Z</time>
      </trkpt>
      <trkpt lat="45.31912" lon="6.18788">
        <ele>2505.8000488281</ele>
        <time>2011-02-07T11:32:29.000Z</time>
      </trkpt>
      <trkpt lat="45.31913" lon="6.18783">
        <ele>2506.6000976562</ele>
        <time>2011-02-07T11:32:34.000Z</time>
      </trkpt>
      <trkpt lat="45.31912" lon="6.18776">
        <ele>2508.1999511719</ele>
        <time>2011-02-07T11:32:43.000Z</time>
      </trkpt>
      <trkpt lat="45.31912" lon="6.1877">
        <ele>2509.8000488281</ele>
        <time>2011-02-07T11:32:50.000Z</time>
      </trkpt>
      <trkpt lat="45.31914" lon="6.18765">
        <ele>2510.6000976562</ele>
        <time>2011-02-07T11:32:57.000Z</time>
      </trkpt>
      <trkpt lat="45.31916" lon="6.18761">
        <ele>2511.8000488281</ele>
        <time>2011-02-07T11:33:03.000Z</time>
      </trkpt>
      <trkpt lat="45.31918" lon="6.18759">
        <ele>2512.6000976562</ele>
        <time>2011-02-07T11:33:07.000Z</time>
      </trkpt>
      <trkpt lat="45.31919" lon="6.18754">
        <ele>2513.8000488281</ele>
        <time>2011-02-07T11:33:15.000Z</time>
      </trkpt>
      <trkpt lat="45.31921" lon="6.18748">
        <ele>2515.8000488281</ele>
        <time>2011-02-07T11:33:27.000Z</time>
      </trkpt>
      <trkpt lat="45.3192" lon="6.18745">
        <ele>2516.1999511719</ele>
        <time>2011-02-07T11:33:30.000Z</time>
      </trkpt>
      <trkpt lat="45.3192" lon="6.1874">
        <ele>2517.1999511719</ele>
        <time>2011-02-07T11:33:35.000Z</time>
      </trkpt>
      <trkpt lat="45.3192" lon="6.18739">
        <ele>2517.3999023438</ele>
        <time>2011-02-07T11:33:36.000Z</time>
      </trkpt>
      <trkpt lat="45.3192" lon="6.1873">
        <ele>2518.8000488281</ele>
        <time>2011-02-07T11:33:43.000Z</time>
      </trkpt>
      <trkpt lat="45.31921" lon="6.18727">
        <ele>2519.8000488281</ele>
        <time>2011-02-07T11:33:48.000Z</time>
      </trkpt>
      <trkpt lat="45.31921" lon="6.1872">
        <ele>2520.8000488281</ele>
        <time>2011-02-07T11:33:56.000Z</time>
      </trkpt>
      <trkpt lat="45.3192" lon="6.18712">
        <ele>2522.3999023438</ele>
        <time>2011-02-07T11:34:04.000Z</time>
      </trkpt>
      <trkpt lat="45.31919" lon="6.18709">
        <ele>2523.6000976562</ele>
        <time>2011-02-07T11:34:09.000Z</time>
      </trkpt>
      <trkpt lat="45.3192" lon="6.18707">
        <ele>2524.1999511719</ele>
        <time>2011-02-07T11:34:13.000Z</time>
      </trkpt>
      <trkpt lat="45.31921" lon="6.18704">
        <ele>2525</ele>
        <time>2011-02-07T11:34:19.000Z</time>
      </trkpt>
      <trkpt lat="45.31921" lon="6.18704">
        <ele>2525.1999511719</ele>
        <time>2011-02-07T11:34:20.000Z</time>
      </trkpt>
      <trkpt lat="45.31919" lon="6.18699">
        <ele>2526.1999511719</ele>
        <time>2011-02-07T11:34:26.000Z</time>
      </trkpt>
      <trkpt lat="45.31919" lon="6.18696">
        <ele>2526.8000488281</ele>
        <time>2011-02-07T11:34:29.000Z</time>
      </trkpt>
      <trkpt lat="45.31919" lon="6.18691">
        <ele>2527.6000976562</ele>
        <time>2011-02-07T11:34:34.000Z</time>
      </trkpt>
      <trkpt lat="45.31919" lon="6.18688">
        <ele>2528</ele>
        <time>2011-02-07T11:34:38.000Z</time>
      </trkpt>
      <trkpt lat="45.31918" lon="6.18682">
        <ele>2529.1999511719</ele>
        <time>2011-02-07T11:34:47.000Z</time>
      </trkpt>
      <trkpt lat="45.3192" lon="6.1865">
        <ele>2537</ele>
        <time>2011-02-07T11:35:30.000Z</time>
      </trkpt>
      <trkpt lat="45.31917" lon="6.18651">
        <ele>2537.3999023438</ele>
        <time>2011-02-07T11:35:33.000Z</time>
      </trkpt>
      <trkpt lat="45.31922" lon="6.18651">
        <ele>2538.1999511719</ele>
        <time>2011-02-07T11:35:48.000Z</time>
      </trkpt>
      <trkpt lat="45.31927" lon="6.18652">
        <ele>2539.1999511719</ele>
        <time>2011-02-07T11:35:55.000Z</time>
      </trkpt>
      <trkpt lat="45.31928" lon="6.18654">
        <ele>2539.8000488281</ele>
        <time>2011-02-07T11:35:58.000Z</time>
      </trkpt>
      <trkpt lat="45.31934" lon="6.18658">
        <ele>2540.8000488281</ele>
        <time>2011-02-07T11:36:08.000Z</time>
      </trkpt>
      <trkpt lat="45.31937" lon="6.18662">
        <ele>2541.8000488281</ele>
        <time>2011-02-07T11:36:15.000Z</time>
      </trkpt>
      <trkpt lat="45.3194" lon="6.18665">
        <ele>2542.8000488281</ele>
        <time>2011-02-07T11:36:21.000Z</time>
      </trkpt>
      <trkpt lat="45.3194" lon="6.18667">
        <ele>2543.1999511719</ele>
        <time>2011-02-07T11:36:24.000Z</time>
      </trkpt>
      <trkpt lat="45.31944" lon="6.18668">
        <ele>2543.8000488281</ele>
        <time>2011-02-07T11:36:29.000Z</time>
      </trkpt>
      <trkpt lat="45.31946" lon="6.18669">
        <ele>2544.8000488281</ele>
        <time>2011-02-07T11:36:36.000Z</time>
      </trkpt>
      <trkpt lat="45.3195" lon="6.18674">
        <ele>2545.1999511719</ele>
        <time>2011-02-07T11:36:48.000Z</time>
      </trkpt>
      <trkpt lat="45.3195" lon="6.18674">
        <ele>2545.3999023438</ele>
        <time>2011-02-07T11:36:49.000Z</time>
      </trkpt>
      <trkpt lat="45.3195" lon="6.18687">
        <ele>2547.1999511719</ele>
        <time>2011-02-07T11:37:01.000Z</time>
      </trkpt>
      <trkpt lat="45.31952" lon="6.18689">
        <ele>2548.1999511719</ele>
        <time>2011-02-07T11:37:05.000Z</time>
      </trkpt>
      <trkpt lat="45.31965" lon="6.18688">
        <ele>2550</ele>
        <time>2011-02-07T11:37:23.000Z</time>
      </trkpt>
      <trkpt lat="45.31964" lon="6.18691">
        <ele>2550.6000976562</ele>
        <time>2011-02-07T11:37:27.000Z</time>
      </trkpt>
      <trkpt lat="45.31956" lon="6.18708">
        <ele>2551.3999023438</ele>
        <time>2011-02-07T11:37:42.000Z</time>
      </trkpt>
      <trkpt lat="45.31952" lon="6.18713">
        <ele>2551.6000976562</ele>
        <time>2011-02-07T11:37:49.000Z</time>
      </trkpt>
      <trkpt lat="45.31946" lon="6.18717">
        <ele>2551.3999023438</ele>
        <time>2011-02-07T11:37:56.000Z</time>
      </trkpt>
      <trkpt lat="45.31962" lon="6.18693">
        <ele>2552.3999023438</ele>
        <time>2011-02-07T11:38:10.000Z</time>
      </trkpt>
      <trkpt lat="45.31964" lon="6.18686">
        <ele>2554</ele>
        <time>2011-02-07T11:38:16.000Z</time>
      </trkpt>
      <trkpt lat="45.31972" lon="6.18675">
        <ele>2555</ele>
        <time>2011-02-07T11:38:45.000Z</time>
      </trkpt>
      <trkpt lat="45.31952" lon="6.18691">
        <ele>2555</ele>
        <time>2011-02-07T11:39:14.000Z</time>
      </trkpt>
      <trkpt lat="45.31957" lon="6.18691">
        <ele>2555.6000976562</ele>
        <time>2011-02-07T11:39:26.000Z</time>
      </trkpt>
      <trkpt lat="45.31968" lon="6.18669">
        <ele>2558.3999023438</ele>
        <time>2011-02-07T11:41:28.000Z</time>
      </trkpt>
      <trkpt lat="45.31965" lon="6.1869">
        <ele>2558.1999511719</ele>
        <time>2011-02-07T11:42:02.000Z</time>
      </trkpt>
      <trkpt lat="45.31965" lon="6.18693">
        <ele>2557.8000488281</ele>
        <time>2011-02-07T11:42:08.000Z</time>
      </trkpt>
      <trkpt lat="45.31966" lon="6.18699">
        <ele>2556.8000488281</ele>
        <time>2011-02-07T11:42:23.000Z</time>
      </trkpt>
      <trkpt lat="45.3196" lon="6.18707">
        <ele>2556.3999023438</ele>
        <time>2011-02-07T11:42:29.000Z</time>
      </trkpt>
      <trkpt lat="45.3196" lon="6.18706">
        <ele>2556.1999511719</ele>
        <time>2011-02-07T11:42:32.000Z</time>
      </trkpt>
      <trkpt lat="45.31967" lon="6.18719">
        <ele>2556.8000488281</ele>
        <time>2011-02-07T11:43:12.000Z</time>
      </trkpt>
      <trkpt lat="45.31967" lon="6.18719">
        <ele>2557</ele>
        <time>2011-02-07T11:43:13.000Z</time>
      </trkpt>
      <trkpt lat="45.31973" lon="6.18722">
        <ele>2557.6000976562</ele>
        <time>2011-02-07T11:43:34.000Z</time>
      </trkpt>
      <trkpt lat="45.31976" lon="6.1873">
        <ele>2558.3999023438</ele>
        <time>2011-02-07T11:43:49.000Z</time>
      </trkpt>
      <trkpt lat="45.31977" lon="6.18736">
        <ele>2558.6000976562</ele>
        <time>2011-02-07T11:43:54.000Z</time>
      </trkpt>
      <trkpt lat="45.3198" lon="6.18736">
        <ele>2560</ele>
        <time>2011-02-07T11:44:01.000Z</time>
      </trkpt>
      <trkpt lat="45.31984" lon="6.18737">
        <ele>2561</ele>
        <time>2011-02-07T11:44:08.000Z</time>
      </trkpt>
      <trkpt lat="45.3199" lon="6.18738">
        <ele>2560.3999023438</ele>
        <time>2011-02-07T11:47:57.000Z</time>
      </trkpt>
      <trkpt lat="45.31988" lon="6.18741">
        <ele>2560</ele>
        <time>2011-02-07T11:48:03.000Z</time>
      </trkpt>
      <trkpt lat="45.31988" lon="6.18744">
        <ele>2560.8000488281</ele>
        <time>2011-02-07T11:48:09.000Z</time>
      </trkpt>
      <trkpt lat="45.31988" lon="6.18746">
        <ele>2561</ele>
        <time>2011-02-07T11:48:13.000Z</time>
      </trkpt>
      <trkpt lat="45.3199" lon="6.18754">
        <ele>2564</ele>
        <time>2011-02-07T11:48:46.000Z</time>
      </trkpt>
      <trkpt lat="45.32005" lon="6.18741">
        <ele>2573.8000488281</ele>
        <time>2011-02-07T11:50:57.000Z</time>
      </trkpt>
      <trkpt lat="45.32005" lon="6.18741">
        <ele>2574</ele>
        <time>2011-02-07T11:50:58.000Z</time>
      </trkpt>
      <trkpt lat="45.32006" lon="6.18737">
        <ele>2573.3999023438</ele>
        <time>2011-02-07T11:51:07.000Z</time>
      </trkpt>
      <trkpt lat="45.32001" lon="6.18744">
        <ele>2574.3999023438</ele>
        <time>2011-02-07T11:51:29.000Z</time>
      </trkpt>
      <trkpt lat="45.32006" lon="6.18736">
        <ele>2575.3999023438</ele>
        <time>2011-02-07T11:51:57.000Z</time>
      </trkpt>
      <trkpt lat="45.32003" lon="6.18742">
        <ele>2577.6000976562</ele>
        <time>2011-02-07T11:52:52.000Z</time>
      </trkpt>
      <trkpt lat="45.32027" lon="6.18733">
        <ele>2602.3999023438</ele>
        <time>2011-02-07T11:59:39.000Z</time>
      </trkpt>
      <trkpt lat="45.32027" lon="6.18732">
        <ele>2602.8000488281</ele>
        <time>2011-02-07T11:59:40.000Z</time>
      </trkpt>
      <trkpt lat="45.32029" lon="6.18732">
        <ele>2603.6000976562</ele>
        <time>2011-02-07T12:00:10.000Z</time>
      </trkpt>
      <trkpt lat="45.32032" lon="6.18738">
        <ele>2604.3999023438</ele>
        <time>2011-02-07T12:02:25.000Z</time>
      </trkpt>
      <trkpt lat="45.32034" lon="6.18741">
        <ele>2605.8000488281</ele>
        <time>2011-02-07T12:02:32.000Z</time>
      </trkpt>
      <trkpt lat="45.32037" lon="6.18742">
        <ele>2606.6000976562</ele>
        <time>2011-02-07T12:02:36.000Z</time>
      </trkpt>
      <trkpt lat="45.32042" lon="6.18744">
        <ele>2608.3999023438</ele>
        <time>2011-02-07T12:02:46.000Z</time>
      </trkpt>
      <trkpt lat="45.32047" lon="6.18741">
        <ele>2610.6000976562</ele>
        <time>2011-02-07T12:03:11.000Z</time>
      </trkpt>
      <trkpt lat="45.3205" lon="6.18737">
        <ele>2612.8000488281</ele>
        <time>2011-02-07T12:03:18.000Z</time>
      </trkpt>
      <trkpt lat="45.32051" lon="6.18735">
        <ele>2613.3999023438</ele>
        <time>2011-02-07T12:03:22.000Z</time>
      </trkpt>
      <trkpt lat="45.32052" lon="6.18732">
        <ele>2614.6000976562</ele>
        <time>2011-02-07T12:03:27.000Z</time>
      </trkpt>
      <trkpt lat="45.32052" lon="6.18731">
        <ele>2614.8000488281</ele>
        <time>2011-02-07T12:03:28.000Z</time>
      </trkpt>
      <trkpt lat="45.32053" lon="6.18727">
        <ele>2615.8000488281</ele>
        <time>2011-02-07T12:03:34.000Z</time>
      </trkpt>
      <trkpt lat="45.32063" lon="6.18727">
        <ele>2619</ele>
        <time>2011-02-07T12:04:14.000Z</time>
      </trkpt>
      <trkpt lat="45.32067" lon="6.18728">
        <ele>2619.6000976562</ele>
        <time>2011-02-07T12:14:17.000Z</time>
      </trkpt>
      <trkpt lat="45.32067" lon="6.18729">
        <ele>2621.3999023438</ele>
        <time>2011-02-07T12:14:26.000Z</time>
      </trkpt>
      <trkpt lat="45.32068" lon="6.18724">
        <ele>2621.6000976562</ele>
        <time>2011-02-07T12:18:57.000Z</time>
      </trkpt>
      <trkpt lat="45.32067" lon="6.18724">
        <ele>2621</ele>
        <time>2011-02-07T12:19:00.000Z</time>
      </trkpt>
      <trkpt lat="45.32063" lon="6.18714">
        <ele>2622.6000976562</ele>
        <time>2011-02-07T12:24:12.000Z</time>
      </trkpt>
      <trkpt lat="45.32063" lon="6.18716">
        <ele>2620.3999023438</ele>
        <time>2011-02-07T12:24:14.000Z</time>
      </trkpt>
      <trkpt lat="45.32066" lon="6.18718">
        <ele>2622.3999023438</ele>
        <time>2011-02-07T12:24:20.000Z</time>
      </trkpt>
      <trkpt lat="45.32066" lon="6.18717">
        <ele>2622.8000488281</ele>
        <time>2011-02-07T12:24:21.000Z</time>
      </trkpt>
      <trkpt lat="45.32069" lon="6.18722">
        <ele>2623.3999023438</ele>
        <time>2011-02-07T12:26:02.000Z</time>
      </trkpt>
      <trkpt lat="45.32068" lon="6.18721">
        <ele>2624.3999023438</ele>
        <time>2011-02-07T12:27:57.000Z</time>
      </trkpt>
      <trkpt lat="45.32065" lon="6.18722">
        <ele>2625.6000976562</ele>
        <time>2011-02-07T12:28:01.000Z</time>
      </trkpt>
      <trkpt lat="45.32066" lon="6.18735">
        <ele>2624.6000976562</ele>
        <time>2011-02-07T12:31:32.000Z</time>
      </trkpt>
      <trkpt lat="45.32066" lon="6.18735">
        <ele>2624.1999511719</ele>
        <time>2011-02-07T12:31:33.000Z</time>
      </trkpt>
      <trkpt lat="45.32068" lon="6.18738">
        <ele>2623.8000488281</ele>
        <time>2011-02-07T12:31:39.000Z</time>
      </trkpt>
      <trkpt lat="45.32077" lon="6.18748">
        <ele>2621.6000976562</ele>
        <time>2011-02-07T12:32:13.000Z</time>
      </trkpt>
      <trkpt lat="45.32077" lon="6.18748">
        <ele>2620.8000488281</ele>
        <time>2011-02-07T12:32:15.000Z</time>
      </trkpt>
      <trkpt lat="45.32076" lon="6.18749">
        <ele>2620</ele>
        <time>2011-02-07T12:32:19.000Z</time>
      </trkpt>
      <trkpt lat="45.32081" lon="6.18753">
        <ele>2618.3999023438</ele>
        <time>2011-02-07T12:32:45.000Z</time>
      </trkpt>
      <trkpt lat="45.32074" lon="6.18761">
        <ele>2616.1999511719</ele>
        <time>2011-02-07T12:33:51.000Z</time>
      </trkpt>
      <trkpt lat="45.32075" lon="6.1877">
        <ele>2612.1999511719</ele>
        <time>2011-02-07T12:33:54.000Z</time>
      </trkpt>
      <trkpt lat="45.32073" lon="6.18779">
        <ele>2606</ele>
        <time>2011-02-07T12:33:57.000Z</time>
      </trkpt>
      <trkpt lat="45.32071" lon="6.18783">
        <ele>2600.3999023438</ele>
        <time>2011-02-07T12:34:00.000Z</time>
      </trkpt>
      <trkpt lat="45.32074" lon="6.18792">
        <ele>2597.8000488281</ele>
        <time>2011-02-07T12:34:02.000Z</time>
      </trkpt>
      <trkpt lat="45.32076" lon="6.18796">
        <ele>2594.8000488281</ele>
        <time>2011-02-07T12:34:05.000Z</time>
      </trkpt>
      <trkpt lat="45.32076" lon="6.18796">
        <ele>2594.6000976562</ele>
        <time>2011-02-07T12:34:06.000Z</time>
      </trkpt>
      <trkpt lat="45.3207" lon="6.18807">
        <ele>2589.1999511719</ele>
        <time>2011-02-07T12:35:33.000Z</time>
      </trkpt>
      <trkpt lat="45.3207" lon="6.18811">
        <ele>2587</ele>
        <time>2011-02-07T12:35:35.000Z</time>
      </trkpt>
      <trkpt lat="45.32065" lon="6.18819">
        <ele>2584</ele>
        <time>2011-02-07T12:35:39.000Z</time>
      </trkpt>
      <trkpt lat="45.32063" lon="6.18819">
        <ele>2583.8000488281</ele>
        <time>2011-02-07T12:35:40.000Z</time>
      </trkpt>
      <trkpt lat="45.32059" lon="6.1883">
        <ele>2581.6000976562</ele>
        <time>2011-02-07T12:35:43.000Z</time>
      </trkpt>
      <trkpt lat="45.3206" lon="6.18831">
        <ele>2575.8000488281</ele>
        <time>2011-02-07T12:35:45.000Z</time>
      </trkpt>
      <trkpt lat="45.32057" lon="6.18825">
        <ele>2569.6000976562</ele>
        <time>2011-02-07T12:35:49.000Z</time>
      </trkpt>
      <trkpt lat="45.32053" lon="6.18821">
        <ele>2567.8000488281</ele>
        <time>2011-02-07T12:35:51.000Z</time>
      </trkpt>
      <trkpt lat="45.32045" lon="6.18828">
        <ele>2561.8000488281</ele>
        <time>2011-02-07T12:35:57.000Z</time>
      </trkpt>
      <trkpt lat="45.32047" lon="6.18834">
        <ele>2556.6000976562</ele>
        <time>2011-02-07T12:36:01.000Z</time>
      </trkpt>
      <trkpt lat="45.32038" lon="6.18834">
        <ele>2551.1999511719</ele>
        <time>2011-02-07T12:36:19.000Z</time>
      </trkpt>
      <trkpt lat="45.3203" lon="6.18838">
        <ele>2546.8000488281</ele>
        <time>2011-02-07T12:36:22.000Z</time>
      </trkpt>
      <trkpt lat="45.32028" lon="6.18846">
        <ele>2541.1999511719</ele>
        <time>2011-02-07T12:36:25.000Z</time>
      </trkpt>
      <trkpt lat="45.32029" lon="6.18846">
        <ele>2538</ele>
        <time>2011-02-07T12:36:28.000Z</time>
      </trkpt>
      <trkpt lat="45.32011" lon="6.18846">
        <ele>2532</ele>
        <time>2011-02-07T12:36:49.000Z</time>
      </trkpt>
      <trkpt lat="45.32002" lon="6.18838">
        <ele>2528.1999511719</ele>
        <time>2011-02-07T12:36:51.000Z</time>
      </trkpt>
      <trkpt lat="45.31996" lon="6.18833">
        <ele>2526.6000976562</ele>
        <time>2011-02-07T12:36:54.000Z</time>
      </trkpt>
      <trkpt lat="45.31991" lon="6.18842">
        <ele>2526.6000976562</ele>
        <time>2011-02-07T12:36:59.000Z</time>
      </trkpt>
      <trkpt lat="45.31977" lon="6.18843">
        <ele>2520</ele>
        <time>2011-02-07T12:37:09.000Z</time>
      </trkpt>
      <trkpt lat="45.31957" lon="6.18838">
        <ele>2514</ele>
        <time>2011-02-07T12:37:12.000Z</time>
      </trkpt>
      <trkpt lat="45.31922" lon="6.18838">
        <ele>2507.1999511719</ele>
        <time>2011-02-07T12:37:17.000Z</time>
      </trkpt>
      <trkpt lat="45.31917" lon="6.18854">
        <ele>2506</ele>
        <time>2011-02-07T12:37:21.000Z</time>
      </trkpt>
      <trkpt lat="45.3192" lon="6.18856">
        <ele>2506.1999511719</ele>
        <time>2011-02-07T12:37:24.000Z</time>
      </trkpt>
      <trkpt lat="45.31921" lon="6.18857">
        <ele>2505.8000488281</ele>
        <time>2011-02-07T12:38:38.000Z</time>
      </trkpt>
      <trkpt lat="45.31918" lon="6.18862">
        <ele>2505.1999511719</ele>
        <time>2011-02-07T12:38:44.000Z</time>
      </trkpt>
      <trkpt lat="45.31917" lon="6.18862">
        <ele>2505.1999511719</ele>
        <time>2011-02-07T12:38:45.000Z</time>
      </trkpt>
      <trkpt lat="45.31917" lon="6.18873">
        <ele>2504.1999511719</ele>
        <time>2011-02-07T12:38:49.000Z</time>
      </trkpt>
      <trkpt lat="45.3192" lon="6.18879">
        <ele>2502.8000488281</ele>
        <time>2011-02-07T12:38:53.000Z</time>
      </trkpt>
      <trkpt lat="45.31906" lon="6.18875">
        <ele>2501.1999511719</ele>
        <time>2011-02-07T12:39:47.000Z</time>
      </trkpt>
      <trkpt lat="45.31896" lon="6.18871">
        <ele>2500</ele>
        <time>2011-02-07T12:39:50.000Z</time>
      </trkpt>
      <trkpt lat="45.31886" lon="6.18869">
        <ele>2498.3999023438</ele>
        <time>2011-02-07T12:39:53.000Z</time>
      </trkpt>
      <trkpt lat="45.31886" lon="6.18869">
        <ele>2498.8000488281</ele>
        <time>2011-02-07T12:39:55.000Z</time>
      </trkpt>
      <trkpt lat="45.31887" lon="6.18878">
        <ele>2498.1999511719</ele>
        <time>2011-02-07T12:40:05.000Z</time>
      </trkpt>
      <trkpt lat="45.31893" lon="6.18893">
        <ele>2495.1999511719</ele>
        <time>2011-02-07T12:40:09.000Z</time>
      </trkpt>
      <trkpt lat="45.31894" lon="6.18894">
        <ele>2495.1999511719</ele>
        <time>2011-02-07T12:40:12.000Z</time>
      </trkpt>
      <trkpt lat="45.31897" lon="6.1892">
        <ele>2492.8000488281</ele>
        <time>2011-02-07T12:40:20.000Z</time>
      </trkpt>
      <trkpt lat="45.31897" lon="6.18925">
        <ele>2492.1999511719</ele>
        <time>2011-02-07T12:40:21.000Z</time>
      </trkpt>
      <trkpt lat="45.31883" lon="6.1895">
        <ele>2489.3999023438</ele>
        <time>2011-02-07T12:40:25.000Z</time>
      </trkpt>
      <trkpt lat="45.31869" lon="6.18986">
        <ele>2484</ele>
        <time>2011-02-07T12:40:30.000Z</time>
      </trkpt>
      <trkpt lat="45.31868" lon="6.19001">
        <ele>2481.8000488281</ele>
        <time>2011-02-07T12:40:32.000Z</time>
      </trkpt>
      <trkpt lat="45.31868" lon="6.1902">
        <ele>2480</ele>
        <time>2011-02-07T12:40:35.000Z</time>
      </trkpt>
      <trkpt lat="45.31868" lon="6.19025">
        <ele>2479.6000976562</ele>
        <time>2011-02-07T12:40:36.000Z</time>
      </trkpt>
      <trkpt lat="45.31863" lon="6.19034">
        <ele>2477.3999023438</ele>
        <time>2011-02-07T12:40:38.000Z</time>
      </trkpt>
      <trkpt lat="45.31859" lon="6.19072">
        <ele>2470.8000488281</ele>
        <time>2011-02-07T12:40:42.000Z</time>
      </trkpt>
      <trkpt lat="45.3186" lon="6.19083">
        <ele>2469.6000976562</ele>
        <time>2011-02-07T12:40:44.000Z</time>
      </trkpt>
      <trkpt lat="45.31861" lon="6.19099">
        <ele>2468.8000488281</ele>
        <time>2011-02-07T12:40:48.000Z</time>
      </trkpt>
      <trkpt lat="45.31859" lon="6.19124">
        <ele>2465.6000976562</ele>
        <time>2011-02-07T12:40:52.000Z</time>
      </trkpt>
      <trkpt lat="45.31859" lon="6.19127">
        <ele>2464.1999511719</ele>
        <time>2011-02-07T12:40:55.000Z</time>
      </trkpt>
      <trkpt lat="45.31849" lon="6.19126">
        <ele>2461</ele>
        <time>2011-02-07T12:41:25.000Z</time>
      </trkpt>
      <trkpt lat="45.31829" lon="6.19112">
        <ele>2456</ele>
        <time>2011-02-07T12:41:28.000Z</time>
      </trkpt>
      <trkpt lat="45.31818" lon="6.19109">
        <ele>2455</ele>
        <time>2011-02-07T12:41:30.000Z</time>
      </trkpt>
      <trkpt lat="45.31807" lon="6.19105">
        <ele>2455.6000976562</ele>
        <time>2011-02-07T12:41:34.000Z</time>
      </trkpt>
      <trkpt lat="45.31803" lon="6.19101">
        <ele>2455.6000976562</ele>
        <time>2011-02-07T12:41:37.000Z</time>
      </trkpt>
      <trkpt lat="45.318" lon="6.19099">
        <ele>2455.6000976562</ele>
        <time>2011-02-07T12:41:40.000Z</time>
      </trkpt>
      <trkpt lat="45.31795" lon="6.19097">
        <ele>2455.1999511719</ele>
        <time>2011-02-07T12:41:48.000Z</time>
      </trkpt>
      <trkpt lat="45.31775" lon="6.19114">
        <ele>2452.1999511719</ele>
        <time>2011-02-07T12:41:52.000Z</time>
      </trkpt>
      <trkpt lat="45.31775" lon="6.19118">
        <ele>2452</ele>
        <time>2011-02-07T12:41:53.000Z</time>
      </trkpt>
      <trkpt lat="45.31774" lon="6.19137">
        <ele>2452.1999511719</ele>
        <time>2011-02-07T12:42:00.000Z</time>
      </trkpt>
      <trkpt lat="45.31773" lon="6.19153">
        <ele>2450.8000488281</ele>
        <time>2011-02-07T12:42:03.000Z</time>
      </trkpt>
      <trkpt lat="45.31773" lon="6.19168">
        <ele>2449.3999023438</ele>
        <time>2011-02-07T12:42:05.000Z</time>
      </trkpt>
      <trkpt lat="45.31779" lon="6.19217">
        <ele>2445.1999511719</ele>
        <time>2011-02-07T12:42:11.000Z</time>
      </trkpt>
      <trkpt lat="45.31779" lon="6.19236">
        <ele>2443.6000976562</ele>
        <time>2011-02-07T12:42:14.000Z</time>
      </trkpt>
      <trkpt lat="45.31779" lon="6.1925">
        <ele>2443.1999511719</ele>
        <time>2011-02-07T12:42:19.000Z</time>
      </trkpt>
      <trkpt lat="45.31775" lon="6.19267">
        <ele>2443.3999023438</ele>
        <time>2011-02-07T12:42:26.000Z</time>
      </trkpt>
      <trkpt lat="45.31775" lon="6.19271">
        <ele>2443.6000976562</ele>
        <time>2011-02-07T12:42:28.000Z</time>
      </trkpt>
      <trkpt lat="45.31771" lon="6.19273">
        <ele>2444</ele>
        <time>2011-02-07T12:42:33.000Z</time>
      </trkpt>
      <trkpt lat="45.3177" lon="6.19274">
        <ele>2444.1999511719</ele>
        <time>2011-02-07T12:42:34.000Z</time>
      </trkpt>
      <trkpt lat="45.31762" lon="6.19281">
        <ele>2445</ele>
        <time>2011-02-07T12:42:42.000Z</time>
      </trkpt>
      <trkpt lat="45.3176" lon="6.19288">
        <ele>2445.8000488281</ele>
        <time>2011-02-07T12:42:48.000Z</time>
      </trkpt>
      <trkpt lat="45.31757" lon="6.1929">
        <ele>2444.3999023438</ele>
        <time>2011-02-07T12:44:28.000Z</time>
      </trkpt>
      <trkpt lat="45.31753" lon="6.19296">
        <ele>2444</ele>
        <time>2011-02-07T12:44:33.000Z</time>
      </trkpt>
      <trkpt lat="45.31749" lon="6.19311">
        <ele>2443</ele>
        <time>2011-02-07T12:44:39.000Z</time>
      </trkpt>
      <trkpt lat="45.31745" lon="6.19332">
        <ele>2441.8000488281</ele>
        <time>2011-02-07T12:44:46.000Z</time>
      </trkpt>
      <trkpt lat="45.31748" lon="6.19349">
        <ele>2440.6000976562</ele>
        <time>2011-02-07T12:44:52.000Z</time>
      </trkpt>
      <trkpt lat="45.3175" lon="6.19363">
        <ele>2439.6000976562</ele>
        <time>2011-02-07T12:44:56.000Z</time>
      </trkpt>
      <trkpt lat="45.31747" lon="6.1939">
        <ele>2438.1999511719</ele>
        <time>2011-02-07T12:45:03.000Z</time>
      </trkpt>
      <trkpt lat="45.31747" lon="6.19416">
        <ele>2437.1999511719</ele>
        <time>2011-02-07T12:45:09.000Z</time>
      </trkpt>
      <trkpt lat="45.31747" lon="6.19423">
        <ele>2436.6000976562</ele>
        <time>2011-02-07T12:45:10.000Z</time>
      </trkpt>
      <trkpt lat="45.31737" lon="6.19457">
        <ele>2432.1999511719</ele>
        <time>2011-02-07T12:45:14.000Z</time>
      </trkpt>
      <trkpt lat="45.3173" lon="6.19469">
        <ele>2431.3999023438</ele>
        <time>2011-02-07T12:45:16.000Z</time>
      </trkpt>
      <trkpt lat="45.31708" lon="6.19491">
        <ele>2430</ele>
        <time>2011-02-07T12:45:22.000Z</time>
      </trkpt>
      <trkpt lat="45.31686" lon="6.19513">
        <ele>2428</ele>
        <time>2011-02-07T12:45:29.000Z</time>
      </trkpt>
      <trkpt lat="45.31677" lon="6.19525">
        <ele>2427.8000488281</ele>
        <time>2011-02-07T12:45:35.000Z</time>
      </trkpt>
      <trkpt lat="45.3167" lon="6.19535">
        <ele>2427.1999511719</ele>
        <time>2011-02-07T12:45:41.000Z</time>
      </trkpt>
      <trkpt lat="45.31658" lon="6.19553">
        <ele>2425.6000976562</ele>
        <time>2011-02-07T12:45:48.000Z</time>
      </trkpt>
      <trkpt lat="45.31642" lon="6.19571">
        <ele>2424.1999511719</ele>
        <time>2011-02-07T12:45:54.000Z</time>
      </trkpt>
      <trkpt lat="45.31624" lon="6.1958">
        <ele>2423.6000976562</ele>
        <time>2011-02-07T12:46:02.000Z</time>
      </trkpt>
      <trkpt lat="45.31611" lon="6.1959">
        <ele>2422.6000976562</ele>
        <time>2011-02-07T12:46:08.000Z</time>
      </trkpt>
      <trkpt lat="45.31597" lon="6.19607">
        <ele>2421.6000976562</ele>
        <time>2011-02-07T12:46:15.000Z</time>
      </trkpt>
      <trkpt lat="45.31587" lon="6.19624">
        <ele>2420.1999511719</ele>
        <time>2011-02-07T12:46:21.000Z</time>
      </trkpt>
      <trkpt lat="45.31573" lon="6.19644">
        <ele>2417.8000488281</ele>
        <time>2011-02-07T12:46:25.000Z</time>
      </trkpt>
      <trkpt lat="45.31561" lon="6.19656">
        <ele>2416.1999511719</ele>
        <time>2011-02-07T12:46:28.000Z</time>
      </trkpt>
      <trkpt lat="45.31545" lon="6.19671">
        <ele>2414.8000488281</ele>
        <time>2011-02-07T12:46:33.000Z</time>
      </trkpt>
      <trkpt lat="45.3153" lon="6.19682">
        <ele>2413</ele>
        <time>2011-02-07T12:46:38.000Z</time>
      </trkpt>
      <trkpt lat="45.31523" lon="6.19688">
        <ele>2412.3999023438</ele>
        <time>2011-02-07T12:46:40.000Z</time>
      </trkpt>
      <trkpt lat="45.3152" lon="6.19692">
        <ele>2411.8000488281</ele>
        <time>2011-02-07T12:46:41.000Z</time>
      </trkpt>
      <trkpt lat="45.31511" lon="6.197">
        <ele>2410.3999023438</ele>
        <time>2011-02-07T12:46:43.000Z</time>
      </trkpt>
      <trkpt lat="45.31499" lon="6.19708">
        <ele>2409.3999023438</ele>
        <time>2011-02-07T12:46:47.000Z</time>
      </trkpt>
      <trkpt lat="45.31498" lon="6.19708">
        <ele>2409.8000488281</ele>
        <time>2011-02-07T12:46:49.000Z</time>
      </trkpt>
      <trkpt lat="45.31481" lon="6.19705">
        <ele>2408.1999511719</ele>
        <time>2011-02-07T12:47:10.000Z</time>
      </trkpt>
      <trkpt lat="45.31464" lon="6.19701">
        <ele>2405.8000488281</ele>
        <time>2011-02-07T12:47:16.000Z</time>
      </trkpt>
      <trkpt lat="45.31448" lon="6.19693">
        <ele>2404.3999023438</ele>
        <time>2011-02-07T12:47:23.000Z</time>
      </trkpt>
      <trkpt lat="45.31441" lon="6.19688">
        <ele>2404.1999511719</ele>
        <time>2011-02-07T12:47:28.000Z</time>
      </trkpt>
      <trkpt lat="45.31441" lon="6.19688">
        <ele>2404</ele>
        <time>2011-02-07T12:47:29.000Z</time>
      </trkpt>
      <trkpt lat="45.31439" lon="6.19693">
        <ele>2404.8000488281</ele>
        <time>2011-02-07T12:48:29.000Z</time>
      </trkpt>
      <trkpt lat="45.31438" lon="6.19698">
        <ele>2405.1999511719</ele>
        <time>2011-02-07T12:50:27.000Z</time>
      </trkpt>
      <trkpt lat="45.31436" lon="6.19701">
        <ele>2406.3999023438</ele>
        <time>2011-02-07T12:50:33.000Z</time>
      </trkpt>
      <trkpt lat="45.31433" lon="6.19703">
        <ele>2407.1999511719</ele>
        <time>2011-02-07T12:50:38.000Z</time>
      </trkpt>
      <trkpt lat="45.31433" lon="6.19704">
        <ele>2407.8000488281</ele>
        <time>2011-02-07T12:50:40.000Z</time>
      </trkpt>
      <trkpt lat="45.31412" lon="6.19714">
        <ele>2417.8000488281</ele>
        <time>2011-02-07T12:52:14.000Z</time>
      </trkpt>
      <trkpt lat="45.31411" lon="6.19714">
        <ele>2418</ele>
        <time>2011-02-07T12:52:15.000Z</time>
      </trkpt>
      <trkpt lat="45.31411" lon="6.19714">
        <ele>2418.3999023438</ele>
        <time>2011-02-07T12:52:17.000Z</time>
      </trkpt>
      <trkpt lat="45.31404" lon="6.19718">
        <ele>2420.8000488281</ele>
        <time>2011-02-07T12:52:35.000Z</time>
      </trkpt>
      <trkpt lat="45.31401" lon="6.19718">
        <ele>2422</ele>
        <time>2011-02-07T12:52:41.000Z</time>
      </trkpt>
      <trkpt lat="45.314" lon="6.19718">
        <ele>2422.6000976562</ele>
        <time>2011-02-07T12:52:43.000Z</time>
      </trkpt>
      <trkpt lat="45.31389" lon="6.19705">
        <ele>2428.8000488281</ele>
        <time>2011-02-07T12:53:35.000Z</time>
      </trkpt>
      <trkpt lat="45.31388" lon="6.19703">
        <ele>2429.3999023438</ele>
        <time>2011-02-07T12:53:40.000Z</time>
      </trkpt>
      <trkpt lat="45.31383" lon="6.19701">
        <ele>2431.8000488281</ele>
        <time>2011-02-07T12:53:57.000Z</time>
      </trkpt>
      <trkpt lat="45.31384" lon="6.19702">
        <ele>2431.8000488281</ele>
        <time>2011-02-07T12:53:58.000Z</time>
      </trkpt>
      <trkpt lat="45.31381" lon="6.19705">
        <ele>2433</ele>
        <time>2011-02-07T12:54:06.000Z</time>
      </trkpt>
      <trkpt lat="45.31378" lon="6.19705">
        <ele>2433.6000976562</ele>
        <time>2011-02-07T12:54:11.000Z</time>
      </trkpt>
      <trkpt lat="45.31375" lon="6.19708">
        <ele>2435.6000976562</ele>
        <time>2011-02-07T12:54:33.000Z</time>
      </trkpt>
      <trkpt lat="45.31378" lon="6.19701">
        <ele>2435.3999023438</ele>
        <time>2011-02-07T12:56:10.000Z</time>
      </trkpt>
      <trkpt lat="45.31378" lon="6.197">
        <ele>2435</ele>
        <time>2011-02-07T12:56:11.000Z</time>
      </trkpt>
      <trkpt lat="45.31374" lon="6.19698">
        <ele>2433.6000976562</ele>
        <time>2011-02-07T12:56:20.000Z</time>
      </trkpt>
      <trkpt lat="45.31374" lon="6.19697">
        <ele>2433.1999511719</ele>
        <time>2011-02-07T12:56:21.000Z</time>
      </trkpt>
      <trkpt lat="45.31367" lon="6.19693">
        <ele>2432</ele>
        <time>2011-02-07T12:56:30.000Z</time>
      </trkpt>
      <trkpt lat="45.31367" lon="6.19693">
        <ele>2431.8000488281</ele>
        <time>2011-02-07T12:56:31.000Z</time>
      </trkpt>
      <trkpt lat="45.3137" lon="6.19697">
        <ele>2432.1999511719</ele>
        <time>2011-02-07T12:57:20.000Z</time>
      </trkpt>
      <trkpt lat="45.31374" lon="6.19695">
        <ele>2432.6000976562</ele>
        <time>2011-02-07T12:57:26.000Z</time>
      </trkpt>
      <trkpt lat="45.31371" lon="6.19695">
        <ele>2433.6000976562</ele>
        <time>2011-02-07T12:57:55.000Z</time>
      </trkpt>
      <trkpt lat="45.31366" lon="6.19694">
        <ele>2432.1999511719</ele>
        <time>2011-02-07T12:58:02.000Z</time>
      </trkpt>
      <trkpt lat="45.31366" lon="6.19694">
        <ele>2431.8000488281</ele>
        <time>2011-02-07T12:58:04.000Z</time>
      </trkpt>
      <trkpt lat="45.31365" lon="6.19709">
        <ele>2429.8000488281</ele>
        <time>2011-02-07T13:01:27.000Z</time>
      </trkpt>
      <trkpt lat="45.31367" lon="6.19712">
        <ele>2429.3999023438</ele>
        <time>2011-02-07T13:01:28.000Z</time>
      </trkpt>
      <trkpt lat="45.31372" lon="6.19721">
        <ele>2427.3999023438</ele>
        <time>2011-02-07T13:01:33.000Z</time>
      </trkpt>
      <trkpt lat="45.31365" lon="6.19721">
        <ele>2426.1999511719</ele>
        <time>2011-02-07T13:01:37.000Z</time>
      </trkpt>
      <trkpt lat="45.31364" lon="6.19724">
        <ele>2422.8000488281</ele>
        <time>2011-02-07T13:01:40.000Z</time>
      </trkpt>
      <trkpt lat="45.31361" lon="6.19728">
        <ele>2420</ele>
        <time>2011-02-07T13:01:43.000Z</time>
      </trkpt>
      <trkpt lat="45.31362" lon="6.19739">
        <ele>2419.3999023438</ele>
        <time>2011-02-07T13:01:45.000Z</time>
      </trkpt>
      <trkpt lat="45.31366" lon="6.19743">
        <ele>2415.6000976562</ele>
        <time>2011-02-07T13:01:47.000Z</time>
      </trkpt>
      <trkpt lat="45.3137" lon="6.19747">
        <ele>2411.8000488281</ele>
        <time>2011-02-07T13:01:50.000Z</time>
      </trkpt>
      <trkpt lat="45.31364" lon="6.19751">
        <ele>2409.1999511719</ele>
        <time>2011-02-07T13:01:54.000Z</time>
      </trkpt>
      <trkpt lat="45.31367" lon="6.19759">
        <ele>2407.1999511719</ele>
        <time>2011-02-07T13:01:56.000Z</time>
      </trkpt>
      <trkpt lat="45.31378" lon="6.19776">
        <ele>2401.8000488281</ele>
        <time>2011-02-07T13:02:01.000Z</time>
      </trkpt>
      <trkpt lat="45.3138" lon="6.19786">
        <ele>2399.6000976562</ele>
        <time>2011-02-07T13:02:04.000Z</time>
      </trkpt>
      <trkpt lat="45.3138" lon="6.19789">
        <ele>2399.3999023438</ele>
        <time>2011-02-07T13:02:05.000Z</time>
      </trkpt>
      <trkpt lat="45.31376" lon="6.19805">
        <ele>2396.6000976562</ele>
        <time>2011-02-07T13:02:11.000Z</time>
      </trkpt>
      <trkpt lat="45.31381" lon="6.19832">
        <ele>2389.1999511719</ele>
        <time>2011-02-07T13:02:17.000Z</time>
      </trkpt>
      <trkpt lat="45.31381" lon="6.19835">
        <ele>2389</ele>
        <time>2011-02-07T13:02:18.000Z</time>
      </trkpt>
      <trkpt lat="45.31381" lon="6.19838">
        <ele>2388.8000488281</ele>
        <time>2011-02-07T13:02:22.000Z</time>
      </trkpt>
      <trkpt lat="45.31365" lon="6.19842">
        <ele>2386</ele>
        <time>2011-02-07T13:02:32.000Z</time>
      </trkpt>
      <trkpt lat="45.31354" lon="6.1985">
        <ele>2378.6000976562</ele>
        <time>2011-02-07T13:02:37.000Z</time>
      </trkpt>
      <trkpt lat="45.31358" lon="6.19861">
        <ele>2374</ele>
        <time>2011-02-07T13:02:40.000Z</time>
      </trkpt>
      <trkpt lat="45.31359" lon="6.19868">
        <ele>2373</ele>
        <time>2011-02-07T13:02:42.000Z</time>
      </trkpt>
      <trkpt lat="45.31363" lon="6.19887">
        <ele>2370.6000976562</ele>
        <time>2011-02-07T13:02:47.000Z</time>
      </trkpt>
      <trkpt lat="45.31364" lon="6.19891">
        <ele>2369.8000488281</ele>
        <time>2011-02-07T13:02:50.000Z</time>
      </trkpt>
      <trkpt lat="45.31355" lon="6.19885">
        <ele>2369.3999023438</ele>
        <time>2011-02-07T13:03:08.000Z</time>
      </trkpt>
      <trkpt lat="45.3135" lon="6.1989">
        <ele>2364</ele>
        <time>2011-02-07T13:03:10.000Z</time>
      </trkpt>
      <trkpt lat="45.31341" lon="6.19886">
        <ele>2358.8000488281</ele>
        <time>2011-02-07T13:03:13.000Z</time>
      </trkpt>
      <trkpt lat="45.31339" lon="6.19888">
        <ele>2357.6000976562</ele>
        <time>2011-02-07T13:03:15.000Z</time>
      </trkpt>
      <trkpt lat="45.31326" lon="6.19886">
        <ele>2353</ele>
        <time>2011-02-07T13:03:18.000Z</time>
      </trkpt>
      <trkpt lat="45.31324" lon="6.19891">
        <ele>2349.8000488281</ele>
        <time>2011-02-07T13:03:20.000Z</time>
      </trkpt>
      <trkpt lat="45.31324" lon="6.19894">
        <ele>2346.8000488281</ele>
        <time>2011-02-07T13:03:23.000Z</time>
      </trkpt>
      <trkpt lat="45.31326" lon="6.19899">
        <ele>2345.8000488281</ele>
        <time>2011-02-07T13:03:46.000Z</time>
      </trkpt>
      <trkpt lat="45.31328" lon="6.19908">
        <ele>2345.1999511719</ele>
        <time>2011-02-07T13:03:48.000Z</time>
      </trkpt>
      <trkpt lat="45.31336" lon="6.19931">
        <ele>2342.1999511719</ele>
        <time>2011-02-07T13:03:53.000Z</time>
      </trkpt>
      <trkpt lat="45.31328" lon="6.19946">
        <ele>2339.1999511719</ele>
        <time>2011-02-07T13:03:57.000Z</time>
      </trkpt>
      <trkpt lat="45.31323" lon="6.19957">
        <ele>2335.3999023438</ele>
        <time>2011-02-07T13:04:00.000Z</time>
      </trkpt>
      <trkpt lat="45.31314" lon="6.19957">
        <ele>2332.1999511719</ele>
        <time>2011-02-07T13:04:02.000Z</time>
      </trkpt>
      <trkpt lat="45.31314" lon="6.19971">
        <ele>2328.8000488281</ele>
        <time>2011-02-07T13:04:04.000Z</time>
      </trkpt>
      <trkpt lat="45.31312" lon="6.19995">
        <ele>2322.3999023438</ele>
        <time>2011-02-07T13:04:07.000Z</time>
      </trkpt>
      <trkpt lat="45.3131" lon="6.20026">
        <ele>2315.6000976562</ele>
        <time>2011-02-07T13:04:10.000Z</time>
      </trkpt>
      <trkpt lat="45.3131" lon="6.20035">
        <ele>2314</ele>
        <time>2011-02-07T13:04:11.000Z</time>
      </trkpt>
      <trkpt lat="45.31309" lon="6.20052">
        <ele>2312.8000488281</ele>
        <time>2011-02-07T13:04:13.000Z</time>
      </trkpt>
      <trkpt lat="45.31315" lon="6.20083">
        <ele>2310</ele>
        <time>2011-02-07T13:04:17.000Z</time>
      </trkpt>
      <trkpt lat="45.31319" lon="6.20095">
        <ele>2309</ele>
        <time>2011-02-07T13:04:19.000Z</time>
      </trkpt>
      <trkpt lat="45.31331" lon="6.2012">
        <ele>2306.3999023438</ele>
        <time>2011-02-07T13:04:24.000Z</time>
      </trkpt>
      <trkpt lat="45.31332" lon="6.20121">
        <ele>2306.1999511719</ele>
        <time>2011-02-07T13:04:25.000Z</time>
      </trkpt>
      <trkpt lat="45.31334" lon="6.20127">
        <ele>2305.3999023438</ele>
        <time>2011-02-07T13:04:29.000Z</time>
      </trkpt>
      <trkpt lat="45.31339" lon="6.20142">
        <ele>2303.6000976562</ele>
        <time>2011-02-07T13:04:37.000Z</time>
      </trkpt>
      <trkpt lat="45.31347" lon="6.20174">
        <ele>2298.8000488281</ele>
        <time>2011-02-07T13:04:44.000Z</time>
      </trkpt>
      <trkpt lat="45.31338" lon="6.20182">
        <ele>2297.3999023438</ele>
        <time>2011-02-07T13:04:47.000Z</time>
      </trkpt>
      <trkpt lat="45.31333" lon="6.2018">
        <ele>2295.8000488281</ele>
        <time>2011-02-07T13:04:49.000Z</time>
      </trkpt>
      <trkpt lat="45.31335" lon="6.20195">
        <ele>2290.8000488281</ele>
        <time>2011-02-07T13:04:52.000Z</time>
      </trkpt>
      <trkpt lat="45.31324" lon="6.20197">
        <ele>2286.1999511719</ele>
        <time>2011-02-07T13:04:55.000Z</time>
      </trkpt>
      <trkpt lat="45.31321" lon="6.20207">
        <ele>2282.3999023438</ele>
        <time>2011-02-07T13:04:58.000Z</time>
      </trkpt>
      <trkpt lat="45.31319" lon="6.20217">
        <ele>2278</ele>
        <time>2011-02-07T13:05:01.000Z</time>
      </trkpt>
      <trkpt lat="45.31318" lon="6.20225">
        <ele>2275.8000488281</ele>
        <time>2011-02-07T13:05:04.000Z</time>
      </trkpt>
      <trkpt lat="45.31318" lon="6.20225">
        <ele>2274.6000976562</ele>
        <time>2011-02-07T13:05:06.000Z</time>
      </trkpt>
      <trkpt lat="45.31318" lon="6.20231">
        <ele>2273.6000976562</ele>
        <time>2011-02-07T13:05:51.000Z</time>
      </trkpt>
      <trkpt lat="45.31321" lon="6.20253">
        <ele>2270.8000488281</ele>
        <time>2011-02-07T13:05:55.000Z</time>
      </trkpt>
      <trkpt lat="45.31324" lon="6.20264">
        <ele>2269.8000488281</ele>
        <time>2011-02-07T13:05:57.000Z</time>
      </trkpt>
      <trkpt lat="45.31327" lon="6.20288">
        <ele>2266.1999511719</ele>
        <time>2011-02-07T13:06:02.000Z</time>
      </trkpt>
      <trkpt lat="45.3132" lon="6.20287">
        <ele>2264.1999511719</ele>
        <time>2011-02-07T13:06:05.000Z</time>
      </trkpt>
      <trkpt lat="45.31315" lon="6.20282">
        <ele>2262.3999023438</ele>
        <time>2011-02-07T13:06:08.000Z</time>
      </trkpt>
      <trkpt lat="45.31312" lon="6.20294">
        <ele>2259.6000976562</ele>
        <time>2011-02-07T13:06:10.000Z</time>
      </trkpt>
      <trkpt lat="45.31301" lon="6.20292">
        <ele>2255.3999023438</ele>
        <time>2011-02-07T13:06:13.000Z</time>
      </trkpt>
      <trkpt lat="45.31298" lon="6.20308">
        <ele>2250.6000976562</ele>
        <time>2011-02-07T13:06:16.000Z</time>
      </trkpt>
      <trkpt lat="45.31299" lon="6.20318">
        <ele>2249.3999023438</ele>
        <time>2011-02-07T13:06:17.000Z</time>
      </trkpt>
      <trkpt lat="45.31302" lon="6.20371">
        <ele>2242.1999511719</ele>
        <time>2011-02-07T13:06:23.000Z</time>
      </trkpt>
      <trkpt lat="45.31302" lon="6.20421">
        <ele>2237.1999511719</ele>
        <time>2011-02-07T13:06:31.000Z</time>
      </trkpt>
      <trkpt lat="45.31305" lon="6.20453">
        <ele>2234</ele>
        <time>2011-02-07T13:06:37.000Z</time>
      </trkpt>
      <trkpt lat="45.31306" lon="6.20455">
        <ele>2233.6000976562</ele>
        <time>2011-02-07T13:06:40.000Z</time>
      </trkpt>
      <trkpt lat="45.31307" lon="6.20468">
        <ele>2232.6000976562</ele>
        <time>2011-02-07T13:07:29.000Z</time>
      </trkpt>
      <trkpt lat="45.31309" lon="6.20479">
        <ele>2231.1999511719</ele>
        <time>2011-02-07T13:07:31.000Z</time>
      </trkpt>
      <trkpt lat="45.31315" lon="6.20507">
        <ele>2226.6000976562</ele>
        <time>2011-02-07T13:07:35.000Z</time>
      </trkpt>
      <trkpt lat="45.31319" lon="6.2055">
        <ele>2222</ele>
        <time>2011-02-07T13:07:40.000Z</time>
      </trkpt>
      <trkpt lat="45.3132" lon="6.20558">
        <ele>2221.1999511719</ele>
        <time>2011-02-07T13:07:41.000Z</time>
      </trkpt>
      <trkpt lat="45.31325" lon="6.20597">
        <ele>2219.6000976562</ele>
        <time>2011-02-07T13:07:48.000Z</time>
      </trkpt>
      <trkpt lat="45.31325" lon="6.20602">
        <ele>2219</ele>
        <time>2011-02-07T13:07:51.000Z</time>
      </trkpt>
      <trkpt lat="45.31325" lon="6.20606">
        <ele>2219</ele>
        <time>2011-02-07T13:08:24.000Z</time>
      </trkpt>
      <trkpt lat="45.31335" lon="6.20612">
        <ele>2217.8000488281</ele>
        <time>2011-02-07T13:08:28.000Z</time>
      </trkpt>
      <trkpt lat="45.31337" lon="6.20614">
        <ele>2217.3999023438</ele>
        <time>2011-02-07T13:08:31.000Z</time>
      </trkpt>
      <trkpt lat="45.31341" lon="6.20617">
        <ele>2217.6000976562</ele>
        <time>2011-02-07T13:08:38.000Z</time>
      </trkpt>
      <trkpt lat="45.31352" lon="6.20626">
        <ele>2216.6000976562</ele>
        <time>2011-02-07T13:08:44.000Z</time>
      </trkpt>
      <trkpt lat="45.31372" lon="6.2064">
        <ele>2211.3999023438</ele>
        <time>2011-02-07T13:08:48.000Z</time>
      </trkpt>
      <trkpt lat="45.31386" lon="6.20659">
        <ele>2206.1999511719</ele>
        <time>2011-02-07T13:08:52.000Z</time>
      </trkpt>
      <trkpt lat="45.31391" lon="6.20667">
        <ele>2203.8000488281</ele>
        <time>2011-02-07T13:08:55.000Z</time>
      </trkpt>
      <trkpt lat="45.31381" lon="6.20672">
        <ele>2201.8000488281</ele>
        <time>2011-02-07T13:08:59.000Z</time>
      </trkpt>
      <trkpt lat="45.31374" lon="6.20681">
        <ele>2198.3999023438</ele>
        <time>2011-02-07T13:09:02.000Z</time>
      </trkpt>
      <trkpt lat="45.3137" lon="6.20689">
        <ele>2193</ele>
        <time>2011-02-07T13:09:04.000Z</time>
      </trkpt>
      <trkpt lat="45.31358" lon="6.20702">
        <ele>2184.1999511719</ele>
        <time>2011-02-07T13:09:08.000Z</time>
      </trkpt>
      <trkpt lat="45.31365" lon="6.20717">
        <ele>2179.6000976562</ele>
        <time>2011-02-07T13:09:11.000Z</time>
      </trkpt>
      <trkpt lat="45.31372" lon="6.20729">
        <ele>2177.1999511719</ele>
        <time>2011-02-07T13:09:15.000Z</time>
      </trkpt>
      <trkpt lat="45.31382" lon="6.2075">
        <ele>2174</ele>
        <time>2011-02-07T13:09:21.000Z</time>
      </trkpt>
      <trkpt lat="45.31384" lon="6.20753">
        <ele>2173.8000488281</ele>
        <time>2011-02-07T13:09:22.000Z</time>
      </trkpt>
      <trkpt lat="45.31384" lon="6.20758">
        <ele>2173.8000488281</ele>
        <time>2011-02-07T13:09:25.000Z</time>
      </trkpt>
      <trkpt lat="45.31374" lon="6.20768">
        <ele>2171</ele>
        <time>2011-02-07T13:09:38.000Z</time>
      </trkpt>
      <trkpt lat="45.31364" lon="6.20777">
        <ele>2162.6000976562</ele>
        <time>2011-02-07T13:09:42.000Z</time>
      </trkpt>
      <trkpt lat="45.31359" lon="6.20774">
        <ele>2160.3999023438</ele>
        <time>2011-02-07T13:09:44.000Z</time>
      </trkpt>
      <trkpt lat="45.31357" lon="6.20786">
        <ele>2156.8000488281</ele>
        <time>2011-02-07T13:09:47.000Z</time>
      </trkpt>
      <trkpt lat="45.3136" lon="6.20791">
        <ele>2154.8000488281</ele>
        <time>2011-02-07T13:09:48.000Z</time>
      </trkpt>
      <trkpt lat="45.31367" lon="6.20801">
        <ele>2150.1999511719</ele>
        <time>2011-02-07T13:09:52.000Z</time>
      </trkpt>
      <trkpt lat="45.31367" lon="6.208">
        <ele>2150.1999511719</ele>
        <time>2011-02-07T13:09:53.000Z</time>
      </trkpt>
      <trkpt lat="45.31369" lon="6.20827">
        <ele>2145.3999023438</ele>
        <time>2011-02-07T13:10:14.000Z</time>
      </trkpt>
      <trkpt lat="45.31372" lon="6.2084">
        <ele>2143.1999511719</ele>
        <time>2011-02-07T13:10:17.000Z</time>
      </trkpt>
      <trkpt lat="45.31371" lon="6.20843">
        <ele>2142.3999023438</ele>
        <time>2011-02-07T13:10:18.000Z</time>
      </trkpt>
      <trkpt lat="45.31359" lon="6.20842">
        <ele>2139.6000976562</ele>
        <time>2011-02-07T13:10:21.000Z</time>
      </trkpt>
      <trkpt lat="45.31358" lon="6.20851">
        <ele>2137</ele>
        <time>2011-02-07T13:10:23.000Z</time>
      </trkpt>
      <trkpt lat="45.3135" lon="6.20869">
        <ele>2130.6000976562</ele>
        <time>2011-02-07T13:10:26.000Z</time>
      </trkpt>
      <trkpt lat="45.31344" lon="6.20872">
        <ele>2127.8000488281</ele>
        <time>2011-02-07T13:10:28.000Z</time>
      </trkpt>
      <trkpt lat="45.31344" lon="6.20888">
        <ele>2123.1999511719</ele>
        <time>2011-02-07T13:10:30.000Z</time>
      </trkpt>
      <trkpt lat="45.31348" lon="6.20899">
        <ele>2120.3999023438</ele>
        <time>2011-02-07T13:10:32.000Z</time>
      </trkpt>
      <trkpt lat="45.31349" lon="6.20902">
        <ele>2119</ele>
        <time>2011-02-07T13:10:34.000Z</time>
      </trkpt>
      <trkpt lat="45.31349" lon="6.20901">
        <ele>2118.8000488281</ele>
        <time>2011-02-07T13:10:35.000Z</time>
      </trkpt>
      <trkpt lat="45.31337" lon="6.20913">
        <ele>2110.3999023438</ele>
        <time>2011-02-07T13:10:51.000Z</time>
      </trkpt>
      <trkpt lat="45.31338" lon="6.20936">
        <ele>2102.1999511719</ele>
        <time>2011-02-07T13:10:56.000Z</time>
      </trkpt>
      <trkpt lat="45.31322" lon="6.20942">
        <ele>2098.6000976562</ele>
        <time>2011-02-07T13:10:59.000Z</time>
      </trkpt>
      <trkpt lat="45.31311" lon="6.20946">
        <ele>2095.1999511719</ele>
        <time>2011-02-07T13:11:02.000Z</time>
      </trkpt>
      <trkpt lat="45.31309" lon="6.20956">
        <ele>2092.6000976562</ele>
        <time>2011-02-07T13:11:04.000Z</time>
      </trkpt>
      <trkpt lat="45.31311" lon="6.20964">
        <ele>2091.3999023438</ele>
        <time>2011-02-07T13:11:05.000Z</time>
      </trkpt>
      <trkpt lat="45.3132" lon="6.20999">
        <ele>2086.6000976562</ele>
        <time>2011-02-07T13:11:10.000Z</time>
      </trkpt>
      <trkpt lat="45.31321" lon="6.21002">
        <ele>2086.3999023438</ele>
        <time>2011-02-07T13:11:11.000Z</time>
      </trkpt>
      <trkpt lat="45.31314" lon="6.21016">
        <ele>2084.6000976562</ele>
        <time>2011-02-07T13:11:14.000Z</time>
      </trkpt>
      <trkpt lat="45.31313" lon="6.21034">
        <ele>2080.6000976562</ele>
        <time>2011-02-07T13:11:16.000Z</time>
      </trkpt>
      <trkpt lat="45.31302" lon="6.21045">
        <ele>2077.3999023438</ele>
        <time>2011-02-07T13:11:18.000Z</time>
      </trkpt>
      <trkpt lat="45.31288" lon="6.21058">
        <ele>2073.6000976562</ele>
        <time>2011-02-07T13:11:22.000Z</time>
      </trkpt>
      <trkpt lat="45.31289" lon="6.21064">
        <ele>2073.3999023438</ele>
        <time>2011-02-07T13:11:23.000Z</time>
      </trkpt>
      <trkpt lat="45.31292" lon="6.21083">
        <ele>2071.3999023438</ele>
        <time>2011-02-07T13:11:27.000Z</time>
      </trkpt>
      <trkpt lat="45.31292" lon="6.21084">
        <ele>2071.3999023438</ele>
        <time>2011-02-07T13:11:30.000Z</time>
      </trkpt>
      <trkpt lat="45.31304" lon="6.21083">
        <ele>2070</ele>
        <time>2011-02-07T13:11:40.000Z</time>
      </trkpt>
      <trkpt lat="45.31306" lon="6.21084">
        <ele>2069.3999023438</ele>
        <time>2011-02-07T13:11:41.000Z</time>
      </trkpt>
      <trkpt lat="45.31313" lon="6.21083">
        <ele>2068.1999511719</ele>
        <time>2011-02-07T13:11:47.000Z</time>
      </trkpt>
      <trkpt lat="45.31314" lon="6.21083">
        <ele>2067.6000976562</ele>
        <time>2011-02-07T13:11:49.000Z</time>
      </trkpt>
      <trkpt lat="45.3133" lon="6.21098">
        <ele>2065.6000976562</ele>
        <time>2011-02-07T13:12:18.000Z</time>
      </trkpt>
      <trkpt lat="45.31339" lon="6.21112">
        <ele>2063.3999023438</ele>
        <time>2011-02-07T13:12:21.000Z</time>
      </trkpt>
      <trkpt lat="45.31351" lon="6.2115">
        <ele>2059</ele>
        <time>2011-02-07T13:12:26.000Z</time>
      </trkpt>
      <trkpt lat="45.31354" lon="6.21213">
        <ele>2054.1999511719</ele>
        <time>2011-02-07T13:12:33.000Z</time>
      </trkpt>
      <trkpt lat="45.31355" lon="6.21253">
        <ele>2051.6000976562</ele>
        <time>2011-02-07T13:12:38.000Z</time>
      </trkpt>
      <trkpt lat="45.31355" lon="6.21275">
        <ele>2050.3999023438</ele>
        <time>2011-02-07T13:12:42.000Z</time>
      </trkpt>
      <trkpt lat="45.31356" lon="6.21286">
        <ele>2050.1999511719</ele>
        <time>2011-02-07T13:12:48.000Z</time>
      </trkpt>
      <trkpt lat="45.31356" lon="6.21286">
        <ele>2050.1999511719</ele>
        <time>2011-02-07T13:12:49.000Z</time>
      </trkpt>
      <trkpt lat="45.3134" lon="6.21296">
        <ele>2048.1999511719</ele>
        <time>2011-02-07T13:13:04.000Z</time>
      </trkpt>
      <trkpt lat="45.3133" lon="6.21295">
        <ele>2044.4000244141</ele>
        <time>2011-02-07T13:13:06.000Z</time>
      </trkpt>
      <trkpt lat="45.31318" lon="6.21306">
        <ele>2033.8000488281</ele>
        <time>2011-02-07T13:13:10.000Z</time>
      </trkpt>
      <trkpt lat="45.31321" lon="6.21323">
        <ele>2030</ele>
        <time>2011-02-07T13:13:13.000Z</time>
      </trkpt>
      <trkpt lat="45.31312" lon="6.21334">
        <ele>2024.8000488281</ele>
        <time>2011-02-07T13:13:17.000Z</time>
      </trkpt>
      <trkpt lat="45.31302" lon="6.21334">
        <ele>2018.1999511719</ele>
        <time>2011-02-07T13:13:20.000Z</time>
      </trkpt>
      <trkpt lat="45.31301" lon="6.21345">
        <ele>2014.8000488281</ele>
        <time>2011-02-07T13:13:22.000Z</time>
      </trkpt>
      <trkpt lat="45.313" lon="6.21359">
        <ele>2010.4000244141</ele>
        <time>2011-02-07T13:13:25.000Z</time>
      </trkpt>
      <trkpt lat="45.31291" lon="6.21374">
        <ele>2005.1999511719</ele>
        <time>2011-02-07T13:13:29.000Z</time>
      </trkpt>
      <trkpt lat="45.31282" lon="6.21383">
        <ele>2000.5999755859</ele>
        <time>2011-02-07T13:13:32.000Z</time>
      </trkpt>
      <trkpt lat="45.31274" lon="6.2139">
        <ele>1996</ele>
        <time>2011-02-07T13:13:34.000Z</time>
      </trkpt>
      <trkpt lat="45.31263" lon="6.21411">
        <ele>1990.4000244141</ele>
        <time>2011-02-07T13:13:37.000Z</time>
      </trkpt>
      <trkpt lat="45.31261" lon="6.21427">
        <ele>1985.1999511719</ele>
        <time>2011-02-07T13:13:40.000Z</time>
      </trkpt>
      <trkpt lat="45.31247" lon="6.21437">
        <ele>1981</ele>
        <time>2011-02-07T13:13:43.000Z</time>
      </trkpt>
      <trkpt lat="45.31238" lon="6.21455">
        <ele>1975</ele>
        <time>2011-02-07T13:13:46.000Z</time>
      </trkpt>
      <trkpt lat="45.3123" lon="6.21471">
        <ele>1970</ele>
        <time>2011-02-07T13:13:49.000Z</time>
      </trkpt>
      <trkpt lat="45.31223" lon="6.21495">
        <ele>1964.8000488281</ele>
        <time>2011-02-07T13:13:52.000Z</time>
      </trkpt>
      <trkpt lat="45.31206" lon="6.21496">
        <ele>1958.8000488281</ele>
        <time>2011-02-07T13:13:55.000Z</time>
      </trkpt>
      <trkpt lat="45.31201" lon="6.21514">
        <ele>1955.4000244141</ele>
        <time>2011-02-07T13:13:58.000Z</time>
      </trkpt>
      <trkpt lat="45.31198" lon="6.21527">
        <ele>1952.5999755859</ele>
        <time>2011-02-07T13:14:00.000Z</time>
      </trkpt>
      <trkpt lat="45.31195" lon="6.21535">
        <ele>1951.5999755859</ele>
        <time>2011-02-07T13:14:01.000Z</time>
      </trkpt>
      <trkpt lat="45.31192" lon="6.21576">
        <ele>1943.4000244141</ele>
        <time>2011-02-07T13:14:06.000Z</time>
      </trkpt>
      <trkpt lat="45.31186" lon="6.21599">
        <ele>1938.1999511719</ele>
        <time>2011-02-07T13:14:10.000Z</time>
      </trkpt>
      <trkpt lat="45.31177" lon="6.21606">
        <ele>1934.1999511719</ele>
        <time>2011-02-07T13:14:13.000Z</time>
      </trkpt>
      <trkpt lat="45.31175" lon="6.21621">
        <ele>1930.8000488281</ele>
        <time>2011-02-07T13:14:16.000Z</time>
      </trkpt>
      <trkpt lat="45.31165" lon="6.21627">
        <ele>1924</ele>
        <time>2011-02-07T13:14:20.000Z</time>
      </trkpt>
      <trkpt lat="45.3116" lon="6.21629">
        <ele>1919.8000488281</ele>
        <time>2011-02-07T13:14:23.000Z</time>
      </trkpt>
      <trkpt lat="45.31147" lon="6.21646">
        <ele>1916</ele>
        <time>2011-02-07T13:14:26.000Z</time>
      </trkpt>
      <trkpt lat="45.3114" lon="6.21654">
        <ele>1912.8000488281</ele>
        <time>2011-02-07T13:14:29.000Z</time>
      </trkpt>
      <trkpt lat="45.31138" lon="6.21649">
        <ele>1909.1999511719</ele>
        <time>2011-02-07T13:14:32.000Z</time>
      </trkpt>
      <trkpt lat="45.31139" lon="6.21672">
        <ele>1904.8000488281</ele>
        <time>2011-02-07T13:15:13.000Z</time>
      </trkpt>
      <trkpt lat="45.31145" lon="6.21689">
        <ele>1901.8000488281</ele>
        <time>2011-02-07T13:15:16.000Z</time>
      </trkpt>
      <trkpt lat="45.31136" lon="6.21713">
        <ele>1898.1999511719</ele>
        <time>2011-02-07T13:15:20.000Z</time>
      </trkpt>
      <trkpt lat="45.31133" lon="6.21728">
        <ele>1896.5999755859</ele>
        <time>2011-02-07T13:15:22.000Z</time>
      </trkpt>
      <trkpt lat="45.31128" lon="6.21756">
        <ele>1888.5999755859</ele>
        <time>2011-02-07T13:15:27.000Z</time>
      </trkpt>
      <trkpt lat="45.31119" lon="6.21772">
        <ele>1881.5999755859</ele>
        <time>2011-02-07T13:15:30.000Z</time>
      </trkpt>
      <trkpt lat="45.31114" lon="6.21784">
        <ele>1877.5999755859</ele>
        <time>2011-02-07T13:15:33.000Z</time>
      </trkpt>
      <trkpt lat="45.31109" lon="6.21793">
        <ele>1875.4000244141</ele>
        <time>2011-02-07T13:15:35.000Z</time>
      </trkpt>
      <trkpt lat="45.31105" lon="6.21817">
        <ele>1873.1999511719</ele>
        <time>2011-02-07T13:15:40.000Z</time>
      </trkpt>
      <trkpt lat="45.31103" lon="6.21821">
        <ele>1873</ele>
        <time>2011-02-07T13:15:41.000Z</time>
      </trkpt>
      <trkpt lat="45.31095" lon="6.21814">
        <ele>1869.1999511719</ele>
        <time>2011-02-07T13:15:44.000Z</time>
      </trkpt>
      <trkpt lat="45.31085" lon="6.21815">
        <ele>1864.4000244141</ele>
        <time>2011-02-07T13:15:47.000Z</time>
      </trkpt>
      <trkpt lat="45.31084" lon="6.21806">
        <ele>1861</ele>
        <time>2011-02-07T13:15:49.000Z</time>
      </trkpt>
      <trkpt lat="45.31086" lon="6.21802">
        <ele>1860.1999511719</ele>
        <time>2011-02-07T13:15:51.000Z</time>
      </trkpt>
      <trkpt lat="45.31078" lon="6.2181">
        <ele>1858.4000244141</ele>
        <time>2011-02-07T13:16:02.000Z</time>
      </trkpt>
      <trkpt lat="45.31073" lon="6.21816">
        <ele>1856.8000488281</ele>
        <time>2011-02-07T13:16:05.000Z</time>
      </trkpt>
      <trkpt lat="45.31069" lon="6.21814">
        <ele>1855.4000244141</ele>
        <time>2011-02-07T13:16:08.000Z</time>
      </trkpt>
      <trkpt lat="45.31069" lon="6.21814">
        <ele>1855.1999511719</ele>
        <time>2011-02-07T13:16:09.000Z</time>
      </trkpt>
      <trkpt lat="45.31061" lon="6.21812">
        <ele>1854</ele>
        <time>2011-02-07T13:16:15.000Z</time>
      </trkpt>
      <trkpt lat="45.31045" lon="6.21814">
        <ele>1852.1999511719</ele>
        <time>2011-02-07T13:16:19.000Z</time>
      </trkpt>
      <trkpt lat="45.31033" lon="6.21813">
        <ele>1850.5999755859</ele>
        <time>2011-02-07T13:16:22.000Z</time>
      </trkpt>
      <trkpt lat="45.3103" lon="6.21812">
        <ele>1850.8000488281</ele>
        <time>2011-02-07T13:16:25.000Z</time>
      </trkpt>
      <trkpt lat="45.31016" lon="6.2181">
        <ele>1848.8000488281</ele>
        <time>2011-02-07T13:16:59.000Z</time>
      </trkpt>
      <trkpt lat="45.31015" lon="6.21809">
        <ele>1848.4000244141</ele>
        <time>2011-02-07T13:17:00.000Z</time>
      </trkpt>
      <trkpt lat="45.31008" lon="6.21814">
        <ele>1846.8000488281</ele>
        <time>2011-02-07T13:17:04.000Z</time>
      </trkpt>
      <trkpt lat="45.31006" lon="6.21823">
        <ele>1844.5999755859</ele>
        <time>2011-02-07T13:17:07.000Z</time>
      </trkpt>
      <trkpt lat="45.30998" lon="6.21822">
        <ele>1842.1999511719</ele>
        <time>2011-02-07T13:17:10.000Z</time>
      </trkpt>
      <trkpt lat="45.30995" lon="6.21823">
        <ele>1841.4000244141</ele>
        <time>2011-02-07T13:17:11.000Z</time>
      </trkpt>
      <trkpt lat="45.30984" lon="6.21827">
        <ele>1839.4000244141</ele>
        <time>2011-02-07T13:17:14.000Z</time>
      </trkpt>
      <trkpt lat="45.30972" lon="6.21837">
        <ele>1836.1999511719</ele>
        <time>2011-02-07T13:17:18.000Z</time>
      </trkpt>
      <trkpt lat="45.3097" lon="6.2185">
        <ele>1833.5999755859</ele>
        <time>2011-02-07T13:17:21.000Z</time>
      </trkpt>
      <trkpt lat="45.30968" lon="6.21864">
        <ele>1829.1999511719</ele>
        <time>2011-02-07T13:17:24.000Z</time>
      </trkpt>
      <trkpt lat="45.30975" lon="6.21874">
        <ele>1827.5999755859</ele>
        <time>2011-02-07T13:17:26.000Z</time>
      </trkpt>
      <trkpt lat="45.30963" lon="6.21881">
        <ele>1822.4000244141</ele>
        <time>2011-02-07T13:17:29.000Z</time>
      </trkpt>
      <trkpt lat="45.30952" lon="6.2188">
        <ele>1820.5999755859</ele>
        <time>2011-02-07T13:17:31.000Z</time>
      </trkpt>
      <trkpt lat="45.30944" lon="6.21887">
        <ele>1817.4000244141</ele>
        <time>2011-02-07T13:17:35.000Z</time>
      </trkpt>
      <trkpt lat="45.30936" lon="6.219">
        <ele>1814</ele>
        <time>2011-02-07T13:17:38.000Z</time>
      </trkpt>
      <trkpt lat="45.30927" lon="6.21907">
        <ele>1808.5999755859</ele>
        <time>2011-02-07T13:17:41.000Z</time>
      </trkpt>
      <trkpt lat="45.3092" lon="6.21917">
        <ele>1806.1999511719</ele>
        <time>2011-02-07T13:17:44.000Z</time>
      </trkpt>
      <trkpt lat="45.30908" lon="6.21923">
        <ele>1804</ele>
        <time>2011-02-07T13:17:47.000Z</time>
      </trkpt>
      <trkpt lat="45.30907" lon="6.21936">
        <ele>1797.5999755859</ele>
        <time>2011-02-07T13:17:50.000Z</time>
      </trkpt>
      <trkpt lat="45.30904" lon="6.21957">
        <ele>1793.8000488281</ele>
        <time>2011-02-07T13:17:54.000Z</time>
      </trkpt>
      <trkpt lat="45.30902" lon="6.21968">
        <ele>1791.1999511719</ele>
        <time>2011-02-07T13:17:58.000Z</time>
      </trkpt>
      <trkpt lat="45.30901" lon="6.21969">
        <ele>1788.4000244141</ele>
        <time>2011-02-07T13:18:01.000Z</time>
      </trkpt>
      <trkpt lat="45.30908" lon="6.21978">
        <ele>1786.1999511719</ele>
        <time>2011-02-07T13:18:15.000Z</time>
      </trkpt>
      <trkpt lat="45.30923" lon="6.21981">
        <ele>1782</ele>
        <time>2011-02-07T13:18:20.000Z</time>
      </trkpt>
      <trkpt lat="45.30921" lon="6.21987">
        <ele>1780.8000488281</ele>
        <time>2011-02-07T13:18:21.000Z</time>
      </trkpt>
      <trkpt lat="45.30924" lon="6.22004">
        <ele>1777.1999511719</ele>
        <time>2011-02-07T13:18:25.000Z</time>
      </trkpt>
      <trkpt lat="45.30918" lon="6.22013">
        <ele>1772.5999755859</ele>
        <time>2011-02-07T13:18:28.000Z</time>
      </trkpt>
      <trkpt lat="45.30913" lon="6.22024">
        <ele>1767.4000244141</ele>
        <time>2011-02-07T13:18:31.000Z</time>
      </trkpt>
      <trkpt lat="45.30915" lon="6.22029">
        <ele>1764.5999755859</ele>
        <time>2011-02-07T13:18:34.000Z</time>
      </trkpt>
      <trkpt lat="45.30916" lon="6.22029">
        <ele>1764</ele>
        <time>2011-02-07T13:18:35.000Z</time>
      </trkpt>
      <trkpt lat="45.30911" lon="6.22036">
        <ele>1761.5999755859</ele>
        <time>2011-02-07T13:18:40.000Z</time>
      </trkpt>
      <trkpt lat="45.30911" lon="6.22039">
        <ele>1759.4000244141</ele>
        <time>2011-02-07T13:18:43.000Z</time>
      </trkpt>
      <trkpt lat="45.30904" lon="6.22045">
        <ele>1755.5999755859</ele>
        <time>2011-02-07T13:18:54.000Z</time>
      </trkpt>
      <trkpt lat="45.30911" lon="6.22056">
        <ele>1752.5999755859</ele>
        <time>2011-02-07T13:19:00.000Z</time>
      </trkpt>
      <trkpt lat="45.30906" lon="6.2206">
        <ele>1750.4000244141</ele>
        <time>2011-02-07T13:19:04.000Z</time>
      </trkpt>
      <trkpt lat="45.30899" lon="6.22054">
        <ele>1749.5999755859</ele>
        <time>2011-02-07T13:19:16.000Z</time>
      </trkpt>
      <trkpt lat="45.30893" lon="6.22059">
        <ele>1749.4000244141</ele>
        <time>2011-02-07T13:19:37.000Z</time>
      </trkpt>
      <trkpt lat="45.30891" lon="6.22064">
        <ele>1747.8000488281</ele>
        <time>2011-02-07T13:21:54.000Z</time>
      </trkpt>
      <trkpt lat="45.30882" lon="6.22064">
        <ele>1746.5999755859</ele>
        <time>2011-02-07T13:21:58.000Z</time>
      </trkpt>
      <trkpt lat="45.30867" lon="6.2206">
        <ele>1744.8000488281</ele>
        <time>2011-02-07T13:22:04.000Z</time>
      </trkpt>
      <trkpt lat="45.30844" lon="6.22056">
        <ele>1742</ele>
        <time>2011-02-07T13:22:11.000Z</time>
      </trkpt>
      <trkpt lat="45.30827" lon="6.22059">
        <ele>1740.5999755859</ele>
        <time>2011-02-07T13:22:16.000Z</time>
      </trkpt>
      <trkpt lat="45.30814" lon="6.22056">
        <ele>1738.8000488281</ele>
        <time>2011-02-07T13:22:19.000Z</time>
      </trkpt>
      <trkpt lat="45.30798" lon="6.22062">
        <ele>1737.4000244141</ele>
        <time>2011-02-07T13:22:23.000Z</time>
      </trkpt>
      <trkpt lat="45.30787" lon="6.22071">
        <ele>1736</ele>
        <time>2011-02-07T13:22:26.000Z</time>
      </trkpt>
      <trkpt lat="45.30773" lon="6.22086">
        <ele>1733.8000488281</ele>
        <time>2011-02-07T13:22:30.000Z</time>
      </trkpt>
      <trkpt lat="45.30754" lon="6.22098">
        <ele>1730.1999511719</ele>
        <time>2011-02-07T13:22:34.000Z</time>
      </trkpt>
      <trkpt lat="45.30736" lon="6.22091">
        <ele>1727.4000244141</ele>
        <time>2011-02-07T13:22:37.000Z</time>
      </trkpt>
      <trkpt lat="45.30729" lon="6.2209">
        <ele>1726.1999511719</ele>
        <time>2011-02-07T13:22:38.000Z</time>
      </trkpt>
      <trkpt lat="45.30705" lon="6.22109">
        <ele>1722.5999755859</ele>
        <time>2011-02-07T13:22:43.000Z</time>
      </trkpt>
      <trkpt lat="45.30694" lon="6.22131">
        <ele>1721.4000244141</ele>
        <time>2011-02-07T13:22:47.000Z</time>
      </trkpt>
      <trkpt lat="45.30671" lon="6.22158">
        <ele>1717.5999755859</ele>
        <time>2011-02-07T13:22:52.000Z</time>
      </trkpt>
      <trkpt lat="45.30666" lon="6.22165">
        <ele>1716.8000488281</ele>
        <time>2011-02-07T13:22:53.000Z</time>
      </trkpt>
      <trkpt lat="45.30649" lon="6.22178">
        <ele>1715</ele>
        <time>2011-02-07T13:22:56.000Z</time>
      </trkpt>
      <trkpt lat="45.3063" lon="6.22193">
        <ele>1713</ele>
        <time>2011-02-07T13:23:00.000Z</time>
      </trkpt>
      <trkpt lat="45.30621" lon="6.222">
        <ele>1711.8000488281</ele>
        <time>2011-02-07T13:23:02.000Z</time>
      </trkpt>
      <trkpt lat="45.30609" lon="6.22205">
        <ele>1710</ele>
        <time>2011-02-07T13:23:04.000Z</time>
      </trkpt>
      <trkpt lat="45.30592" lon="6.2221">
        <ele>1707.8000488281</ele>
        <time>2011-02-07T13:23:07.000Z</time>
      </trkpt>
      <trkpt lat="45.30564" lon="6.22207">
        <ele>1704.1999511719</ele>
        <time>2011-02-07T13:23:12.000Z</time>
      </trkpt>
      <trkpt lat="45.30536" lon="6.22191">
        <ele>1700</ele>
        <time>2011-02-07T13:23:17.000Z</time>
      </trkpt>
      <trkpt lat="45.30531" lon="6.22188">
        <ele>1698.8000488281</ele>
        <time>2011-02-07T13:23:18.000Z</time>
      </trkpt>
      <trkpt lat="45.30495" lon="6.22169">
        <ele>1694.8000488281</ele>
        <time>2011-02-07T13:23:24.000Z</time>
      </trkpt>
      <trkpt lat="45.30462" lon="6.22154">
        <ele>1692</ele>
        <time>2011-02-07T13:23:29.000Z</time>
      </trkpt>
      <trkpt lat="45.30454" lon="6.22152">
        <ele>1691.8000488281</ele>
        <time>2011-02-07T13:23:30.000Z</time>
      </trkpt>
      <trkpt lat="45.30427" lon="6.22144">
        <ele>1690.8000488281</ele>
        <time>2011-02-07T13:23:35.000Z</time>
      </trkpt>
      <trkpt lat="45.30415" lon="6.22141">
        <ele>1690</ele>
        <time>2011-02-07T13:23:39.000Z</time>
      </trkpt>
      <trkpt lat="45.30403" lon="6.22134">
        <ele>1688.5999755859</ele>
        <time>2011-02-07T13:23:44.000Z</time>
      </trkpt>
      <trkpt lat="45.30392" lon="6.22124">
        <ele>1686.8000488281</ele>
        <time>2011-02-07T13:23:48.000Z</time>
      </trkpt>
      <trkpt lat="45.30392" lon="6.22115">
        <ele>1686</ele>
        <time>2011-02-07T13:23:50.000Z</time>
      </trkpt>
      <trkpt lat="45.30376" lon="6.22087">
        <ele>1683.1999511719</ele>
        <time>2011-02-07T13:23:55.000Z</time>
      </trkpt>
      <trkpt lat="45.30356" lon="6.22067">
        <ele>1679.5999755859</ele>
        <time>2011-02-07T13:24:00.000Z</time>
      </trkpt>
      <trkpt lat="45.30344" lon="6.22055">
        <ele>1676.5999755859</ele>
        <time>2011-02-07T13:24:04.000Z</time>
      </trkpt>
      <trkpt lat="45.30339" lon="6.2205">
        <ele>1675.1999511719</ele>
        <time>2011-02-07T13:24:06.000Z</time>
      </trkpt>
      <trkpt lat="45.30318" lon="6.22018">
        <ele>1671.4000244141</ele>
        <time>2011-02-07T13:24:10.000Z</time>
      </trkpt>
      <trkpt lat="45.30297" lon="6.21974">
        <ele>1667.5999755859</ele>
        <time>2011-02-07T13:24:14.000Z</time>
      </trkpt>
      <trkpt lat="45.30283" lon="6.21979">
        <ele>1666.1999511719</ele>
        <time>2011-02-07T13:24:17.000Z</time>
      </trkpt>
      <trkpt lat="45.30284" lon="6.2199">
        <ele>1665.4000244141</ele>
        <time>2011-02-07T13:24:19.000Z</time>
      </trkpt>
      <trkpt lat="45.30291" lon="6.22004">
        <ele>1664.4000244141</ele>
        <time>2011-02-07T13:24:23.000Z</time>
      </trkpt>
      <trkpt lat="45.30293" lon="6.22008">
        <ele>1664</ele>
        <time>2011-02-07T13:24:24.000Z</time>
      </trkpt>
      <trkpt lat="45.30307" lon="6.2204">
        <ele>1661</ele>
        <time>2011-02-07T13:24:30.000Z</time>
      </trkpt>
      <trkpt lat="45.30328" lon="6.22068">
        <ele>1657.1999511719</ele>
        <time>2011-02-07T13:24:35.000Z</time>
      </trkpt>
      <trkpt lat="45.30343" lon="6.22092">
        <ele>1654.8000488281</ele>
        <time>2011-02-07T13:24:39.000Z</time>
      </trkpt>
      <trkpt lat="45.30362" lon="6.2213">
        <ele>1650.5999755859</ele>
        <time>2011-02-07T13:24:44.000Z</time>
      </trkpt>
      <trkpt lat="45.30373" lon="6.22157">
        <ele>1648.4000244141</ele>
        <time>2011-02-07T13:24:47.000Z</time>
      </trkpt>
      <trkpt lat="45.3039" lon="6.22186">
        <ele>1644.8000488281</ele>
        <time>2011-02-07T13:24:51.000Z</time>
      </trkpt>
      <trkpt lat="45.30426" lon="6.22233">
        <ele>1638.8000488281</ele>
        <time>2011-02-07T13:24:58.000Z</time>
      </trkpt>
      <trkpt lat="45.3045" lon="6.22261">
        <ele>1635.5999755859</ele>
        <time>2011-02-07T13:25:02.000Z</time>
      </trkpt>
      <trkpt lat="45.30472" lon="6.22279">
        <ele>1633.1999511719</ele>
        <time>2011-02-07T13:25:05.000Z</time>
      </trkpt>
      <trkpt lat="45.30497" lon="6.22315">
        <ele>1629.8000488281</ele>
        <time>2011-02-07T13:25:10.000Z</time>
      </trkpt>
      <trkpt lat="45.30501" lon="6.22319">
        <ele>1629.1999511719</ele>
        <time>2011-02-07T13:25:11.000Z</time>
      </trkpt>
      <trkpt lat="45.30522" lon="6.22345">
        <ele>1625</ele>
        <time>2011-02-07T13:25:16.000Z</time>
      </trkpt>
      <trkpt lat="45.3055" lon="6.22373">
        <ele>1620.5999755859</ele>
        <time>2011-02-07T13:25:21.000Z</time>
      </trkpt>
      <trkpt lat="45.30556" lon="6.22379">
        <ele>1619.8000488281</ele>
        <time>2011-02-07T13:25:22.000Z</time>
      </trkpt>
      <trkpt lat="45.30567" lon="6.22411">
        <ele>1618.4000244141</ele>
        <time>2011-02-07T13:25:25.000Z</time>
      </trkpt>
      <trkpt lat="45.30558" lon="6.22415">
        <ele>1616.8000488281</ele>
        <time>2011-02-07T13:25:28.000Z</time>
      </trkpt>
      <trkpt lat="45.3054" lon="6.22399">
        <ele>1614.5999755859</ele>
        <time>2011-02-07T13:25:32.000Z</time>
      </trkpt>
      <trkpt lat="45.30536" lon="6.22397">
        <ele>1614.4000244141</ele>
        <time>2011-02-07T13:25:33.000Z</time>
      </trkpt>
      <trkpt lat="45.30525" lon="6.22393">
        <ele>1613.5999755859</ele>
        <time>2011-02-07T13:25:38.000Z</time>
      </trkpt>
      <trkpt lat="45.30522" lon="6.22389">
        <ele>1613.1999511719</ele>
        <time>2011-02-07T13:25:40.000Z</time>
      </trkpt>
      <trkpt lat="45.30502" lon="6.22382">
        <ele>1611.4000244141</ele>
        <time>2011-02-07T13:25:47.000Z</time>
      </trkpt>
      <trkpt lat="45.3049" lon="6.22371">
        <ele>1609.8000488281</ele>
        <time>2011-02-07T13:25:52.000Z</time>
      </trkpt>
      <trkpt lat="45.30482" lon="6.22365">
        <ele>1608.5999755859</ele>
        <time>2011-02-07T13:25:55.000Z</time>
      </trkpt>
      <trkpt lat="45.30471" lon="6.22354">
        <ele>1606.4000244141</ele>
        <time>2011-02-07T13:25:59.000Z</time>
      </trkpt>
      <trkpt lat="45.30468" lon="6.22352">
        <ele>1606</ele>
        <time>2011-02-07T13:26:00.000Z</time>
      </trkpt>
      <trkpt lat="45.30444" lon="6.22338">
        <ele>1604.1999511719</ele>
        <time>2011-02-07T13:26:05.000Z</time>
      </trkpt>
      <trkpt lat="45.30425" lon="6.22329">
        <ele>1602.5999755859</ele>
        <time>2011-02-07T13:26:08.000Z</time>
      </trkpt>
      <trkpt lat="45.30411" lon="6.22323">
        <ele>1601.5999755859</ele>
        <time>2011-02-07T13:26:10.000Z</time>
      </trkpt>
      <trkpt lat="45.30379" lon="6.22312">
        <ele>1598.8000488281</ele>
        <time>2011-02-07T13:26:15.000Z</time>
      </trkpt>
      <trkpt lat="45.30361" lon="6.22304">
        <ele>1596.8000488281</ele>
        <time>2011-02-07T13:26:19.000Z</time>
      </trkpt>
      <trkpt lat="45.30359" lon="6.223">
        <ele>1596.5999755859</ele>
        <time>2011-02-07T13:26:20.000Z</time>
      </trkpt>
      <trkpt lat="45.30344" lon="6.22288">
        <ele>1594.8000488281</ele>
        <time>2011-02-07T13:26:25.000Z</time>
      </trkpt>
      <trkpt lat="45.30331" lon="6.22279">
        <ele>1593.1999511719</ele>
        <time>2011-02-07T13:26:29.000Z</time>
      </trkpt>
      <trkpt lat="45.30316" lon="6.22263">
        <ele>1591</ele>
        <time>2011-02-07T13:26:34.000Z</time>
      </trkpt>
      <trkpt lat="45.30314" lon="6.2226">
        <ele>1590.8000488281</ele>
        <time>2011-02-07T13:26:35.000Z</time>
      </trkpt>
      <trkpt lat="45.303" lon="6.22235">
        <ele>1588</ele>
        <time>2011-02-07T13:26:40.000Z</time>
      </trkpt>
      <trkpt lat="45.3028" lon="6.22221">
        <ele>1585.1999511719</ele>
        <time>2011-02-07T13:26:44.000Z</time>
      </trkpt>
      <trkpt lat="45.30276" lon="6.22217">
        <ele>1585</ele>
        <time>2011-02-07T13:26:45.000Z</time>
      </trkpt>
      <trkpt lat="45.30258" lon="6.22198">
        <ele>1582.1999511719</ele>
        <time>2011-02-07T13:26:49.000Z</time>
      </trkpt>
      <trkpt lat="45.30237" lon="6.22177">
        <ele>1579.8000488281</ele>
        <time>2011-02-07T13:26:54.000Z</time>
      </trkpt>
      <trkpt lat="45.30224" lon="6.22163">
        <ele>1578.1999511719</ele>
        <time>2011-02-07T13:26:59.000Z</time>
      </trkpt>
      <trkpt lat="45.30218" lon="6.22157">
        <ele>1577.8000488281</ele>
        <time>2011-02-07T13:27:04.000Z</time>
      </trkpt>
      <trkpt lat="45.30214" lon="6.22148">
        <ele>1577</ele>
        <time>2011-02-07T13:27:10.000Z</time>
      </trkpt>
      <trkpt lat="45.30208" lon="6.22139">
        <ele>1576</ele>
        <time>2011-02-07T13:27:16.000Z</time>
      </trkpt>
      <trkpt lat="45.30205" lon="6.2213">
        <ele>1575.4000244141</ele>
        <time>2011-02-07T13:27:23.000Z</time>
      </trkpt>
      <trkpt lat="45.30203" lon="6.2212">
        <ele>1574.4000244141</ele>
        <time>2011-02-07T13:27:29.000Z</time>
      </trkpt>
      <trkpt lat="45.30203" lon="6.22117">
        <ele>1574</ele>
        <time>2011-02-07T13:27:31.000Z</time>
      </trkpt>
      <trkpt lat="45.30202" lon="6.22112">
        <ele>1573.4000244141</ele>
        <time>2011-02-07T13:27:35.000Z</time>
      </trkpt>
      <trkpt lat="45.30194" lon="6.22099">
        <ele>1572.4000244141</ele>
        <time>2011-02-07T13:28:21.000Z</time>
      </trkpt>
      <trkpt lat="45.30188" lon="6.22089">
        <ele>1571</ele>
        <time>2011-02-07T13:28:29.000Z</time>
      </trkpt>
      <trkpt lat="45.30182" lon="6.22081">
        <ele>1569.8000488281</ele>
        <time>2011-02-07T13:28:36.000Z</time>
      </trkpt>
      <trkpt lat="45.30179" lon="6.22074">
        <ele>1568.8000488281</ele>
        <time>2011-02-07T13:28:41.000Z</time>
      </trkpt>
      <trkpt lat="45.30172" lon="6.22063">
        <ele>1568</ele>
        <time>2011-02-07T13:28:47.000Z</time>
      </trkpt>
      <trkpt lat="45.30165" lon="6.22052">
        <ele>1566.5999755859</ele>
        <time>2011-02-07T13:28:54.000Z</time>
      </trkpt>
      <trkpt lat="45.30161" lon="6.22044">
        <ele>1566</ele>
        <time>2011-02-07T13:28:59.000Z</time>
      </trkpt>
      <trkpt lat="45.30158" lon="6.22032">
        <ele>1565</ele>
        <time>2011-02-07T13:29:06.000Z</time>
      </trkpt>
      <trkpt lat="45.30151" lon="6.22016">
        <ele>1563.8000488281</ele>
        <time>2011-02-07T13:29:14.000Z</time>
      </trkpt>
      <trkpt lat="45.30148" lon="6.22005">
        <ele>1562.8000488281</ele>
        <time>2011-02-07T13:29:20.000Z</time>
      </trkpt>
      <trkpt lat="45.30143" lon="6.21998">
        <ele>1562.1999511719</ele>
        <time>2011-02-07T13:29:25.000Z</time>
      </trkpt>
      <trkpt lat="45.30135" lon="6.22">
        <ele>1560.5999755859</ele>
        <time>2011-02-07T13:29:32.000Z</time>
      </trkpt>
      <trkpt lat="45.30128" lon="6.22004">
        <ele>1559.4000244141</ele>
        <time>2011-02-07T13:30:11.000Z</time>
      </trkpt>
      <trkpt lat="45.30128" lon="6.22005">
        <ele>1562</ele>
        <time>2011-02-07T13:30:13.000Z</time>
      </trkpt>
      <trkpt lat="45.3013" lon="6.22007">
        <ele>1560.4000244141</ele>
        <time>2011-02-07T13:30:37.000Z</time>
      </trkpt>
      <trkpt lat="45.30129" lon="6.22011">
        <ele>1560</ele>
        <time>2011-02-07T13:30:41.000Z</time>
      </trkpt>
      <trkpt lat="45.30133" lon="6.22024">
        <ele>1558.8000488281</ele>
        <time>2011-02-07T13:30:48.000Z</time>
      </trkpt>
      <trkpt lat="45.3014" lon="6.22045">
        <ele>1557.1999511719</ele>
        <time>2011-02-07T13:30:53.000Z</time>
      </trkpt>
      <trkpt lat="45.30146" lon="6.22072">
        <ele>1554.5999755859</ele>
        <time>2011-02-07T13:30:58.000Z</time>
      </trkpt>
      <trkpt lat="45.30149" lon="6.22082">
        <ele>1553.5999755859</ele>
        <time>2011-02-07T13:31:00.000Z</time>
      </trkpt>
      <trkpt lat="45.30157" lon="6.2211">
        <ele>1550.8000488281</ele>
        <time>2011-02-07T13:31:05.000Z</time>
      </trkpt>
      <trkpt lat="45.3016" lon="6.22124">
        <ele>1549.8000488281</ele>
        <time>2011-02-07T13:31:08.000Z</time>
      </trkpt>
      <trkpt lat="45.30169" lon="6.22151">
        <ele>1547.1999511719</ele>
        <time>2011-02-07T13:31:13.000Z</time>
      </trkpt>
      <trkpt lat="45.30177" lon="6.22179">
        <ele>1544.4000244141</ele>
        <time>2011-02-07T13:31:18.000Z</time>
      </trkpt>
      <trkpt lat="45.30187" lon="6.2221">
        <ele>1541.5999755859</ele>
        <time>2011-02-07T13:31:23.000Z</time>
      </trkpt>
      <trkpt lat="45.30197" lon="6.22231">
        <ele>1538.8000488281</ele>
        <time>2011-02-07T13:31:27.000Z</time>
      </trkpt>
      <trkpt lat="45.30207" lon="6.22247">
        <ele>1537.1999511719</ele>
        <time>2011-02-07T13:31:30.000Z</time>
      </trkpt>
      <trkpt lat="45.30223" lon="6.2227">
        <ele>1534.5999755859</ele>
        <time>2011-02-07T13:31:34.000Z</time>
      </trkpt>
      <trkpt lat="45.30239" lon="6.22306">
        <ele>1530.8000488281</ele>
        <time>2011-02-07T13:31:39.000Z</time>
      </trkpt>
      <trkpt lat="45.30249" lon="6.22327">
        <ele>1528.8000488281</ele>
        <time>2011-02-07T13:31:42.000Z</time>
      </trkpt>
      <trkpt lat="45.30257" lon="6.22341">
        <ele>1527.8000488281</ele>
        <time>2011-02-07T13:31:44.000Z</time>
      </trkpt>
      <trkpt lat="45.3028" lon="6.22384">
        <ele>1524</ele>
        <time>2011-02-07T13:31:50.000Z</time>
      </trkpt>
      <trkpt lat="45.30293" lon="6.2241">
        <ele>1521.5999755859</ele>
        <time>2011-02-07T13:31:54.000Z</time>
      </trkpt>
      <trkpt lat="45.30306" lon="6.22435">
        <ele>1518.4000244141</ele>
        <time>2011-02-07T13:31:59.000Z</time>
      </trkpt>
      <trkpt lat="45.30321" lon="6.22463">
        <ele>1515.4000244141</ele>
        <time>2011-02-07T13:32:05.000Z</time>
      </trkpt>
      <trkpt lat="45.30326" lon="6.22474">
        <ele>1514.1999511719</ele>
        <time>2011-02-07T13:32:07.000Z</time>
      </trkpt>
      <trkpt lat="45.30331" lon="6.22483">
        <ele>1513.1999511719</ele>
        <time>2011-02-07T13:32:09.000Z</time>
      </trkpt>
      <trkpt lat="45.30344" lon="6.22499">
        <ele>1511.1999511719</ele>
        <time>2011-02-07T13:32:14.000Z</time>
      </trkpt>
      <trkpt lat="45.30351" lon="6.2251">
        <ele>1509.5999755859</ele>
        <time>2011-02-07T13:32:18.000Z</time>
      </trkpt>
      <trkpt lat="45.30364" lon="6.22532">
        <ele>1507.5999755859</ele>
        <time>2011-02-07T13:32:24.000Z</time>
      </trkpt>
      <trkpt lat="45.30374" lon="6.22549">
        <ele>1505.5999755859</ele>
        <time>2011-02-07T13:32:28.000Z</time>
      </trkpt>
      <trkpt lat="45.3039" lon="6.22567">
        <ele>1501.5999755859</ele>
        <time>2011-02-07T13:32:33.000Z</time>
      </trkpt>
      <trkpt lat="45.30396" lon="6.22576">
        <ele>1500.4000244141</ele>
        <time>2011-02-07T13:32:35.000Z</time>
      </trkpt>
      <trkpt lat="45.30417" lon="6.22621">
        <ele>1495.8000488281</ele>
        <time>2011-02-07T13:32:42.000Z</time>
      </trkpt>
      <trkpt lat="45.30422" lon="6.22631">
        <ele>1495.1999511719</ele>
        <time>2011-02-07T13:32:44.000Z</time>
      </trkpt>
      <trkpt lat="45.3043" lon="6.22644">
        <ele>1494</ele>
        <time>2011-02-07T13:32:47.000Z</time>
      </trkpt>
      <trkpt lat="45.30433" lon="6.22679">
        <ele>1491.4000244141</ele>
        <time>2011-02-07T13:32:52.000Z</time>
      </trkpt>
      <trkpt lat="45.30431" lon="6.22683">
        <ele>1491</ele>
        <time>2011-02-07T13:32:53.000Z</time>
      </trkpt>
      <trkpt lat="45.30422" lon="6.22687">
        <ele>1489.8000488281</ele>
        <time>2011-02-07T13:32:58.000Z</time>
      </trkpt>
      <trkpt lat="45.30419" lon="6.22686">
        <ele>1489.8000488281</ele>
        <time>2011-02-07T13:33:02.000Z</time>
      </trkpt>
      <trkpt lat="45.30417" lon="6.22682">
        <ele>1489.4000244141</ele>
        <time>2011-02-07T13:33:05.000Z</time>
      </trkpt>
      <trkpt lat="45.30414" lon="6.2268">
        <ele>1488.8000488281</ele>
        <time>2011-02-07T13:33:08.000Z</time>
      </trkpt>
      <trkpt lat="45.30415" lon="6.22674">
        <ele>1488.4000244141</ele>
        <time>2011-02-07T13:33:13.000Z</time>
      </trkpt>
      <trkpt lat="45.3041" lon="6.22676">
        <ele>1488.1999511719</ele>
        <time>2011-02-07T13:33:35.000Z</time>
      </trkpt>
      <trkpt lat="45.30404" lon="6.22666">
        <ele>1487.5999755859</ele>
        <time>2011-02-07T13:33:42.000Z</time>
      </trkpt>
      <trkpt lat="45.30401" lon="6.22657">
        <ele>1487</ele>
        <time>2011-02-07T13:33:47.000Z</time>
      </trkpt>
      <trkpt lat="45.30398" lon="6.22652">
        <ele>1486.4000244141</ele>
        <time>2011-02-07T13:33:50.000Z</time>
      </trkpt>
      <trkpt lat="45.30391" lon="6.22646">
        <ele>1486</ele>
        <time>2011-02-07T13:33:57.000Z</time>
      </trkpt>
      <trkpt lat="45.30385" lon="6.2264">
        <ele>1485.5999755859</ele>
        <time>2011-02-07T13:34:03.000Z</time>
      </trkpt>
      <trkpt lat="45.30379" lon="6.22632">
        <ele>1484.4000244141</ele>
        <time>2011-02-07T13:34:10.000Z</time>
      </trkpt>
      <trkpt lat="45.30375" lon="6.22632">
        <ele>1483.8000488281</ele>
        <time>2011-02-07T13:34:15.000Z</time>
      </trkpt>
      <trkpt lat="45.30367" lon="6.22631">
        <ele>1482</ele>
        <time>2011-02-07T13:34:59.000Z</time>
      </trkpt>
      <trkpt lat="45.30366" lon="6.22631">
        <ele>1484.8000488281</ele>
        <time>2011-02-07T13:35:02.000Z</time>
      </trkpt>
      <trkpt lat="45.30361" lon="6.22626">
        <ele>1483.4000244141</ele>
        <time>2011-02-07T13:35:10.000Z</time>
      </trkpt>
      <trkpt lat="45.30359" lon="6.22622">
        <ele>1483</ele>
        <time>2011-02-07T13:35:12.000Z</time>
      </trkpt>
      <trkpt lat="45.30353" lon="6.22616">
        <ele>1482.1999511719</ele>
        <time>2011-02-07T13:35:16.000Z</time>
      </trkpt>
      <trkpt lat="45.30341" lon="6.22601">
        <ele>1480.4000244141</ele>
        <time>2011-02-07T13:35:23.000Z</time>
      </trkpt>
      <trkpt lat="45.30333" lon="6.22592">
        <ele>1477.8000488281</ele>
        <time>2011-02-07T13:35:27.000Z</time>
      </trkpt>
      <trkpt lat="45.3033" lon="6.2259">
        <ele>1477.4000244141</ele>
        <time>2011-02-07T13:35:28.000Z</time>
      </trkpt>
      <trkpt lat="45.30316" lon="6.22574">
        <ele>1473.8000488281</ele>
        <time>2011-02-07T13:35:34.000Z</time>
      </trkpt>
      <trkpt lat="45.30298" lon="6.22553">
        <ele>1471.1999511719</ele>
        <time>2011-02-07T13:35:39.000Z</time>
      </trkpt>
      <trkpt lat="45.30275" lon="6.22519">
        <ele>1468.4000244141</ele>
        <time>2011-02-07T13:35:44.000Z</time>
      </trkpt>
      <trkpt lat="45.30255" lon="6.225">
        <ele>1466</ele>
        <time>2011-02-07T13:35:50.000Z</time>
      </trkpt>
      <trkpt lat="45.3025" lon="6.22493">
        <ele>1464.5999755859</ele>
        <time>2011-02-07T13:35:52.000Z</time>
      </trkpt>
      <trkpt lat="45.30238" lon="6.22483">
        <ele>1463.1999511719</ele>
        <time>2011-02-07T13:35:57.000Z</time>
      </trkpt>
      <trkpt lat="45.30229" lon="6.2248">
        <ele>1462.5999755859</ele>
        <time>2011-02-07T13:36:02.000Z</time>
      </trkpt>
      <trkpt lat="45.30227" lon="6.22479">
        <ele>1462.4000244141</ele>
        <time>2011-02-07T13:36:03.000Z</time>
      </trkpt>
      <trkpt lat="45.30188" lon="6.22462">
        <ele>1460.4000244141</ele>
        <time>2011-02-07T13:36:30.000Z</time>
      </trkpt>
      <trkpt lat="45.30186" lon="6.22461">
        <ele>1460.4000244141</ele>
        <time>2011-02-07T13:36:31.000Z</time>
      </trkpt>
      <trkpt lat="45.30174" lon="6.22464">
        <ele>1459.1999511719</ele>
        <time>2011-02-07T13:36:36.000Z</time>
      </trkpt>
      <trkpt lat="45.30168" lon="6.22477">
        <ele>1458</ele>
        <time>2011-02-07T13:36:39.000Z</time>
      </trkpt>
      <trkpt lat="45.30169" lon="6.22485">
        <ele>1457</ele>
        <time>2011-02-07T13:36:41.000Z</time>
      </trkpt>
      <trkpt lat="45.30172" lon="6.22492">
        <ele>1455.8000488281</ele>
        <time>2011-02-07T13:36:46.000Z</time>
      </trkpt>
      <trkpt lat="45.30172" lon="6.22497">
        <ele>1455.8000488281</ele>
        <time>2011-02-07T13:36:49.000Z</time>
      </trkpt>
      <trkpt lat="45.30176" lon="6.22516">
        <ele>1454.8000488281</ele>
        <time>2011-02-07T13:36:56.000Z</time>
      </trkpt>
      <trkpt lat="45.30186" lon="6.22545">
        <ele>1452.5999755859</ele>
        <time>2011-02-07T13:37:03.000Z</time>
      </trkpt>
      <trkpt lat="45.30197" lon="6.22565">
        <ele>1450.8000488281</ele>
        <time>2011-02-07T13:37:08.000Z</time>
      </trkpt>
      <trkpt lat="45.30206" lon="6.22583">
        <ele>1448.8000488281</ele>
        <time>2011-02-07T13:37:13.000Z</time>
      </trkpt>
      <trkpt lat="45.30223" lon="6.22603">
        <ele>1446.4000244141</ele>
        <time>2011-02-07T13:37:19.000Z</time>
      </trkpt>
      <trkpt lat="45.3024" lon="6.22625">
        <ele>1443.4000244141</ele>
        <time>2011-02-07T13:37:24.000Z</time>
      </trkpt>
      <trkpt lat="45.30245" lon="6.22639">
        <ele>1442</ele>
        <time>2011-02-07T13:37:26.000Z</time>
      </trkpt>
      <trkpt lat="45.30249" lon="6.22677">
        <ele>1439.1999511719</ele>
        <time>2011-02-07T13:37:31.000Z</time>
      </trkpt>
      <trkpt lat="45.30252" lon="6.227">
        <ele>1437.4000244141</ele>
        <time>2011-02-07T13:37:36.000Z</time>
      </trkpt>
      <trkpt lat="45.30257" lon="6.22698">
        <ele>1436.5999755859</ele>
        <time>2011-02-07T13:37:39.000Z</time>
      </trkpt>
      <trkpt lat="45.30265" lon="6.22697">
        <ele>1436.5999755859</ele>
        <time>2011-02-07T13:38:04.000Z</time>
      </trkpt>
      <trkpt lat="45.30267" lon="6.22707">
        <ele>1436.1999511719</ele>
        <time>2011-02-07T13:38:17.000Z</time>
      </trkpt>
      <trkpt lat="45.3027" lon="6.22717">
        <ele>1434.5999755859</ele>
        <time>2011-02-07T13:38:24.000Z</time>
      </trkpt>
      <trkpt lat="45.30275" lon="6.22729">
        <ele>1433.8000488281</ele>
        <time>2011-02-07T13:38:32.000Z</time>
      </trkpt>
      <trkpt lat="45.3028" lon="6.22734">
        <ele>1433</ele>
        <time>2011-02-07T13:38:38.000Z</time>
      </trkpt>
      <trkpt lat="45.3028" lon="6.22734">
        <ele>1433</ele>
        <time>2011-02-07T13:38:39.000Z</time>
      </trkpt>
      <trkpt lat="45.30282" lon="6.22738">
        <ele>1432.1999511719</ele>
        <time>2011-02-07T13:39:56.000Z</time>
      </trkpt>
    </trkseg>
  </trk>
</gpx>